Wetterdaten: Dienstag, 02.08.2016
Datum Zeit Temp. A. Temp. A. max Feuchte A. Luftdruck Regen Wind Richtung Richtung Sonnenschein ET UV Solar Taupunkt Windben
02.08.2016 00:00 12,1 C 12,1 C 90 % 1019,4 hPa 0,0 mm 1,0 km/h (0 Bft) W 281 0 min 0,000 mm 0,0 UV-I 0 W/m 10,5 C 1,6 km/h (1 Bft)
02.08.2016 00:01 12,1 C 12,1 C 90 % 1019,4 hPa 0,0 mm 2,2 km/h (1 Bft) W 281 0 min 0,000 mm 0,0 UV-I 0 W/m 10,5 C 3,2 km/h (1 Bft)
02.08.2016 00:02 12,1 C 12,1 C 90 % 1019,5 hPa 0,0 mm 0,8 km/h (0 Bft) W 281 0 min 0,000 mm 0,0 UV-I 0 W/m 10,5 C 3,2 km/h (1 Bft)
02.08.2016 00:03 12,0 C 12,1 C 90 % 1019,4 hPa 0,0 mm 0,0 km/h (0 Bft) W 281 0 min 0,000 mm 0,0 UV-I 0 W/m 10,4 C 0,0 km/h (0 Bft)
02.08.2016 00:04 11,9 C 12,0 C 90 % 1019,5 hPa 0,0 mm 0,0 km/h (0 Bft) W 281 0 min 0,000 mm 0,0 UV-I 0 W/m 10,3 C 0,0 km/h (0 Bft)
02.08.2016 00:05 11,9 C 12,0 C 90 % 1019,5 hPa 0,0 mm 1,3 km/h (1 Bft) W 281 0 min 0,000 mm 0,0 UV-I 0 W/m 10,3 C 3,2 km/h (1 Bft)
02.08.2016 00:06 11,9 C 11,9 C 90 % 1019,4 hPa 0,0 mm 0,3 km/h (0 Bft) W 281 0 min 0,000 mm 0,0 UV-I 0 W/m 10,3 C 1,6 km/h (1 Bft)
02.08.2016 00:07 11,9 C 12,0 C 90 % 1019,4 hPa 0,0 mm 1,4 km/h (1 Bft) W 281 0 min 0,000 mm 0,0 UV-I 0 W/m 10,3 C 3,2 km/h (1 Bft)
02.08.2016 00:08 12,1 C 12,1 C 90 % 1019,4 hPa 0,0 mm 0,9 km/h (0 Bft) W 281 0 min 0,000 mm 0,0 UV-I 0 W/m 10,5 C 1,6 km/h (1 Bft)
02.08.2016 00:09 12,0 C 12,1 C 90 % 1019,4 hPa 0,0 mm 0,1 km/h (0 Bft) W 281 0 min 0,000 mm 0,0 UV-I 0 W/m 10,4 C 1,6 km/h (1 Bft)
02.08.2016 00:10 12,1 C 12,1 C 90 % 1019,3 hPa 0,0 mm 1,4 km/h (1 Bft) W-NW 296 0 min 0,000 mm 0,0 UV-I 0 W/m 10,5 C 4,8 km/h (1 Bft)
02.08.2016 00:11 12,1 C 12,1 C 90 % 1019,3 hPa 0,0 mm 2,2 km/h (1 Bft) W 269 0 min 0,000 mm 0,0 UV-I 0 W/m 10,5 C 4,8 km/h (1 Bft)
02.08.2016 00:12 12,0 C 12,1 C 90 % 1019,3 hPa 0,0 mm 1,7 km/h (1 Bft) W 269 0 min 0,000 mm 0,0 UV-I 0 W/m 10,4 C 3,2 km/h (1 Bft)
02.08.2016 00:13 12,0 C 12,1 C 90 % 1019,3 hPa 0,0 mm 0,6 km/h (0 Bft) W 269 0 min 0,000 mm 0,0 UV-I 0 W/m 10,4 C 1,6 km/h (1 Bft)
02.08.2016 00:14 12,0 C 12,0 C 90 % 1019,3 hPa 0,0 mm 1,1 km/h (1 Bft) N-NW 348 0 min 0,000 mm 0,0 UV-I 0 W/m 10,4 C 3,2 km/h (1 Bft)
02.08.2016 00:15 12,0 C 12,1 C 90 % 1019,3 hPa 0,0 mm 1,0 km/h (0 Bft) N-NW 348 0 min 0,000 mm 0,0 UV-I 0 W/m 10,4 C 3,2 km/h (1 Bft)
02.08.2016 00:16 12,0 C 12,1 C 90 % 1019,3 hPa 0,0 mm 1,1 km/h (1 Bft) N-NW 345 0 min 0,000 mm 0,0 UV-I 0 W/m 10,4 C 4,8 km/h (1 Bft)
02.08.2016 00:17 12,1 C 12,1 C 90 % 1019,3 hPa 0,0 mm 1,6 km/h (1 Bft) W-SW 243 0 min 0,000 mm 0,0 UV-I 0 W/m 10,5 C 3,2 km/h (1 Bft)
02.08.2016 00:18 12,0 C 12,1 C 89 % 1019,3 hPa 0,0 mm 0,6 km/h (0 Bft) W-SW 243 0 min 0,000 mm 0,0 UV-I 0 W/m 10,2 C 1,6 km/h (1 Bft)
02.08.2016 00:19 12,0 C 12,0 C 90 % 1019,3 hPa 0,0 mm 0,1 km/h (0 Bft) W-SW 243 0 min 0,000 mm 0,0 UV-I 0 W/m 10,4 C 1,6 km/h (1 Bft)
02.08.2016 00:20 12,0 C 12,0 C 90 % 1019,3 hPa 0,0 mm 0,3 km/h (0 Bft) W-SW 243 0 min 0,000 mm 0,0 UV-I 0 W/m 10,4 C 1,6 km/h (1 Bft)
02.08.2016 00:21 11,9 C 12,0 C 89 % 1019,3 hPa 0,0 mm 0,1 km/h (0 Bft) W-SW 243 0 min 0,000 mm 0,0 UV-I 0 W/m 10,1 C 1,6 km/h (1 Bft)
02.08.2016 00:22 11,9 C 11,9 C 90 % 1019,2 hPa 0,0 mm 0,4 km/h (0 Bft) W-SW 243 0 min 0,000 mm 0,0 UV-I 0 W/m 10,3 C 1,6 km/h (1 Bft)
02.08.2016 00:23 11,9 C 11,9 C 90 % 1019,2 hPa 0,0 mm 0,0 km/h (0 Bft) W-SW 243 0 min 0,000 mm 0,0 UV-I 0 W/m 10,3 C 0,0 km/h (0 Bft)
02.08.2016 00:24 11,9 C 11,9 C 90 % 1019,2 hPa 0,0 mm 0,3 km/h (0 Bft) W-SW 243 0 min 0,000 mm 0,0 UV-I 0 W/m 10,3 C 1,6 km/h (1 Bft)
02.08.2016 00:25 11,9 C 11,9 C 90 % 1019,3 hPa 0,0 mm 0,2 km/h (0 Bft) W-SW 243 0 min 0,000 mm 0,0 UV-I 0 W/m 10,3 C 1,6 km/h (1 Bft)
02.08.2016 00:26 11,9 C 11,9 C 90 % 1019,3 hPa 0,0 mm 0,2 km/h (0 Bft) W-SW 243 0 min 0,000 mm 0,0 UV-I 0 W/m 10,3 C 1,6 km/h (1 Bft)
02.08.2016 00:27 11,9 C 11,9 C 90 % 1019,2 hPa 0,0 mm 0,7 km/h (0 Bft) W-SW 243 0 min 0,000 mm 0,0 UV-I 0 W/m 10,3 C 1,6 km/h (1 Bft)
02.08.2016 00:28 11,9 C 11,9 C 90 % 1019,2 hPa 0,0 mm 1,0 km/h (0 Bft) W-SW 243 0 min 0,000 mm 0,0 UV-I 0 W/m 10,3 C 3,2 km/h (1 Bft)
02.08.2016 00:29 11,9 C 11,9 C 90 % 1019,1 hPa 0,0 mm 0,1 km/h (0 Bft) W-SW 243 0 min 0,000 mm 0,0 UV-I 0 W/m 10,3 C 1,6 km/h (1 Bft)
02.08.2016 00:30 11,9 C 11,9 C 90 % 1019,1 hPa 0,0 mm 0,3 km/h (0 Bft) W-SW 243 0 min 0,000 mm 0,0 UV-I 0 W/m 10,3 C 1,6 km/h (1 Bft)
02.08.2016 00:31 11,9 C 11,9 C 90 % 1019,2 hPa 0,0 mm 1,1 km/h (1 Bft) W-SW 243 0 min 0,000 mm 0,0 UV-I 0 W/m 10,3 C 3,2 km/h (1 Bft)
02.08.2016 00:32 11,9 C 11,9 C 90 % 1019,2 hPa 0,0 mm 1,3 km/h (1 Bft) SW 229 0 min 0,000 mm 0,0 UV-I 0 W/m 10,3 C 1,6 km/h (1 Bft)
02.08.2016 00:33 11,8 C 11,9 C 90 % 1019,2 hPa 0,0 mm 1,0 km/h (0 Bft) SW 229 0 min 0,000 mm 0,0 UV-I 0 W/m 10,2 C 1,6 km/h (1 Bft)
02.08.2016 00:34 11,9 C 11,9 C 90 % 1019,2 hPa 0,0 mm 2,1 km/h (1 Bft) N 360 0 min 0,000 mm 0,0 UV-I 0 W/m 10,3 C 3,2 km/h (1 Bft)
02.08.2016 00:35 11,9 C 11,9 C 90 % 1019,1 hPa 0,0 mm 1,5 km/h (1 Bft) W-NW 301 0 min 0,000 mm 0,0 UV-I 0 W/m 10,3 C 1,6 km/h (1 Bft)
02.08.2016 00:36 11,9 C 11,9 C 90 % 1019,1 hPa 0,0 mm 2,1 km/h (1 Bft) W-NW 292 0 min 0,000 mm 0,0 UV-I 0 W/m 10,3 C 3,2 km/h (1 Bft)
02.08.2016 00:37 11,9 C 11,9 C 90 % 1019,1 hPa 0,0 mm 4,5 km/h (1 Bft) W-SW 255 0 min 0,000 mm 0,0 UV-I 0 W/m 10,3 C 4,8 km/h (1 Bft)
02.08.2016 00:38 11,9 C 11,9 C 90 % 1019,1 hPa 0,0 mm 1,7 km/h (1 Bft) W-SW 255 0 min 0,000 mm 0,0 UV-I 0 W/m 10,3 C 3,2 km/h (1 Bft)
02.08.2016 00:39 11,9 C 11,9 C 90 % 1019,1 hPa 0,0 mm 1,5 km/h (1 Bft) W-SW 255 0 min 0,000 mm 0,0 UV-I 0 W/m 10,3 C 3,2 km/h (1 Bft)
02.08.2016 00:40 11,9 C 11,9 C 90 % 1019,1 hPa 0,0 mm 1,6 km/h (1 Bft) W-SW 255 0 min 0,000 mm 0,0 UV-I 0 W/m 10,3 C 3,2 km/h (1 Bft)
02.08.2016 00:41 11,9 C 12,0 C 90 % 1019,1 hPa 0,0 mm 1,4 km/h (1 Bft) W-SW 255 0 min 0,000 mm 0,0 UV-I 0 W/m 10,3 C 3,2 km/h (1 Bft)
02.08.2016 00:42 11,9 C 11,9 C 89 % 1019,1 hPa 0,0 mm 0,2 km/h (0 Bft) W-SW 255 0 min 0,000 mm 0,0 UV-I 0 W/m 10,1 C 1,6 km/h (1 Bft)
02.08.2016 00:43 11,9 C 11,9 C 90 % 1019,1 hPa 0,0 mm 0,2 km/h (0 Bft) W-SW 256 0 min 0,000 mm 0,0 UV-I 0 W/m 10,3 C 1,6 km/h (1 Bft)
02.08.2016 00:44 11,9 C 11,9 C 90 % 1019,1 hPa 0,0 mm 0,8 km/h (0 Bft) NW 317 0 min 0,000 mm 0,0 UV-I 0 W/m 10,3 C 3,2 km/h (1 Bft)
02.08.2016 00:45 11,9 C 11,9 C 89 % 1019,1 hPa 0,0 mm 0,9 km/h (0 Bft) NW 317 0 min 0,000 mm 0,0 UV-I 0 W/m 10,1 C 1,6 km/h (1 Bft)
02.08.2016 00:46 11,9 C 11,9 C 90 % 1019,1 hPa 0,0 mm 0,0 km/h (0 Bft) NW 317 0 min 0,000 mm 0,0 UV-I 0 W/m 10,3 C 0,0 km/h (0 Bft)
02.08.2016 00:47 11,8 C 11,9 C 90 % 1019,1 hPa 0,0 mm 0,0 km/h (0 Bft) NW 317 0 min 0,000 mm 0,0 UV-I 0 W/m 10,2 C 0,0 km/h (0 Bft)
02.08.2016 00:48 11,8 C 11,8 C 90 % 1019,1 hPa 0,0 mm 0,0 km/h (0 Bft) NW 317 0 min 0,000 mm 0,0 UV-I 0 W/m 10,2 C 0,0 km/h (0 Bft)
02.08.2016 00:49 11,8 C 11,8 C 90 % 1019,1 hPa 0,0 mm 0,3 km/h (0 Bft) NW 317 0 min 0,000 mm 0,0 UV-I 0 W/m 10,2 C 1,6 km/h (1 Bft)
02.08.2016 00:50 11,8 C 11,8 C 90 % 1019,1 hPa 0,0 mm 0,3 km/h (0 Bft) NW 317 0 min 0,000 mm 0,0 UV-I 0 W/m 10,2 C 1,6 km/h (1 Bft)
02.08.2016 00:51 11,7 C 11,8 C 90 % 1019,1 hPa 0,0 mm 0,3 km/h (0 Bft) NW 317 0 min 0,000 mm 0,0 UV-I 0 W/m 10,1 C 1,6 km/h (1 Bft)
02.08.2016 00:52 11,8 C 11,8 C 90 % 1019,1 hPa 0,0 mm 0,2 km/h (0 Bft) NW 317 0 min 0,000 mm 0,0 UV-I 0 W/m 10,2 C 1,6 km/h (1 Bft)
02.08.2016 00:53 11,7 C 11,8 C 90 % 1019,1 hPa 0,0 mm 0,1 km/h (0 Bft) NW 317 0 min 0,000 mm 0,0 UV-I 0 W/m 10,1 C 1,6 km/h (1 Bft)
02.08.2016 00:54 11,7 C 11,8 C 91 % 1019,1 hPa 0,0 mm 0,8 km/h (0 Bft) NW 317 0 min 0,000 mm 0,0 UV-I 0 W/m 10,3 C 1,6 km/h (1 Bft)
02.08.2016 00:55 11,7 C 11,7 C 90 % 1019,0 hPa 0,0 mm 0,3 km/h (0 Bft) NW 317 0 min 0,000 mm 0,0 UV-I 0 W/m 10,1 C 1,6 km/h (1 Bft)
02.08.2016 00:56 11,7 C 11,7 C 90 % 1019,0 hPa 0,0 mm 0,2 km/h (0 Bft) NW 317 0 min 0,000 mm 0,0 UV-I 0 W/m 10,1 C 1,6 km/h (1 Bft)
02.08.2016 00:57 11,7 C 11,7 C 91 % 1018,9 hPa 0,0 mm 0,2 km/h (0 Bft) NW 317 0 min 0,000 mm 0,0 UV-I 0 W/m 10,3 C 1,6 km/h (1 Bft)
02.08.2016 00:58 11,7 C 11,7 C 90 % 1018,9 hPa 0,0 mm 0,2 km/h (0 Bft) NW 317 0 min 0,000 mm 0,0 UV-I 0 W/m 10,1 C 1,6 km/h (1 Bft)
02.08.2016 00:59 11,6 C 11,7 C 91 % 1018,9 hPa 0,0 mm 0,9 km/h (0 Bft) NW 317 0 min 0,000 mm 0,0 UV-I 0 W/m 10,2 C 3,2 km/h (1 Bft)
02.08.2016 01:00 11,6 C 11,6 C 91 % 1018,9 hPa 0,0 mm 1,5 km/h (1 Bft) NW 317 0 min 0,000 mm 0,0 UV-I 0 W/m 10,2 C 3,2 km/h (1 Bft)
02.08.2016 01:01 11,6 C 11,6 C 91 % 1018,9 hPa 0,0 mm 1,9 km/h (1 Bft) NW 317 0 min 0,000 mm 0,0 UV-I 0 W/m 10,2 C 3,2 km/h (1 Bft)
02.08.2016 01:02 11,6 C 11,6 C 91 % 1018,9 hPa 0,0 mm 1,7 km/h (1 Bft) NW 317 0 min 0,000 mm 0,0 UV-I 0 W/m 10,2 C 3,2 km/h (1 Bft)
02.08.2016 01:03 11,6 C 11,6 C 90 % 1018,9 hPa 0,0 mm 1,8 km/h (1 Bft) NW 317 0 min 0,000 mm 0,0 UV-I 0 W/m 10,0 C 3,2 km/h (1 Bft)
02.08.2016 01:04 11,6 C 11,6 C 90 % 1018,9 hPa 0,0 mm 2,3 km/h (1 Bft) NW 317 0 min 0,000 mm 0,0 UV-I 0 W/m 10,0 C 3,2 km/h (1 Bft)
02.08.2016 01:05 11,6 C 11,6 C 90 % 1018,9 hPa 0,0 mm 2,7 km/h (1 Bft) NW 308 0 min 0,000 mm 0,0 UV-I 0 W/m 10,0 C 4,8 km/h (1 Bft)
02.08.2016 01:06 11,6 C 11,6 C 90 % 1018,9 hPa 0,0 mm 1,6 km/h (1 Bft) NW 308 0 min 0,000 mm 0,0 UV-I 0 W/m 10,0 C 3,2 km/h (1 Bft)
02.08.2016 01:07 11,6 C 11,6 C 90 % 1018,9 hPa 0,0 mm 1,5 km/h (1 Bft) NW 308 0 min 0,000 mm 0,0 UV-I 0 W/m 10,0 C 3,2 km/h (1 Bft)
02.08.2016 01:08 11,6 C 11,6 C 90 % 1018,9 hPa 0,0 mm 2,7 km/h (1 Bft) W-NW 289 0 min 0,000 mm 0,0 UV-I 0 W/m 10,0 C 6,4 km/h (2 Bft)
02.08.2016 01:09 11,6 C 11,6 C 90 % 1018,9 hPa 0,0 mm 2,5 km/h (1 Bft) SW 236 0 min 0,000 mm 0,0 UV-I 0 W/m 10,0 C 4,8 km/h (1 Bft)
02.08.2016 01:10 11,6 C 11,6 C 90 % 1018,9 hPa 0,0 mm 0,8 km/h (0 Bft) SW 236 0 min 0,000 mm 0,0 UV-I 0 W/m 10,0 C 1,6 km/h (1 Bft)
02.08.2016 01:11 11,6 C 11,6 C 90 % 1018,9 hPa 0,0 mm 0,0 km/h (0 Bft) SW 236 0 min 0,000 mm 0,0 UV-I 0 W/m 10,0 C 0,0 km/h (0 Bft)
02.08.2016 01:12 11,6 C 11,6 C 90 % 1019,0 hPa 0,0 mm 0,5 km/h (0 Bft) SW 236 0 min 0,000 mm 0,0 UV-I 0 W/m 10,0 C 1,6 km/h (1 Bft)
02.08.2016 01:13 11,5 C 11,6 C 91 % 1019,0 hPa 0,0 mm 1,4 km/h (1 Bft) SW 236 0 min 0,000 mm 0,0 UV-I 0 W/m 10,1 C 3,2 km/h (1 Bft)
02.08.2016 01:14 11,6 C 11,6 C 91 % 1018,9 hPa 0,0 mm 0,7 km/h (0 Bft) SW 236 0 min 0,000 mm 0,0 UV-I 0 W/m 10,2 C 1,6 km/h (1 Bft)
02.08.2016 01:15 11,6 C 11,6 C 91 % 1018,9 hPa 0,0 mm 0,1 km/h (0 Bft) SW 236 0 min 0,000 mm 0,0 UV-I 0 W/m 10,2 C 1,6 km/h (1 Bft)
02.08.2016 01:16 11,5 C 11,6 C 90 % 1018,9 hPa 0,0 mm 0,2 km/h (0 Bft) SW 236 0 min 0,000 mm 0,0 UV-I 0 W/m 9,9 C 1,6 km/h (1 Bft)
02.08.2016 01:17 11,5 C 11,5 C 91 % 1018,9 hPa 0,0 mm 0,0 km/h (0 Bft) SW 236 0 min 0,000 mm 0,0 UV-I 0 W/m 10,1 C 0,0 km/h (0 Bft)
02.08.2016 01:18 11,4 C 11,5 C 91 % 1019,0 hPa 0,0 mm 0,6 km/h (0 Bft) SW 236 0 min 0,000 mm 0,0 UV-I 0 W/m 10,0 C 1,6 km/h (1 Bft)
02.08.2016 01:19 11,4 C 11,5 C 91 % 1019,0 hPa 0,0 mm 1,1 km/h (1 Bft) SW 236 0 min 0,000 mm 0,0 UV-I 0 W/m 10,0 C 1,6 km/h (1 Bft)
02.08.2016 01:20 11,4 C 11,4 C 91 % 1019,0 hPa 0,0 mm 0,7 km/h (0 Bft) SW 236 0 min 0,000 mm 0,0 UV-I 0 W/m 10,0 C 1,6 km/h (1 Bft)
02.08.2016 01:21 11,4 C 11,4 C 91 % 1019,0 hPa 0,0 mm 1,5 km/h (1 Bft) SW 236 0 min 0,000 mm 0,0 UV-I 0 W/m 10,0 C 1,6 km/h (1 Bft)
02.08.2016 01:22 11,4 C 11,4 C 91 % 1019,0 hPa 0,0 mm 0,7 km/h (0 Bft) SW 236 0 min 0,000 mm 0,0 UV-I 0 W/m 10,0 C 1,6 km/h (1 Bft)
02.08.2016 01:23 11,3 C 11,4 C 91 % 1019,0 hPa 0,0 mm 1,5 km/h (1 Bft) SW 236 0 min 0,000 mm 0,0 UV-I 0 W/m 9,9 C 3,2 km/h (1 Bft)
02.08.2016 01:24 11,3 C 11,4 C 91 % 1019,0 hPa 0,0 mm 0,0 km/h (0 Bft) SW 236 0 min 0,000 mm 0,0 UV-I 0 W/m 9,9 C 0,0 km/h (0 Bft)
02.08.2016 01:25 11,3 C 11,3 C 91 % 1019,0 hPa 0,0 mm 1,1 km/h (1 Bft) SW 236 0 min 0,000 mm 0,0 UV-I 0 W/m 9,9 C 1,6 km/h (1 Bft)
02.08.2016 01:26 11,3 C 11,3 C 92 % 1019,0 hPa 0,0 mm 0,7 km/h (0 Bft) SW 236 0 min 0,000 mm 0,0 UV-I 0 W/m 10,0 C 1,6 km/h (1 Bft)
02.08.2016 01:27 11,3 C 11,3 C 91 % 1019,0 hPa 0,0 mm 0,9 km/h (0 Bft) SW 236 0 min 0,000 mm 0,0 UV-I 0 W/m 9,9 C 1,6 km/h (1 Bft)
02.08.2016 01:28 11,3 C 11,3 C 91 % 1019,0 hPa 0,0 mm 0,7 km/h (0 Bft) SW 236 0 min 0,000 mm 0,0 UV-I 0 W/m 9,9 C 1,6 km/h (1 Bft)
02.08.2016 01:29 11,2 C 11,3 C 92 % 1019,0 hPa 0,0 mm 1,0 km/h (0 Bft) SW 236 0 min 0,000 mm 0,0 UV-I 0 W/m 9,9 C 1,6 km/h (1 Bft)
02.08.2016 01:30 11,3 C 11,3 C 92 % 1019,0 hPa 0,0 mm 0,0 km/h (0 Bft) SW 236 0 min 0,000 mm 0,0 UV-I 0 W/m 10,0 C 0,0 km/h (0 Bft)
02.08.2016 01:31 11,2 C 11,3 C 92 % 1018,9 hPa 0,0 mm 0,0 km/h (0 Bft) SW 236 0 min 0,000 mm 0,0 UV-I 0 W/m 9,9 C 0,0 km/h (0 Bft)
02.08.2016 01:32 11,3 C 11,3 C 92 % 1019,0 hPa 0,0 mm 0,5 km/h (0 Bft) SW 236 0 min 0,000 mm 0,0 UV-I 0 W/m 10,0 C 1,6 km/h (1 Bft)
02.08.2016 01:33 11,2 C 11,3 C 92 % 1019,0 hPa 0,0 mm 0,6 km/h (0 Bft) SW 236 0 min 0,000 mm 0,0 UV-I 0 W/m 9,9 C 1,6 km/h (1 Bft)
02.08.2016 01:34 11,3 C 11,3 C 92 % 1019,0 hPa 0,0 mm 0,9 km/h (0 Bft) SW 236 0 min 0,000 mm 0,0 UV-I 0 W/m 10,0 C 1,6 km/h (1 Bft)
02.08.2016 01:35 11,2 C 11,3 C 92 % 1018,9 hPa 0,0 mm 0,3 km/h (0 Bft) SW 236 0 min 0,000 mm 0,0 UV-I 0 W/m 9,9 C 1,6 km/h (1 Bft)
02.08.2016 01:36 11,2 C 11,2 C 92 % 1018,9 hPa 0,0 mm 0,2 km/h (0 Bft) SW 236 0 min 0,000 mm 0,0 UV-I 0 W/m 9,9 C 1,6 km/h (1 Bft)
02.08.2016 01:37 11,2 C 11,2 C 92 % 1018,9 hPa 0,0 mm 0,1 km/h (0 Bft) SW 236 0 min 0,000 mm 0,0 UV-I 0 W/m 9,9 C 1,6 km/h (1 Bft)
02.08.2016 01:38 11,2 C 11,2 C 92 % 1018,9 hPa 0,0 mm 0,1 km/h (0 Bft) SW 236 0 min 0,000 mm 0,0 UV-I 0 W/m 9,9 C 1,6 km/h (1 Bft)
02.08.2016 01:39 11,2 C 11,2 C 92 % 1018,9 hPa 0,0 mm 0,0 km/h (0 Bft) SW 236 0 min 0,000 mm 0,0 UV-I 0 W/m 9,9 C 0,0 km/h (0 Bft)
02.08.2016 01:40 11,1 C 11,2 C 92 % 1018,9 hPa 0,0 mm 0,0 km/h (0 Bft) SW 236 0 min 0,000 mm 0,0 UV-I 0 W/m 9,8 C 0,0 km/h (0 Bft)
02.08.2016 01:41 11,0 C 11,1 C 92 % 1018,9 hPa 0,0 mm 0,0 km/h (0 Bft) SW 236 0 min 0,000 mm 0,0 UV-I 0 W/m 9,8 C 0,0 km/h (0 Bft)
02.08.2016 01:42 11,0 C 11,0 C 92 % 1018,9 hPa 0,0 mm 0,0 km/h (0 Bft) SW 236 0 min 0,000 mm 0,0 UV-I 0 W/m 9,8 C 0,0 km/h (0 Bft)
02.08.2016 01:43 11,0 C 11,0 C 92 % 1018,9 hPa 0,0 mm 0,3 km/h (0 Bft) SW 236 0 min 0,000 mm 0,0 UV-I 0 W/m 9,8 C 1,6 km/h (1 Bft)
02.08.2016 01:44 11,0 C 11,0 C 92 % 1018,8 hPa 0,0 mm 0,0 km/h (0 Bft) SW 236 0 min 0,000 mm 0,0 UV-I 0 W/m 9,8 C 0,0 km/h (0 Bft)
02.08.2016 01:45 11,0 C 11,0 C 92 % 1018,8 hPa 0,0 mm 0,0 km/h (0 Bft) SW 236 0 min 0,000 mm 0,0 UV-I 0 W/m 9,8 C 0,0 km/h (0 Bft)
02.08.2016 01:46 10,9 C 11,0 C 92 % 1018,8 hPa 0,0 mm 0,1 km/h (0 Bft) SW 236 0 min 0,000 mm 0,0 UV-I 0 W/m 9,7 C 1,6 km/h (1 Bft)
02.08.2016 01:47 10,9 C 10,9 C 92 % 1018,7 hPa 0,0 mm 0,6 km/h (0 Bft) W-NW 302 0 min 0,000 mm 0,0 UV-I 0 W/m 9,7 C 4,8 km/h (1 Bft)
02.08.2016 01:48 10,8 C 10,9 C 93 % 1018,7 hPa 0,0 mm 1,1 km/h (1 Bft) W-NW 302 0 min 0,000 mm 0,0 UV-I 0 W/m 9,7 C 3,2 km/h (1 Bft)
02.08.2016 01:49 10,9 C 10,9 C 93 % 1018,8 hPa 0,0 mm 0,1 km/h (0 Bft) W-NW 302 0 min 0,000 mm 0,0 UV-I 0 W/m 9,8 C 1,6 km/h (1 Bft)
02.08.2016 01:50 10,8 C 10,9 C 93 % 1018,7 hPa 0,0 mm 0,4 km/h (0 Bft) W-NW 302 0 min 0,000 mm 0,0 UV-I 0 W/m 9,7 C 1,6 km/h (1 Bft)
02.08.2016 01:51 10,8 C 10,8 C 93 % 1018,7 hPa 0,0 mm 0,1 km/h (0 Bft) W-NW 302 0 min 0,000 mm 0,0 UV-I 0 W/m 9,7 C 1,6 km/h (1 Bft)
02.08.2016 01:52 10,8 C 10,8 C 93 % 1018,7 hPa 0,0 mm 0,0 km/h (0 Bft) W-NW 302 0 min 0,000 mm 0,0 UV-I 0 W/m 9,7 C 0,0 km/h (0 Bft)
02.08.2016 01:53 10,8 C 10,8 C 93 % 1018,7 hPa 0,0 mm 0,7 km/h (0 Bft) W-NW 302 0 min 0,000 mm 0,0 UV-I 0 W/m 9,7 C 1,6 km/h (1 Bft)
02.08.2016 01:54 10,8 C 10,8 C 93 % 1018,7 hPa 0,0 mm 0,1 km/h (0 Bft) W-NW 302 0 min 0,000 mm 0,0 UV-I 0 W/m 9,7 C 1,6 km/h (1 Bft)
02.08.2016 01:55 10,8 C 10,8 C 93 % 1018,7 hPa 0,0 mm 0,3 km/h (0 Bft) W-NW 302 0 min 0,000 mm 0,0 UV-I 0 W/m 9,7 C 1,6 km/h (1 Bft)
02.08.2016 01:56 10,8 C 10,8 C 93 % 1018,7 hPa 0,0 mm 0,3 km/h (0 Bft) W-NW 302 0 min 0,000 mm 0,0 UV-I 0 W/m 9,7 C 1,6 km/h (1 Bft)
02.08.2016 01:57 10,8 C 10,8 C 93 % 1018,7 hPa 0,0 mm 0,0 km/h (0 Bft) W-NW 302 0 min 0,000 mm 0,0 UV-I 0 W/m 9,7 C 0,0 km/h (0 Bft)
02.08.2016 01:58 10,9 C 10,9 C 93 % 1018,7 hPa 0,0 mm 0,0 km/h (0 Bft) W-NW 302 0 min 0,000 mm 0,0 UV-I 0 W/m 9,8 C 0,0 km/h (0 Bft)
02.08.2016 01:59 10,9 C 10,9 C 93 % 1018,7 hPa 0,0 mm 0,1 km/h (0 Bft) W-NW 302 0 min 0,000 mm 0,0 UV-I 0 W/m 9,8 C 1,6 km/h (1 Bft)
02.08.2016 02:00 10,9 C 10,9 C 93 % 1018,7 hPa 0,0 mm 0,0 km/h (0 Bft) W-NW 302 0 min 0,000 mm 0,0 UV-I 0 W/m 9,8 C 0,0 km/h (0 Bft)
02.08.2016 02:01 10,9 C 10,9 C 93 % 1018,7 hPa 0,0 mm 0,0 km/h (0 Bft) W-NW 302 0 min 0,000 mm 0,0 UV-I 0 W/m 9,8 C 0,0 km/h (0 Bft)
02.08.2016 02:02 10,9 C 10,9 C 93 % 1018,7 hPa 0,0 mm 0,0 km/h (0 Bft) W-NW 302 0 min 0,000 mm 0,0 UV-I 0 W/m 9,8 C 0,0 km/h (0 Bft)
02.08.2016 02:03 10,9 C 10,9 C 93 % 1018,7 hPa 0,0 mm 0,0 km/h (0 Bft) W-NW 302 0 min 0,000 mm 0,0 UV-I 0 W/m 9,8 C 0,0 km/h (0 Bft)
02.08.2016 02:04 10,9 C 10,9 C 93 % 1018,7 hPa 0,0 mm 0,0 km/h (0 Bft) W-NW 302 0 min 0,000 mm 0,0 UV-I 0 W/m 9,8 C 0,0 km/h (0 Bft)
02.08.2016 02:05 10,9 C 10,9 C 93 % 1018,7 hPa 0,0 mm 0,0 km/h (0 Bft) W-NW 302 0 min 0,000 mm 0,0 UV-I 0 W/m 9,8 C 0,0 km/h (0 Bft)
02.08.2016 02:06 10,9 C 10,9 C 93 % 1018,7 hPa 0,0 mm 0,0 km/h (0 Bft) W-NW 302 0 min 0,000 mm 0,0 UV-I 0 W/m 9,8 C 0,0 km/h (0 Bft)
02.08.2016 02:07 10,9 C 10,9 C 93 % 1018,6 hPa 0,0 mm 0,0 km/h (0 Bft) W-NW 302 0 min 0,000 mm 0,0 UV-I 0 W/m 9,8 C 0,0 km/h (0 Bft)
02.08.2016 02:08 10,9 C 10,9 C 93 % 1018,6 hPa 0,0 mm 0,0 km/h (0 Bft) W-NW 302 0 min 0,000 mm 0,0 UV-I 0 W/m 9,8 C 0,0 km/h (0 Bft)
02.08.2016 02:09 10,9 C 10,9 C 93 % 1018,6 hPa 0,0 mm 0,0 km/h (0 Bft) W-NW 302 0 min 0,000 mm 0,0 UV-I 0 W/m 9,8 C 0,0 km/h (0 Bft)
02.08.2016 02:10 10,9 C 10,9 C 93 % 1018,6 hPa 0,0 mm 0,5 km/h (0 Bft) W-NW 302 0 min 0,000 mm 0,0 UV-I 0 W/m 9,8 C 1,6 km/h (1 Bft)
02.08.2016 02:11 10,9 C 10,9 C 93 % 1018,6 hPa 0,0 mm 0,1 km/h (0 Bft) W-NW 302 0 min 0,000 mm 0,0 UV-I 0 W/m 9,8 C 1,6 km/h (1 Bft)
02.08.2016 02:12 10,9 C 10,9 C 93 % 1018,6 hPa 0,0 mm 1,1 km/h (1 Bft) W-NW 302 0 min 0,000 mm 0,0 UV-I 0 W/m 9,8 C 1,6 km/h (1 Bft)
02.08.2016 02:13 10,9 C 10,9 C 93 % 1018,6 hPa 0,0 mm 1,8 km/h (1 Bft) W-NW 302 0 min 0,000 mm 0,0 UV-I 0 W/m 9,8 C 3,2 km/h (1 Bft)
02.08.2016 02:14 10,9 C 10,9 C 93 % 1018,6 hPa 0,0 mm 0,3 km/h (0 Bft) W-NW 302 0 min 0,000 mm 0,0 UV-I 0 W/m 9,8 C 1,6 km/h (1 Bft)
02.08.2016 02:15 10,9 C 10,9 C 92 % 1018,6 hPa 0,0 mm 0,5 km/h (0 Bft) W-NW 302 0 min 0,000 mm 0,0 UV-I 0 W/m 9,7 C 1,6 km/h (1 Bft)
02.08.2016 02:16 10,9 C 10,9 C 92 % 1018,6 hPa 0,0 mm 1,3 km/h (1 Bft) W-NW 302 0 min 0,000 mm 0,0 UV-I 0 W/m 9,7 C 3,2 km/h (1 Bft)
02.08.2016 02:17 11,0 C 11,0 C 92 % 1018,6 hPa 0,0 mm 0,6 km/h (0 Bft) W-NW 302 0 min 0,000 mm 0,0 UV-I 0 W/m 9,8 C 1,6 km/h (1 Bft)
02.08.2016 02:18 10,9 C 11,0 C 92 % 1018,5 hPa 0,0 mm 0,9 km/h (0 Bft) W-NW 302 0 min 0,000 mm 0,0 UV-I 0 W/m 9,7 C 1,6 km/h (1 Bft)
02.08.2016 02:19 11,0 C 11,0 C 92 % 1018,6 hPa 0,0 mm 0,7 km/h (0 Bft) W-NW 302 0 min 0,000 mm 0,0 UV-I 0 W/m 9,8 C 1,6 km/h (1 Bft)
02.08.2016 02:20 11,0 C 11,0 C 92 % 1018,6 hPa 0,0 mm 1,2 km/h (1 Bft) W-NW 302 0 min 0,000 mm 0,0 UV-I 0 W/m 9,8 C 1,6 km/h (1 Bft)
02.08.2016 02:21 11,0 C 11,0 C 92 % 1018,6 hPa 0,0 mm 0,1 km/h (0 Bft) W-NW 302 0 min 0,000 mm 0,0 UV-I 0 W/m 9,8 C 1,6 km/h (1 Bft)
02.08.2016 02:22 11,1 C 11,1 C 92 % 1018,6 hPa 0,0 mm 0,0 km/h (0 Bft) W-NW 302 0 min 0,000 mm 0,0 UV-I 0 W/m 9,8 C 0,0 km/h (0 Bft)
02.08.2016 02:23 11,1 C 11,1 C 92 % 1018,6 hPa 0,0 mm 1,1 km/h (1 Bft) W-NW 302 0 min 0,000 mm 0,0 UV-I 0 W/m 9,8 C 3,2 km/h (1 Bft)
02.08.2016 02:24 11,1 C 11,1 C 92 % 1018,6 hPa 0,0 mm 0,5 km/h (0 Bft) W-NW 302 0 min 0,000 mm 0,0 UV-I 0 W/m 9,8 C 1,6 km/h (1 Bft)
02.08.2016 02:25 11,1 C 11,1 C 92 % 1018,6 hPa 0,0 mm 0,1 km/h (0 Bft) W-NW 302 0 min 0,000 mm 0,0 UV-I 0 W/m 9,8 C 1,6 km/h (1 Bft)
02.08.2016 02:26 11,1 C 11,1 C 92 % 1018,6 hPa 0,0 mm 0,0 km/h (0 Bft) W-NW 302 0 min 0,000 mm 0,0 UV-I 0 W/m 9,8 C 0,0 km/h (0 Bft)
02.08.2016 02:27 11,1 C 11,1 C 92 % 1018,5 hPa 0,0 mm 0,3 km/h (0 Bft) W-NW 302 0 min 0,000 mm 0,0 UV-I 0 W/m 9,8 C 1,6 km/h (1 Bft)
02.08.2016 02:28 11,1 C 11,1 C 92 % 1018,5 hPa 0,0 mm 0,6 km/h (0 Bft) W-NW 302 0 min 0,000 mm 0,0 UV-I 0 W/m 9,8 C 1,6 km/h (1 Bft)
02.08.2016 02:29 11,1 C 11,1 C 92 % 1018,6 hPa 0,0 mm 0,1 km/h (0 Bft) W-NW 302 0 min 0,000 mm 0,0 UV-I 0 W/m 9,8 C 1,6 km/h (1 Bft)
02.08.2016 02:30 11,1 C 11,1 C 92 % 1018,6 hPa 0,0 mm 0,1 km/h (0 Bft) W-NW 302 0 min 0,000 mm 0,0 UV-I 0 W/m 9,8 C 1,6 km/h (1 Bft)
02.08.2016 02:31 11,0 C 11,1 C 91 % 1018,6 hPa 0,0 mm 0,7 km/h (0 Bft) W-NW 302 0 min 0,000 mm 0,0 UV-I 0 W/m 9,6 C 1,6 km/h (1 Bft)
02.08.2016 02:32 11,0 C 11,0 C 92 % 1018,5 hPa 0,0 mm 0,2 km/h (0 Bft) W-NW 302 0 min 0,000 mm 0,0 UV-I 0 W/m 9,8 C 1,6 km/h (1 Bft)
02.08.2016 02:33 11,0 C 11,0 C 93 % 1018,6 hPa 0,0 mm 0,3 km/h (0 Bft) W-NW 302 0 min 0,000 mm 0,0 UV-I 0 W/m 9,9 C 1,6 km/h (1 Bft)
02.08.2016 02:34 11,0 C 11,1 C 92 % 1018,6 hPa 0,0 mm 0,1 km/h (0 Bft) W-NW 302 0 min 0,000 mm 0,0 UV-I 0 W/m 9,8 C 1,6 km/h (1 Bft)
02.08.2016 02:35 11,0 C 11,0 C 93 % 1018,6 hPa 0,0 mm 1,4 km/h (1 Bft) W-NW 302 0 min 0,000 mm 0,0 UV-I 0 W/m 9,9 C 3,2 km/h (1 Bft)
02.08.2016 02:36 11,0 C 11,0 C 93 % 1018,6 hPa 0,0 mm 1,1 km/h (1 Bft) W-NW 302 0 min 0,000 mm 0,0 UV-I 0 W/m 9,9 C 3,2 km/h (1 Bft)
02.08.2016 02:37 10,9 C 11,0 C 92 % 1018,7 hPa 0,0 mm 0,7 km/h (0 Bft) W-NW 302 0 min 0,000 mm 0,0 UV-I 0 W/m 9,7 C 1,6 km/h (1 Bft)
02.08.2016 02:38 10,9 C 11,0 C 93 % 1018,7 hPa 0,0 mm 0,0 km/h (0 Bft) W-NW 302 0 min 0,000 mm 0,0 UV-I 0 W/m 9,8 C 0,0 km/h (0 Bft)
02.08.2016 02:39 10,9 C 10,9 C 92 % 1018,7 hPa 0,0 mm 0,0 km/h (0 Bft) W-NW 302 0 min 0,000 mm 0,0 UV-I 0 W/m 9,7 C 0,0 km/h (0 Bft)
02.08.2016 02:40 10,9 C 10,9 C 92 % 1018,7 hPa 0,0 mm 0,0 km/h (0 Bft) W-NW 302 0 min 0,000 mm 0,0 UV-I 0 W/m 9,7 C 0,0 km/h (0 Bft)
02.08.2016 02:41 10,9 C 10,9 C 92 % 1018,6 hPa 0,0 mm 0,0 km/h (0 Bft) W-NW 302 0 min 0,000 mm 0,0 UV-I 0 W/m 9,7 C 0,0 km/h (0 Bft)
02.08.2016 02:42 10,9 C 10,9 C 93 % 1018,7 hPa 0,0 mm 0,0 km/h (0 Bft) W-NW 302 0 min 0,000 mm 0,0 UV-I 0 W/m 9,8 C 0,0 km/h (0 Bft)
02.08.2016 02:43 10,9 C 10,9 C 92 % 1018,7 hPa 0,0 mm 0,0 km/h (0 Bft) W-NW 302 0 min 0,000 mm 0,0 UV-I 0 W/m 9,7 C 0,0 km/h (0 Bft)
02.08.2016 02:44 10,9 C 10,9 C 93 % 1018,7 hPa 0,0 mm 0,0 km/h (0 Bft) W-NW 302 0 min 0,000 mm 0,0 UV-I 0 W/m 9,8 C 0,0 km/h (0 Bft)
02.08.2016 02:45 10,9 C 10,9 C 92 % 1018,7 hPa 0,0 mm 0,0 km/h (0 Bft) W-NW 302 0 min 0,000 mm 0,0 UV-I 0 W/m 9,7 C 0,0 km/h (0 Bft)
02.08.2016 02:46 10,9 C 10,9 C 92 % 1018,7 hPa 0,0 mm 0,0 km/h (0 Bft) W-NW 302 0 min 0,000 mm 0,0 UV-I 0 W/m 9,7 C 0,0 km/h (0 Bft)
02.08.2016 02:47 10,8 C 10,9 C 92 % 1018,7 hPa 0,0 mm 0,0 km/h (0 Bft) W-NW 302 0 min 0,000 mm 0,0 UV-I 0 W/m 9,6 C 0,0 km/h (0 Bft)
02.08.2016 02:48 10,8 C 10,8 C 92 % 1018,7 hPa 0,0 mm 0,0 km/h (0 Bft) W-NW 302 0 min 0,000 mm 0,0 UV-I 0 W/m 9,6 C 0,0 km/h (0 Bft)
02.08.2016 02:49 10,8 C 10,8 C 93 % 1018,7 hPa 0,0 mm 0,0 km/h (0 Bft) W-NW 302 0 min 0,000 mm 0,0 UV-I 0 W/m 9,7 C 0,0 km/h (0 Bft)
02.08.2016 02:50 10,7 C 10,8 C 93 % 1018,7 hPa 0,0 mm 0,0 km/h (0 Bft) W-NW 302 0 min 0,000 mm 0,0 UV-I 0 W/m 9,6 C 0,0 km/h (0 Bft)
02.08.2016 02:51 10,7 C 10,7 C 93 % 1018,7 hPa 0,0 mm 0,0 km/h (0 Bft) W-NW 302 0 min 0,000 mm 0,0 UV-I 0 W/m 9,6 C 0,0 km/h (0 Bft)
02.08.2016 02:52 10,6 C 10,7 C 93 % 1018,7 hPa 0,0 mm 0,0 km/h (0 Bft) W-NW 302 0 min 0,000 mm 0,0 UV-I 0 W/m 9,5 C 0,0 km/h (0 Bft)
02.08.2016 02:53 10,6 C 10,7 C 92 % 1018,7 hPa 0,0 mm 0,0 km/h (0 Bft) W-NW 302 0 min 0,000 mm 0,0 UV-I 0 W/m 9,4 C 0,0 km/h (0 Bft)
02.08.2016 02:54 10,5 C 10,6 C 92 % 1018,7 hPa 0,0 mm 0,0 km/h (0 Bft) W-NW 302 0 min 0,000 mm 0,0 UV-I 0 W/m 9,3 C 0,0 km/h (0 Bft)
02.08.2016 02:55 10,4 C 10,5 C 92 % 1018,7 hPa 0,0 mm 0,0 km/h (0 Bft) W-NW 302 0 min 0,000 mm 0,0 UV-I 0 W/m 9,2 C 0,0 km/h (0 Bft)
02.08.2016 02:56 10,3 C 10,4 C 92 % 1018,7 hPa 0,0 mm 0,0 km/h (0 Bft) W-NW 302 0 min 0,000 mm 0,0 UV-I 0 W/m 9,1 C 0,0 km/h (0 Bft)
02.08.2016 02:57 10,3 C 10,3 C 92 % 1018,7 hPa 0,0 mm 0,1 km/h (0 Bft) W-NW 302 0 min 0,000 mm 0,0 UV-I 0 W/m 9,1 C 1,6 km/h (1 Bft)
02.08.2016 02:58 10,2 C 10,3 C 93 % 1018,7 hPa 0,0 mm 3,0 km/h (1 Bft) NW 314 0 min 0,000 mm 0,0 UV-I 0 W/m 9,1 C 4,8 km/h (1 Bft)
02.08.2016 02:59 10,2 C 10,2 C 93 % 1018,6 hPa 0,0 mm 1,7 km/h (1 Bft) NW 314 0 min 0,000 mm 0,0 UV-I 0 W/m 9,1 C 3,2 km/h (1 Bft)
02.08.2016 03:00 10,2 C 10,2 C 93 % 1018,7 hPa 0,0 mm 0,4 km/h (0 Bft) NW 314 0 min 0,000 mm 0,0 UV-I 0 W/m 9,1 C 1,6 km/h (1 Bft)
02.08.2016 03:01 10,1 C 10,2 C 93 % 1018,7 hPa 0,0 mm 0,3 km/h (0 Bft) NW 314 0 min 0,000 mm 0,0 UV-I 0 W/m 9,0 C 1,6 km/h (1 Bft)
02.08.2016 03:02 10,1 C 10,2 C 94 % 1018,6 hPa 0,0 mm 1,4 km/h (1 Bft) NW 314 0 min 0,000 mm 0,0 UV-I 0 W/m 9,2 C 3,2 km/h (1 Bft)
02.08.2016 03:03 10,1 C 10,1 C 93 % 1018,6 hPa 0,0 mm 0,2 km/h (0 Bft) NW 314 0 min 0,000 mm 0,0 UV-I 0 W/m 9,0 C 1,6 km/h (1 Bft)
02.08.2016 03:04 10,1 C 10,1 C 94 % 1018,7 hPa 0,0 mm 0,2 km/h (0 Bft) NW 314 0 min 0,000 mm 0,0 UV-I 0 W/m 9,2 C 1,6 km/h (1 Bft)
02.08.2016 03:05 10,1 C 10,1 C 94 % 1018,7 hPa 0,0 mm 0,8 km/h (0 Bft) NW 314 0 min 0,000 mm 0,0 UV-I 0 W/m 9,2 C 1,6 km/h (1 Bft)
02.08.2016 03:06 10,1 C 10,1 C 94 % 1018,7 hPa 0,0 mm 1,4 km/h (1 Bft) NW 314 0 min 0,000 mm 0,0 UV-I 0 W/m 9,2 C 3,2 km/h (1 Bft)
02.08.2016 03:07 10,1 C 10,1 C 94 % 1018,7 hPa 0,0 mm 0,7 km/h (0 Bft) NW 314 0 min 0,000 mm 0,0 UV-I 0 W/m 9,2 C 1,6 km/h (1 Bft)
02.08.2016 03:08 10,1 C 10,1 C 94 % 1018,7 hPa 0,0 mm 1,7 km/h (1 Bft) NW 314 0 min 0,000 mm 0,0 UV-I 0 W/m 9,2 C 3,2 km/h (1 Bft)
02.08.2016 03:09 10,2 C 10,2 C 94 % 1018,7 hPa 0,0 mm 0,9 km/h (0 Bft) NW 314 0 min 0,000 mm 0,0 UV-I 0 W/m 9,3 C 1,6 km/h (1 Bft)
02.08.2016 03:10 10,2 C 10,2 C 94 % 1018,7 hPa 0,0 mm 1,3 km/h (1 Bft) NW 314 0 min 0,000 mm 0,0 UV-I 0 W/m 9,3 C 3,2 km/h (1 Bft)
02.08.2016 03:11 10,2 C 10,3 C 94 % 1018,7 hPa 0,0 mm 1,7 km/h (1 Bft) W-NW 295 0 min 0,000 mm 0,0 UV-I 0 W/m 9,3 C 4,8 km/h (1 Bft)
02.08.2016 03:12 10,3 C 10,3 C 94 % 1018,7 hPa 0,0 mm 0,8 km/h (0 Bft) W-NW 295 0 min 0,000 mm 0,0 UV-I 0 W/m 9,4 C 1,6 km/h (1 Bft)
02.08.2016 03:13 10,3 C 10,3 C 94 % 1018,6 hPa 0,0 mm 0,6 km/h (0 Bft) W-NW 295 0 min 0,000 mm 0,0 UV-I 0 W/m 9,4 C 1,6 km/h (1 Bft)
02.08.2016 03:14 10,3 C 10,3 C 94 % 1018,6 hPa 0,0 mm 0,0 km/h (0 Bft) W-NW 295 0 min 0,000 mm 0,0 UV-I 0 W/m 9,4 C 0,0 km/h (0 Bft)
02.08.2016 03:15 10,4 C 10,4 C 94 % 1018,6 hPa 0,0 mm 0,0 km/h (0 Bft) W-NW 295 0 min 0,000 mm 0,0 UV-I 0 W/m 9,5 C 0,0 km/h (0 Bft)
02.08.2016 03:16 10,4 C 10,4 C 94 % 1018,6 hPa 0,0 mm 0,0 km/h (0 Bft) W-NW 295 0 min 0,000 mm 0,0 UV-I 0 W/m 9,5 C 0,0 km/h (0 Bft)
02.08.2016 03:17 10,5 C 10,5 C 94 % 1018,6 hPa 0,0 mm 0,0 km/h (0 Bft) W-NW 296 0 min 0,000 mm 0,0 UV-I 0 W/m 9,6 C 0,0 km/h (0 Bft)
02.08.2016 03:18 10,5 C 10,5 C 93 % 1018,5 hPa 0,0 mm 0,0 km/h (0 Bft) W-NW 295 0 min 0,000 mm 0,0 UV-I 0 W/m 9,4 C 0,0 km/h (0 Bft)
02.08.2016 03:19 10,6 C 10,6 C 93 % 1018,5 hPa 0,0 mm 0,0 km/h (0 Bft) W-NW 295 0 min 0,000 mm 0,0 UV-I 0 W/m 9,5 C 0,0 km/h (0 Bft)
02.08.2016 03:20 10,6 C 10,6 C 93 % 1018,6 hPa 0,0 mm 0,0 km/h (0 Bft) W-NW 295 0 min 0,000 mm 0,0 UV-I 0 W/m 9,5 C 0,0 km/h (0 Bft)
02.08.2016 03:21 10,6 C 10,6 C 93 % 1018,6 hPa 0,0 mm 0,0 km/h (0 Bft) W-NW 295 0 min 0,000 mm 0,0 UV-I 0 W/m 9,5 C 0,0 km/h (0 Bft)
02.08.2016 03:22 10,6 C 10,6 C 93 % 1018,5 hPa 0,0 mm 0,5 km/h (0 Bft) W-NW 296 0 min 0,000 mm 0,0 UV-I 0 W/m 9,5 C 3,2 km/h (1 Bft)
02.08.2016 03:23 10,7 C 10,7 C 93 % 1018,5 hPa 0,0 mm 0,7 km/h (0 Bft) W-NW 296 0 min 0,000 mm 0,0 UV-I 0 W/m 9,6 C 3,2 km/h (1 Bft)
02.08.2016 03:24 10,7 C 10,7 C 92 % 1018,5 hPa 0,0 mm 0,1 km/h (0 Bft) W-NW 296 0 min 0,000 mm 0,0 UV-I 0 W/m 9,5 C 1,6 km/h (1 Bft)
02.08.2016 03:25 10,7 C 10,7 C 92 % 1018,6 hPa 0,0 mm 0,0 km/h (0 Bft) W-NW 296 0 min 0,000 mm 0,0 UV-I 0 W/m 9,5 C 0,0 km/h (0 Bft)
02.08.2016 03:26 10,7 C 10,7 C 93 % 1018,5 hPa 0,0 mm 0,3 km/h (0 Bft) W-NW 296 0 min 0,000 mm 0,0 UV-I 0 W/m 9,6 C 1,6 km/h (1 Bft)
02.08.2016 03:27 10,7 C 10,7 C 93 % 1018,5 hPa 0,0 mm 0,1 km/h (0 Bft) W-NW 296 0 min 0,000 mm 0,0 UV-I 0 W/m 9,6 C 1,6 km/h (1 Bft)
02.08.2016 03:28 10,7 C 10,7 C 93 % 1018,4 hPa 0,0 mm 0,0 km/h (0 Bft) W-NW 296 0 min 0,000 mm 0,0 UV-I 0 W/m 9,6 C 0,0 km/h (0 Bft)
02.08.2016 03:29 10,7 C 10,7 C 93 % 1018,5 hPa 0,0 mm 0,5 km/h (0 Bft) W-NW 296 0 min 0,000 mm 0,0 UV-I 0 W/m 9,6 C 1,6 km/h (1 Bft)
02.08.2016 03:30 10,7 C 10,7 C 93 % 1018,5 hPa 0,0 mm 0,7 km/h (0 Bft) W-NW 296 0 min 0,000 mm 0,0 UV-I 0 W/m 9,6 C 3,2 km/h (1 Bft)
02.08.2016 03:31 10,7 C 10,7 C 93 % 1018,5 hPa 0,0 mm 1,0 km/h (0 Bft) W-NW 296 0 min 0,000 mm 0,0 UV-I 0 W/m 9,6 C 3,2 km/h (1 Bft)
02.08.2016 03:32 10,7 C 10,7 C 92 % 1018,5 hPa 0,0 mm 1,1 km/h (1 Bft) W-NW 296 0 min 0,000 mm 0,0 UV-I 0 W/m 9,5 C 3,2 km/h (1 Bft)
02.08.2016 03:33 10,7 C 10,7 C 92 % 1018,5 hPa 0,0 mm 0,3 km/h (0 Bft) W-NW 296 0 min 0,000 mm 0,0 UV-I 0 W/m 9,5 C 1,6 km/h (1 Bft)
02.08.2016 03:34 10,7 C 10,7 C 92 % 1018,5 hPa 0,0 mm 1,0 km/h (0 Bft) W-NW 296 0 min 0,000 mm 0,0 UV-I 0 W/m 9,5 C 1,6 km/h (1 Bft)
02.08.2016 03:35 10,7 C 10,7 C 92 % 1018,5 hPa 0,0 mm 0,7 km/h (0 Bft) W-NW 296 0 min 0,000 mm 0,0 UV-I 0 W/m 9,5 C 1,6 km/h (1 Bft)
02.08.2016 03:36 10,7 C 10,7 C 92 % 1018,5 hPa 0,0 mm 1,5 km/h (1 Bft) W-NW 293 0 min 0,000 mm 0,0 UV-I 0 W/m 9,5 C 3,2 km/h (1 Bft)
02.08.2016 03:37 10,7 C 10,7 C 92 % 1018,4 hPa 0,0 mm 1,6 km/h (1 Bft) W-NW 292 0 min 0,000 mm 0,0 UV-I 0 W/m 9,5 C 1,6 km/h (1 Bft)
02.08.2016 03:38 10,7 C 10,7 C 92 % 1018,4 hPa 0,0 mm 0,9 km/h (0 Bft) O-NO 63 0 min 0,000 mm 0,0 UV-I 0 W/m 9,5 C 3,2 km/h (1 Bft)
02.08.2016 03:39 10,7 C 10,7 C 92 % 1018,4 hPa 0,0 mm 1,2 km/h (1 Bft) O 88 0 min 0,000 mm 0,0 UV-I 0 W/m 9,5 C 3,2 km/h (1 Bft)
02.08.2016 03:40 10,7 C 10,7 C 92 % 1018,5 hPa 0,0 mm 0,5 km/h (0 Bft) O 88 0 min 0,000 mm 0,0 UV-I 0 W/m 9,5 C 1,6 km/h (1 Bft)
02.08.2016 03:41 10,7 C 10,8 C 91 % 1018,5 hPa 0,0 mm 1,1 km/h (1 Bft) O 85 0 min 0,000 mm 0,0 UV-I 0 W/m 9,3 C 3,2 km/h (1 Bft)
02.08.2016 03:42 10,7 C 10,8 C 92 % 1018,4 hPa 0,0 mm 0,7 km/h (0 Bft) O 82 0 min 0,000 mm 0,0 UV-I 0 W/m 9,5 C 1,6 km/h (1 Bft)
02.08.2016 03:43 10,7 C 10,8 C 92 % 1018,4 hPa 0,0 mm 0,3 km/h (0 Bft) O 82 0 min 0,000 mm 0,0 UV-I 0 W/m 9,5 C 1,6 km/h (1 Bft)
02.08.2016 03:44 10,7 C 10,8 C 92 % 1018,4 hPa 0,0 mm 0,9 km/h (0 Bft) N-NW 347 0 min 0,000 mm 0,0 UV-I 0 W/m 9,5 C 3,2 km/h (1 Bft)
02.08.2016 03:45 10,8 C 10,8 C 92 % 1018,4 hPa 0,0 mm 0,7 km/h (0 Bft) N-NW 347 0 min 0,000 mm 0,0 UV-I 0 W/m 9,6 C 3,2 km/h (1 Bft)
02.08.2016 03:46 10,8 C 10,8 C 92 % 1018,4 hPa 0,0 mm 1,4 km/h (1 Bft) N-NW 347 0 min 0,000 mm 0,0 UV-I 0 W/m 9,6 C 3,2 km/h (1 Bft)
02.08.2016 03:47 10,8 C 10,8 C 92 % 1018,5 hPa 0,0 mm 1,0 km/h (0 Bft) N-NW 347 0 min 0,000 mm 0,0 UV-I 0 W/m 9,6 C 1,6 km/h (1 Bft)
02.08.2016 03:48 10,8 C 10,8 C 92 % 1018,4 hPa 0,0 mm 1,0 km/h (0 Bft) N-NW 347 0 min 0,000 mm 0,0 UV-I 0 W/m 9,6 C 1,6 km/h (1 Bft)
02.08.2016 03:49 10,8 C 10,8 C 92 % 1018,4 hPa 0,0 mm 1,2 km/h (1 Bft) N-NW 347 0 min 0,000 mm 0,0 UV-I 0 W/m 9,6 C 1,6 km/h (1 Bft)
02.08.2016 03:50 10,8 C 10,8 C 92 % 1018,4 hPa 0,0 mm 1,0 km/h (0 Bft) N-NW 348 0 min 0,000 mm 0,0 UV-I 0 W/m 9,6 C 1,6 km/h (1 Bft)
02.08.2016 03:51 10,8 C 10,8 C 91 % 1018,4 hPa 0,0 mm 2,3 km/h (1 Bft) N 355 0 min 0,000 mm 0,0 UV-I 0 W/m 9,4 C 4,8 km/h (1 Bft)
02.08.2016 03:52 10,7 C 10,8 C 91 % 1018,4 hPa 0,0 mm 1,3 km/h (1 Bft) N 355 0 min 0,000 mm 0,0 UV-I 0 W/m 9,3 C 1,6 km/h (1 Bft)
02.08.2016 03:53 10,7 C 10,8 C 92 % 1018,4 hPa 0,0 mm 1,5 km/h (1 Bft) W-NW 288 0 min 0,000 mm 0,0 UV-I 0 W/m 9,5 C 3,2 km/h (1 Bft)
02.08.2016 03:54 10,8 C 10,8 C 92 % 1018,4 hPa 0,0 mm 2,0 km/h (1 Bft) W-NW 283 0 min 0,000 mm 0,0 UV-I 0 W/m 9,6 C 3,2 km/h (1 Bft)
02.08.2016 03:55 10,8 C 10,8 C 91 % 1018,4 hPa 0,0 mm 1,7 km/h (1 Bft) W-NW 283 0 min 0,000 mm 0,0 UV-I 0 W/m 9,4 C 3,2 km/h (1 Bft)
02.08.2016 03:56 10,8 C 10,8 C 92 % 1018,4 hPa 0,0 mm 0,8 km/h (0 Bft) W-NW 283 0 min 0,000 mm 0,0 UV-I 0 W/m 9,6 C 1,6 km/h (1 Bft)
02.08.2016 03:57 10,8 C 10,8 C 92 % 1018,4 hPa 0,0 mm 1,3 km/h (1 Bft) W 280 0 min 0,000 mm 0,0 UV-I 0 W/m 9,6 C 3,2 km/h (1 Bft)
02.08.2016 03:58 10,8 C 10,8 C 92 % 1018,4 hPa 0,0 mm 2,1 km/h (1 Bft) W 280 0 min 0,000 mm 0,0 UV-I 0 W/m 9,6 C 3,2 km/h (1 Bft)
02.08.2016 03:59 10,8 C 10,8 C 92 % 1018,4 hPa 0,0 mm 0,5 km/h (0 Bft) W 280 0 min 0,000 mm 0,0 UV-I 0 W/m 9,6 C 1,6 km/h (1 Bft)
02.08.2016 04:00 10,8 C 10,8 C 92 % 1018,4 hPa 0,0 mm 1,3 km/h (1 Bft) W 280 0 min 0,000 mm 0,0 UV-I 0 W/m 9,6 C 3,2 km/h (1 Bft)
02.08.2016 04:02 10,8 C 10,8 C 92 % 1018,3 hPa 0,0 mm 0,2 km/h (0 Bft) W 280 0 min 0,000 mm 0,0 UV-I 0 W/m 9,6 C 1,6 km/h (1 Bft)
02.08.2016 04:03 10,9 C 10,9 C 92 % 1018,3 hPa 0,0 mm 1,4 km/h (1 Bft) W 280 0 min 0,000 mm 0,0 UV-I 0 W/m 9,7 C 1,6 km/h (1 Bft)
02.08.2016 04:04 10,9 C 10,9 C 92 % 1018,4 hPa 0,0 mm 0,1 km/h (0 Bft) W 280 0 min 0,000 mm 0,0 UV-I 0 W/m 9,7 C 1,6 km/h (1 Bft)
02.08.2016 04:05 10,8 C 10,9 C 92 % 1018,4 hPa 0,0 mm 0,6 km/h (0 Bft) W 280 0 min 0,000 mm 0,0 UV-I 0 W/m 9,6 C 1,6 km/h (1 Bft)
02.08.2016 04:06 10,8 C 10,9 C 92 % 1018,4 hPa 0,0 mm 0,4 km/h (0 Bft) W 280 0 min 0,000 mm 0,0 UV-I 0 W/m 9,6 C 1,6 km/h (1 Bft)
02.08.2016 04:07 10,9 C 10,9 C 92 % 1018,3 hPa 0,0 mm 1,9 km/h (1 Bft) W-NW 286 0 min 0,000 mm 0,0 UV-I 0 W/m 9,7 C 4,8 km/h (1 Bft)
02.08.2016 04:08 10,9 C 10,9 C 92 % 1018,3 hPa 0,0 mm 0,3 km/h (0 Bft) W-NW 286 0 min 0,000 mm 0,0 UV-I 0 W/m 9,7 C 1,6 km/h (1 Bft)
02.08.2016 04:09 10,9 C 10,9 C 92 % 1018,4 hPa 0,0 mm 1,1 km/h (1 Bft) W-NW 286 0 min 0,000 mm 0,0 UV-I 0 W/m 9,7 C 1,6 km/h (1 Bft)
02.08.2016 04:10 10,9 C 10,9 C 92 % 1018,4 hPa 0,0 mm 2,3 km/h (1 Bft) W-NW 286 0 min 0,000 mm 0,0 UV-I 0 W/m 9,7 C 3,2 km/h (1 Bft)
02.08.2016 04:11 11,0 C 11,0 C 92 % 1018,4 hPa 0,0 mm 0,9 km/h (0 Bft) W-NW 286 0 min 0,000 mm 0,0 UV-I 0 W/m 9,8 C 3,2 km/h (1 Bft)
02.08.2016 04:12 11,0 C 11,0 C 92 % 1018,4 hPa 0,0 mm 0,0 km/h (0 Bft) W-NW 286 0 min 0,000 mm 0,0 UV-I 0 W/m 9,8 C 0,0 km/h (0 Bft)
02.08.2016 04:13 11,0 C 11,0 C 92 % 1018,4 hPa 0,0 mm 1,1 km/h (1 Bft) NW 313 0 min 0,000 mm 0,0 UV-I 0 W/m 9,8 C 3,2 km/h (1 Bft)
02.08.2016 04:14 11,1 C 11,1 C 92 % 1018,3 hPa 0,0 mm 2,3 km/h (1 Bft) NW 313 0 min 0,000 mm 0,0 UV-I 0 W/m 9,8 C 3,2 km/h (1 Bft)
02.08.2016 04:15 11,1 C 11,1 C 92 % 1018,3 hPa 0,0 mm 0,4 km/h (0 Bft) NW 313 0 min 0,000 mm 0,0 UV-I 0 W/m 9,8 C 1,6 km/h (1 Bft)
02.08.2016 04:16 11,1 C 11,1 C 91 % 1018,2 hPa 0,0 mm 0,4 km/h (0 Bft) NW 313 0 min 0,000 mm 0,0 UV-I 0 W/m 9,7 C 1,6 km/h (1 Bft)
02.08.2016 04:17 11,1 C 11,1 C 92 % 1018,2 hPa 0,0 mm 0,7 km/h (0 Bft) NW 313 0 min 0,000 mm 0,0 UV-I 0 W/m 9,8 C 3,2 km/h (1 Bft)
02.08.2016 04:18 11,2 C 11,2 C 92 % 1018,3 hPa 0,0 mm 0,5 km/h (0 Bft) NW 313 0 min 0,000 mm 0,0 UV-I 0 W/m 9,9 C 1,6 km/h (1 Bft)
02.08.2016 04:19 11,2 C 11,2 C 92 % 1018,3 hPa 0,0 mm 0,4 km/h (0 Bft) NW 313 0 min 0,000 mm 0,0 UV-I 0 W/m 9,9 C 1,6 km/h (1 Bft)
02.08.2016 04:20 11,2 C 11,2 C 91 % 1018,2 hPa 0,0 mm 0,0 km/h (0 Bft) NW 313 0 min 0,000 mm 0,0 UV-I 0 W/m 9,8 C 0,0 km/h (0 Bft)
02.08.2016 04:21 11,2 C 11,2 C 92 % 1018,3 hPa 0,0 mm 0,0 km/h (0 Bft) NW 313 0 min 0,000 mm 0,0 UV-I 0 W/m 9,9 C 0,0 km/h (0 Bft)
02.08.2016 04:22 11,2 C 11,2 C 91 % 1018,3 hPa 0,0 mm 0,0 km/h (0 Bft) NW 313 0 min 0,000 mm 0,0 UV-I 0 W/m 9,8 C 0,0 km/h (0 Bft)
02.08.2016 04:23 11,2 C 11,2 C 91 % 1018,3 hPa 0,0 mm 0,0 km/h (0 Bft) NW 313 0 min 0,000 mm 0,0 UV-I 0 W/m 9,8 C 0,0 km/h (0 Bft)
02.08.2016 04:24 11,2 C 11,2 C 91 % 1018,2 hPa 0,0 mm 0,0 km/h (0 Bft) NW 313 0 min 0,000 mm 0,0 UV-I 0 W/m 9,8 C 0,0 km/h (0 Bft)
02.08.2016 04:25 11,2 C 11,2 C 91 % 1018,2 hPa 0,0 mm 0,0 km/h (0 Bft) NW 313 0 min 0,000 mm 0,0 UV-I 0 W/m 9,8 C 0,0 km/h (0 Bft)
02.08.2016 04:26 11,2 C 11,2 C 91 % 1018,2 hPa 0,0 mm 0,0 km/h (0 Bft) NW 313 0 min 0,000 mm 0,0 UV-I 0 W/m 9,8 C 0,0 km/h (0 Bft)
02.08.2016 04:27 11,2 C 11,2 C 91 % 1018,2 hPa 0,0 mm 0,0 km/h (0 Bft) NW 313 0 min 0,000 mm 0,0 UV-I 0 W/m 9,8 C 0,0 km/h (0 Bft)
02.08.2016 04:28 11,2 C 11,2 C 91 % 1018,1 hPa 0,0 mm 0,0 km/h (0 Bft) NW 313 0 min 0,000 mm 0,0 UV-I 0 W/m 9,8 C 0,0 km/h (0 Bft)
02.08.2016 04:29 11,2 C 11,2 C 91 % 1018,1 hPa 0,0 mm 0,0 km/h (0 Bft) NW 313 0 min 0,000 mm 0,0 UV-I 0 W/m 9,8 C 0,0 km/h (0 Bft)
02.08.2016 04:30 11,2 C 11,2 C 91 % 1018,1 hPa 0,0 mm 0,0 km/h (0 Bft) NW 313 0 min 0,000 mm 0,0 UV-I 0 W/m 9,8 C 0,0 km/h (0 Bft)
02.08.2016 04:31 11,2 C 11,2 C 91 % 1018,1 hPa 0,0 mm 0,0 km/h (0 Bft) NW 313 0 min 0,000 mm 0,0 UV-I 0 W/m 9,8 C 0,0 km/h (0 Bft)
02.08.2016 04:32 11,2 C 11,2 C 91 % 1018,1 hPa 0,0 mm 0,0 km/h (0 Bft) NW 313 0 min 0,000 mm 0,0 UV-I 0 W/m 9,8 C 0,0 km/h (0 Bft)
02.08.2016 04:33 11,2 C 11,2 C 91 % 1018,0 hPa 0,0 mm 0,0 km/h (0 Bft) NW 313 0 min 0,000 mm 0,0 UV-I 0 W/m 9,8 C 0,0 km/h (0 Bft)
02.08.2016 04:34 11,2 C 11,2 C 91 % 1018,1 hPa 0,0 mm 0,0 km/h (0 Bft) NW 313 0 min 0,000 mm 0,0 UV-I 0 W/m 9,8 C 0,0 km/h (0 Bft)
02.08.2016 04:35 11,2 C 11,2 C 91 % 1018,0 hPa 0,0 mm 0,0 km/h (0 Bft) NW 313 0 min 0,000 mm 0,0 UV-I 0 W/m 9,8 C 0,0 km/h (0 Bft)
02.08.2016 04:36 11,2 C 11,2 C 91 % 1018,2 hPa 0,0 mm 0,0 km/h (0 Bft) NW 313 0 min 0,000 mm 0,0 UV-I 0 W/m 9,8 C 0,0 km/h (0 Bft)
02.08.2016 04:37 11,2 C 11,2 C 91 % 1018,1 hPa 0,0 mm 0,0 km/h (0 Bft) NW 313 0 min 0,000 mm 0,0 UV-I 0 W/m 9,8 C 0,0 km/h (0 Bft)
02.08.2016 04:38 11,2 C 11,2 C 91 % 1018,1 hPa 0,0 mm 0,0 km/h (0 Bft) NW 313 0 min 0,000 mm 0,0 UV-I 0 W/m 9,8 C 0,0 km/h (0 Bft)
02.08.2016 04:39 11,2 C 11,2 C 91 % 1018,0 hPa 0,0 mm 0,0 km/h (0 Bft) NW 313 0 min 0,000 mm 0,0 UV-I 0 W/m 9,8 C 0,0 km/h (0 Bft)
02.08.2016 04:40 11,2 C 11,2 C 90 % 1018,1 hPa 0,0 mm 0,0 km/h (0 Bft) NW 313 0 min 0,000 mm 0,0 UV-I 0 W/m 9,6 C 0,0 km/h (0 Bft)
02.08.2016 04:41 11,3 C 11,3 C 90 % 1018,1 hPa 0,0 mm 0,0 km/h (0 Bft) NW 313 0 min 0,000 mm 0,0 UV-I 0 W/m 9,7 C 0,0 km/h (0 Bft)
02.08.2016 04:42 11,3 C 11,3 C 90 % 1018,1 hPa 0,0 mm 0,0 km/h (0 Bft) NW 313 0 min 0,000 mm 0,0 UV-I 0 W/m 9,7 C 0,0 km/h (0 Bft)
02.08.2016 04:43 11,3 C 11,3 C 90 % 1018,2 hPa 0,0 mm 0,0 km/h (0 Bft) NW 313 0 min 0,000 mm 0,0 UV-I 0 W/m 9,7 C 0,0 km/h (0 Bft)
02.08.2016 04:44 11,3 C 11,3 C 90 % 1018,1 hPa 0,0 mm 0,0 km/h (0 Bft) NW 313 0 min 0,000 mm 0,0 UV-I 0 W/m 9,7 C 0,0 km/h (0 Bft)
02.08.2016 04:45 11,3 C 11,3 C 90 % 1018,2 hPa 0,0 mm 0,0 km/h (0 Bft) NW 313 0 min 0,000 mm 0,0 UV-I 0 W/m 9,7 C 0,0 km/h (0 Bft)
02.08.2016 04:46 11,3 C 11,3 C 90 % 1018,1 hPa 0,0 mm 0,7 km/h (0 Bft) N 9 0 min 0,000 mm 0,0 UV-I 0 W/m 9,7 C 4,8 km/h (1 Bft)
02.08.2016 04:47 11,3 C 11,3 C 90 % 1018,1 hPa 0,0 mm 2,3 km/h (1 Bft) N-NW 348 0 min 0,000 mm 0,0 UV-I 0 W/m 9,7 C 3,2 km/h (1 Bft)
02.08.2016 04:48 11,3 C 11,3 C 90 % 1018,1 hPa 0,0 mm 1,1 km/h (1 Bft) N-NW 348 0 min 0,000 mm 0,0 UV-I 0 W/m 9,7 C 1,6 km/h (1 Bft)
02.08.2016 04:49 11,4 C 11,4 C 90 % 1018,1 hPa 0,0 mm 2,1 km/h (1 Bft) N-NW 348 0 min 0,000 mm 0,0 UV-I 0 W/m 9,8 C 3,2 km/h (1 Bft)
02.08.2016 04:50 11,4 C 11,4 C 91 % 1018,1 hPa 0,0 mm 1,1 km/h (1 Bft) N-NW 348 0 min 0,000 mm 0,0 UV-I 0 W/m 10,0 C 3,2 km/h (1 Bft)
02.08.2016 04:51 11,4 C 11,4 C 91 % 1018,1 hPa 0,0 mm 1,0 km/h (0 Bft) N-NW 348 0 min 0,000 mm 0,0 UV-I 0 W/m 10,0 C 1,6 km/h (1 Bft)
02.08.2016 04:52 11,4 C 11,4 C 90 % 1018,1 hPa 0,0 mm 0,2 km/h (0 Bft) N-NW 348 0 min 0,000 mm 0,0 UV-I 0 W/m 9,8 C 1,6 km/h (1 Bft)
02.08.2016 04:53 11,5 C 11,5 C 90 % 1018,2 hPa 0,0 mm 0,0 km/h (0 Bft) N-NW 348 0 min 0,000 mm 0,0 UV-I 0 W/m 9,9 C 0,0 km/h (0 Bft)
02.08.2016 04:54 11,5 C 11,5 C 90 % 1018,1 hPa 0,0 mm 0,3 km/h (0 Bft) N-NW 348 0 min 0,000 mm 0,0 UV-I 0 W/m 9,9 C 1,6 km/h (1 Bft)
02.08.2016 04:55 11,5 C 11,5 C 90 % 1018,2 hPa 0,0 mm 0,1 km/h (0 Bft) N-NW 348 0 min 0,000 mm 0,0 UV-I 0 W/m 9,9 C 1,6 km/h (1 Bft)
02.08.2016 04:56 11,5 C 11,5 C 90 % 1018,1 hPa 0,0 mm 0,3 km/h (0 Bft) N-NW 348 0 min 0,000 mm 0,0 UV-I 0 W/m 9,9 C 1,6 km/h (1 Bft)
02.08.2016 04:57 11,4 C 11,5 C 90 % 1018,1 hPa 0,0 mm 0,2 km/h (0 Bft) N-NW 348 0 min 0,000 mm 0,0 UV-I 0 W/m 9,8 C 1,6 km/h (1 Bft)
02.08.2016 04:58 11,5 C 11,5 C 90 % 1018,1 hPa 0,0 mm 0,2 km/h (0 Bft) N-NW 348 0 min 0,000 mm 0,0 UV-I 0 W/m 9,9 C 1,6 km/h (1 Bft)
02.08.2016 04:59 11,5 C 11,5 C 90 % 1018,2 hPa 0,0 mm 0,4 km/h (0 Bft) N-NW 348 0 min 0,000 mm 0,0 UV-I 0 W/m 9,9 C 1,6 km/h (1 Bft)
02.08.2016 05:00 11,4 C 11,5 C 89 % 1018,1 hPa 0,0 mm 0,0 km/h (0 Bft) N-NW 348 0 min 0,000 mm 0,0 UV-I 0 W/m 9,7 C 0,0 km/h (0 Bft)
02.08.2016 05:01 11,4 C 11,5 C 90 % 1018,1 hPa 0,0 mm 0,1 km/h (0 Bft) N-NW 348 0 min 0,000 mm 0,0 UV-I 0 W/m 9,8 C 1,6 km/h (1 Bft)
02.08.2016 05:02 11,4 C 11,4 C 90 % 1018,2 hPa 0,0 mm 0,6 km/h (0 Bft) N-NW 348 0 min 0,000 mm 0,0 UV-I 0 W/m 9,8 C 1,6 km/h (1 Bft)
02.08.2016 05:03 11,4 C 11,4 C 90 % 1018,2 hPa 0,0 mm 0,1 km/h (0 Bft) N-NW 348 0 min 0,000 mm 0,0 UV-I 0 W/m 9,8 C 1,6 km/h (1 Bft)
02.08.2016 05:04 11,4 C 11,4 C 91 % 1018,2 hPa 0,0 mm 0,1 km/h (0 Bft) N-NW 348 0 min 0,000 mm 0,0 UV-I 0 W/m 10,0 C 1,6 km/h (1 Bft)
02.08.2016 05:05 11,3 C 11,4 C 91 % 1018,2 hPa 0,0 mm 1,3 km/h (1 Bft) N-NW 348 0 min 0,000 mm 0,0 UV-I 0 W/m 9,9 C 3,2 km/h (1 Bft)
02.08.2016 05:06 11,3 C 11,3 C 91 % 1018,2 hPa 0,0 mm 1,1 km/h (1 Bft) N-NW 348 0 min 0,000 mm 0,0 UV-I 0 W/m 9,9 C 1,6 km/h (1 Bft)
02.08.2016 05:07 11,3 C 11,3 C 91 % 1018,2 hPa 0,0 mm 1,4 km/h (1 Bft) N-NW 346 0 min 0,000 mm 0,0 UV-I 0 W/m 9,9 C 3,2 km/h (1 Bft)
02.08.2016 05:08 11,3 C 11,3 C 91 % 1018,2 hPa 0,0 mm 1,1 km/h (1 Bft) N-NW 346 0 min 0,000 mm 0,0 UV-I 0 W/m 9,9 C 3,2 km/h (1 Bft)
02.08.2016 05:09 11,3 C 11,3 C 90 % 1018,2 hPa 0,0 mm 2,6 km/h (1 Bft) NW 315 0 min 0,000 mm 0,0 UV-I 0 W/m 9,7 C 4,8 km/h (1 Bft)
02.08.2016 05:10 11,2 C 11,3 C 90 % 1018,2 hPa 0,0 mm 1,1 km/h (1 Bft) NW 315 0 min 0,000 mm 0,0 UV-I 0 W/m 9,6 C 3,2 km/h (1 Bft)
02.08.2016 05:11 11,2 C 11,2 C 91 % 1018,2 hPa 0,0 mm 0,3 km/h (0 Bft) NW 315 0 min 0,000 mm 0,0 UV-I 0 W/m 9,8 C 1,6 km/h (1 Bft)
02.08.2016 05:12 11,2 C 11,2 C 91 % 1018,3 hPa 0,0 mm 1,5 km/h (1 Bft) NW 315 0 min 0,000 mm 0,0 UV-I 0 W/m 9,8 C 3,2 km/h (1 Bft)
02.08.2016 05:13 11,2 C 11,3 C 90 % 1018,3 hPa 0,0 mm 0,9 km/h (0 Bft) NW 315 0 min 0,000 mm 0,0 UV-I 0 W/m 9,6 C 1,6 km/h (1 Bft)
02.08.2016 05:14 11,2 C 11,2 C 90 % 1018,3 hPa 0,0 mm 0,3 km/h (0 Bft) NW 315 0 min 0,000 mm 0,0 UV-I 0 W/m 9,6 C 1,6 km/h (1 Bft)
02.08.2016 05:15 11,2 C 11,2 C 91 % 1018,3 hPa 0,0 mm 0,8 km/h (0 Bft) NW 315 0 min 0,000 mm 0,0 UV-I 0 W/m 9,8 C 1,6 km/h (1 Bft)
02.08.2016 05:16 11,2 C 11,2 C 91 % 1018,3 hPa 0,0 mm 1,6 km/h (1 Bft) NW 321 0 min 0,000 mm 0,0 UV-I 0 W/m 9,8 C 4,8 km/h (1 Bft)
02.08.2016 05:17 11,2 C 11,2 C 90 % 1018,2 hPa 0,0 mm 1,4 km/h (1 Bft) NW 323 0 min 0,000 mm 0,0 UV-I 0 W/m 9,6 C 3,2 km/h (1 Bft)
02.08.2016 05:18 11,2 C 11,2 C 90 % 1018,2 hPa 0,0 mm 0,3 km/h (0 Bft) NW 323 0 min 0,000 mm 0,0 UV-I 0 W/m 9,6 C 1,6 km/h (1 Bft)
02.08.2016 05:19 11,1 C 11,2 C 91 % 1018,2 hPa 0,0 mm 0,0 km/h (0 Bft) NW 323 0 min 0,000 mm 0,0 UV-I 0 W/m 9,7 C 0,0 km/h (0 Bft)
02.08.2016 05:20 11,1 C 11,1 C 91 % 1018,2 hPa 0,0 mm 0,0 km/h (0 Bft) NW 322 0 min 0,000 mm 0,0 UV-I 0 W/m 9,7 C 0,0 km/h (0 Bft)
02.08.2016 05:21 11,1 C 11,1 C 91 % 1018,3 hPa 0,0 mm 0,0 km/h (0 Bft) NW 323 0 min 0,000 mm 0,0 UV-I 0 W/m 9,7 C 0,0 km/h (0 Bft)
02.08.2016 05:22 11,1 C 11,1 C 91 % 1018,2 hPa 0,0 mm 0,0 km/h (0 Bft) NW 323 0 min 0,000 mm 0,0 UV-I 0 W/m 9,7 C 0,0 km/h (0 Bft)
02.08.2016 05:23 11,1 C 11,1 C 91 % 1018,2 hPa 0,0 mm 0,0 km/h (0 Bft) NW 322 0 min 0,000 mm 0,0 UV-I 0 W/m 9,7 C 0,0 km/h (0 Bft)
02.08.2016 05:24 11,1 C 11,1 C 91 % 1018,2 hPa 0,0 mm 1,0 km/h (0 Bft) NW 323 0 min 0,000 mm 0,0 UV-I 0 W/m 9,7 C 1,6 km/h (1 Bft)
02.08.2016 05:25 11,1 C 11,1 C 91 % 1018,2 hPa 0,0 mm 1,3 km/h (1 Bft) NW 322 0 min 0,000 mm 0,0 UV-I 0 W/m 9,7 C 1,6 km/h (1 Bft)
02.08.2016 05:26 11,1 C 11,1 C 91 % 1018,2 hPa 0,0 mm 0,2 km/h (0 Bft) NW 322 0 min 0,000 mm 0,0 UV-I 0 W/m 9,7 C 1,6 km/h (1 Bft)
02.08.2016 05:27 11,2 C 11,2 C 91 % 1018,3 hPa 0,0 mm 0,0 km/h (0 Bft) NW 323 0 min 0,000 mm 0,0 UV-I 0 W/m 9,8 C 0,0 km/h (0 Bft)
02.08.2016 05:28 11,2 C 11,2 C 91 % 1018,3 hPa 0,0 mm 1,0 km/h (0 Bft) NW 322 0 min 0,000 mm 0,0 UV-I 0 W/m 9,8 C 3,2 km/h (1 Bft)
02.08.2016 05:29 11,2 C 11,2 C 90 % 1018,3 hPa 0,0 mm 1,9 km/h (1 Bft) W 281 0 min 0,000 mm 0,0 UV-I 0 W/m 9,6 C 4,8 km/h (1 Bft)
02.08.2016 05:30 11,2 C 11,2 C 90 % 1018,3 hPa 0,0 mm 0,7 km/h (0 Bft) W 281 0 min 0,000 mm 0,0 UV-I 0 W/m 9,6 C 1,6 km/h (1 Bft)
02.08.2016 05:31 11,3 C 11,3 C 90 % 1018,3 hPa 0,0 mm 1,0 km/h (0 Bft) W 281 0 min 0,000 mm 0,0 UV-I 0 W/m 9,7 C 3,2 km/h (1 Bft)
02.08.2016 05:32 11,3 C 11,3 C 90 % 1018,3 hPa 0,0 mm 1,5 km/h (1 Bft) S 188 0 min 0,000 mm 0,0 UV-I 0 W/m 9,7 C 3,2 km/h (1 Bft)
02.08.2016 05:33 11,3 C 11,3 C 90 % 1018,3 hPa 0,0 mm 1,6 km/h (1 Bft) S 191 0 min 0,000 mm 0,0 UV-I 0 W/m 9,7 C 3,2 km/h (1 Bft)
02.08.2016 05:34 11,3 C 11,3 C 90 % 1018,3 hPa 0,0 mm 0,9 km/h (0 Bft) S 191 0 min 0,000 mm 0,0 UV-I 0 W/m 9,7 C 1,6 km/h (1 Bft)
02.08.2016 05:35 11,3 C 11,3 C 90 % 1018,3 hPa 0,0 mm 1,9 km/h (1 Bft) W 270 0 min 0,000 mm 0,0 UV-I 0 W/m 9,7 C 3,2 km/h (1 Bft)
02.08.2016 05:36 11,3 C 11,3 C 90 % 1018,3 hPa 0,0 mm 1,2 km/h (1 Bft) W 280 0 min 0,000 mm 0,0 UV-I 0 W/m 9,7 C 3,2 km/h (1 Bft)
02.08.2016 05:37 11,3 C 11,3 C 90 % 1018,3 hPa 0,0 mm 1,4 km/h (1 Bft) W-NW 303 0 min 0,000 mm 0,0 UV-I 0 W/m 9,7 C 3,2 km/h (1 Bft)
02.08.2016 05:38 11,3 C 11,3 C 90 % 1018,3 hPa 0,0 mm 2,1 km/h (1 Bft) W-SW 238 0 min 0,000 mm 0,0 UV-I 0 W/m 9,7 C 4,8 km/h (1 Bft)
02.08.2016 05:39 11,4 C 11,4 C 90 % 1018,3 hPa 0,0 mm 1,7 km/h (1 Bft) W-SW 238 0 min 0,000 mm 0,0 UV-I 0 W/m 9,8 C 4,8 km/h (1 Bft)
02.08.2016 05:40 11,4 C 11,4 C 89 % 1018,3 hPa 0,0 mm 0,9 km/h (0 Bft) N-NW 342 0 min 0,000 mm 0,0 UV-I 0 W/m 9,7 C 1,6 km/h (1 Bft)
02.08.2016 05:41 11,4 C 11,4 C 89 % 1018,2 hPa 0,0 mm 1,3 km/h (1 Bft) N-NW 340 0 min 0,000 mm 0,0 UV-I 0 W/m 9,7 C 1,6 km/h (1 Bft)
02.08.2016 05:42 11,5 C 11,5 C 89 % 1018,3 hPa 0,0 mm 0,5 km/h (0 Bft) N-NW 340 0 min 0,000 mm 0,0 UV-I 0 W/m 9,8 C 1,6 km/h (1 Bft)
02.08.2016 05:43 11,5 C 11,5 C 89 % 1018,3 hPa 0,0 mm 1,3 km/h (1 Bft) N-NW 340 0 min 0,000 mm 0,0 UV-I 0 W/m 9,8 C 3,2 km/h (1 Bft)
02.08.2016 05:44 11,5 C 11,6 C 90 % 1018,3 hPa 0,0 mm 1,3 km/h (1 Bft) W-SW 238 0 min 0,000 mm 0,0 UV-I 0 W/m 9,9 C 4,8 km/h (1 Bft)
02.08.2016 05:45 11,5 C 11,6 C 90 % 1018,3 hPa 0,0 mm 1,9 km/h (1 Bft) W-NW 292 0 min 0,000 mm 0,0 UV-I 0 W/m 9,9 C 3,2 km/h (1 Bft)
02.08.2016 05:46 11,5 C 11,6 C 90 % 1018,3 hPa 0,0 mm 2,0 km/h (1 Bft) W-NW 292 0 min 0,000 mm 0,0 UV-I 5 W/m 9,9 C 3,2 km/h (1 Bft)
02.08.2016 05:47 11,5 C 11,6 C 89 % 1018,3 hPa 0,0 mm 1,6 km/h (1 Bft) W-NW 292 0 min 0,000 mm 0,0 UV-I 7 W/m 9,8 C 3,2 km/h (1 Bft)
02.08.2016 05:48 11,5 C 11,5 C 89 % 1018,3 hPa 0,0 mm 0,5 km/h (0 Bft) W-NW 292 0 min 0,000 mm 0,0 UV-I 7 W/m 9,8 C 1,6 km/h (1 Bft)
02.08.2016 05:49 11,6 C 11,6 C 89 % 1018,3 hPa 0,0 mm 1,3 km/h (1 Bft) W-NW 292 0 min 0,000 mm 0,0 UV-I 7 W/m 9,8 C 3,2 km/h (1 Bft)
02.08.2016 05:50 11,6 C 11,6 C 89 % 1018,3 hPa 0,0 mm 1,4 km/h (1 Bft) W-NW 292 0 min 0,000 mm 0,0 UV-I 7 W/m 9,8 C 3,2 km/h (1 Bft)
02.08.2016 05:51 11,6 C 11,6 C 89 % 1018,3 hPa 0,0 mm 2,8 km/h (1 Bft) W 280 0 min 0,000 mm 0,0 UV-I 7 W/m 9,8 C 4,8 km/h (1 Bft)
02.08.2016 05:52 11,6 C 11,6 C 89 % 1018,3 hPa 0,0 mm 1,0 km/h (0 Bft) W 280 0 min 0,000 mm 0,0 UV-I 7 W/m 9,8 C 1,6 km/h (1 Bft)
02.08.2016 05:53 11,6 C 11,6 C 89 % 1018,3 hPa 0,0 mm 0,5 km/h (0 Bft) W 279 0 min 0,000 mm 0,0 UV-I 7 W/m 9,8 C 1,6 km/h (1 Bft)
02.08.2016 05:54 11,6 C 11,7 C 89 % 1018,3 hPa 0,0 mm 0,3 km/h (0 Bft) W 280 0 min 0,000 mm 0,0 UV-I 5 W/m 9,8 C 1,6 km/h (1 Bft)
02.08.2016 05:55 11,7 C 11,7 C 89 % 1018,3 hPa 0,0 mm 1,1 km/h (1 Bft) W 280 0 min 0,000 mm 0,0 UV-I 5 W/m 9,9 C 3,2 km/h (1 Bft)
02.08.2016 05:56 11,7 C 11,7 C 89 % 1018,3 hPa 0,0 mm 1,5 km/h (1 Bft) W 280 0 min 0,000 mm 0,0 UV-I 5 W/m 9,9 C 3,2 km/h (1 Bft)
02.08.2016 05:57 11,7 C 11,7 C 89 % 1018,4 hPa 0,0 mm 0,4 km/h (0 Bft) W 280 0 min 0,000 mm 0,0 UV-I 5 W/m 9,9 C 1,6 km/h (1 Bft)
02.08.2016 05:58 11,7 C 11,7 C 89 % 1018,3 hPa 0,0 mm 0,1 km/h (0 Bft) W 280 0 min 0,000 mm 0,0 UV-I 5 W/m 9,9 C 1,6 km/h (1 Bft)
02.08.2016 05:59 11,6 C 11,7 C 89 % 1018,3 hPa 0,0 mm 0,0 km/h (0 Bft) W 280 0 min 0,000 mm 0,0 UV-I 5 W/m 9,8 C 0,0 km/h (0 Bft)
02.08.2016 06:00 11,6 C 11,6 C 89 % 1018,3 hPa 0,0 mm 0,0 km/h (0 Bft) W 280 0 min 0,000 mm 0,0 UV-I 5 W/m 9,8 C 0,0 km/h (0 Bft)
02.08.2016 06:01 11,7 C 11,7 C 89 % 1018,3 hPa 0,0 mm 0,5 km/h (0 Bft) W 280 0 min 0,000 mm 0,0 UV-I 5 W/m 9,9 C 1,6 km/h (1 Bft)
02.08.2016 06:02 11,6 C 11,7 C 89 % 1018,3 hPa 0,0 mm 0,5 km/h (0 Bft) W 280 0 min 0,000 mm 0,0 UV-I 7 W/m 9,8 C 1,6 km/h (1 Bft)
02.08.2016 06:03 11,6 C 11,6 C 89 % 1018,3 hPa 0,0 mm 0,1 km/h (0 Bft) W 280 0 min 0,000 mm 0,0 UV-I 7 W/m 9,8 C 1,6 km/h (1 Bft)
02.08.2016 06:04 11,6 C 11,6 C 89 % 1018,3 hPa 0,0 mm 0,9 km/h (0 Bft) W 280 0 min 0,000 mm 0,0 UV-I 7 W/m 9,8 C 3,2 km/h (1 Bft)
02.08.2016 06:05 11,6 C 11,6 C 89 % 1018,3 hPa 0,0 mm 0,7 km/h (0 Bft) W 280 0 min 0,000 mm 0,0 UV-I 9 W/m 9,8 C 1,6 km/h (1 Bft)
02.08.2016 06:06 11,6 C 11,6 C 89 % 1018,3 hPa 0,0 mm 2,1 km/h (1 Bft) W-NW 295 1 min 0,000 mm 0,0 UV-I 9 W/m 9,8 C 4,8 km/h (1 Bft)
02.08.2016 06:07 11,6 C 11,6 C 89 % 1018,3 hPa 0,0 mm 3,1 km/h (1 Bft) O-NO 70 0 min 0,000 mm 0,0 UV-I 9 W/m 9,8 C 6,4 km/h (2 Bft)
02.08.2016 06:08 11,6 C 11,6 C 89 % 1018,3 hPa 0,0 mm 1,9 km/h (1 Bft) W-NW 298 1 min 0,000 mm 0,0 UV-I 11 W/m 9,8 C 4,8 km/h (1 Bft)
02.08.2016 06:09 11,7 C 11,7 C 89 % 1018,3 hPa 0,0 mm 2,3 km/h (1 Bft) NW 307 0 min 0,000 mm 0,0 UV-I 11 W/m 9,9 C 3,2 km/h (1 Bft)
02.08.2016 06:10 11,7 C 11,7 C 89 % 1018,3 hPa 0,0 mm 1,7 km/h (1 Bft) NW 306 0 min 0,000 mm 0,0 UV-I 12 W/m 9,9 C 3,2 km/h (1 Bft)
02.08.2016 06:11 11,7 C 11,7 C 89 % 1018,3 hPa 0,0 mm 2,6 km/h (1 Bft) NW 309 0 min 0,000 mm 0,0 UV-I 12 W/m 9,9 C 4,8 km/h (1 Bft)
02.08.2016 06:12 11,7 C 11,7 C 88 % 1018,3 hPa 0,0 mm 2,1 km/h (1 Bft) NW 309 0 min 0,000 mm 0,0 UV-I 14 W/m 9,8 C 3,2 km/h (1 Bft)
02.08.2016 06:13 11,7 C 11,7 C 89 % 1018,3 hPa 0,0 mm 1,4 km/h (1 Bft) NW 309 0 min 0,000 mm 0,0 UV-I 14 W/m 9,9 C 3,2 km/h (1 Bft)
02.08.2016 06:14 11,7 C 11,7 C 89 % 1018,3 hPa 0,0 mm 2,0 km/h (1 Bft) NW 309 0 min 0,000 mm 0,0 UV-I 16 W/m 9,9 C 3,2 km/h (1 Bft)
02.08.2016 06:15 11,7 C 11,7 C 89 % 1018,3 hPa 0,0 mm 0,6 km/h (0 Bft) NW 309 0 min 0,000 mm 0,0 UV-I 18 W/m 9,9 C 1,6 km/h (1 Bft)
02.08.2016 06:16 11,7 C 11,7 C 89 % 1018,4 hPa 0,0 mm 1,5 km/h (1 Bft) NW 309 0 min 0,000 mm 0,0 UV-I 21 W/m 9,9 C 3,2 km/h (1 Bft)
02.08.2016 06:17 11,7 C 11,7 C 88 % 1018,3 hPa 0,0 mm 2,2 km/h (1 Bft) NW 309 0 min 0,000 mm 0,0 UV-I 23 W/m 9,8 C 3,2 km/h (1 Bft)
02.08.2016 06:18 11,7 C 11,7 C 89 % 1018,3 hPa 0,0 mm 2,4 km/h (1 Bft) NW 309 0 min 0,000 mm 0,0 UV-I 25 W/m 9,9 C 3,2 km/h (1 Bft)
02.08.2016 06:19 11,7 C 11,7 C 89 % 1018,3 hPa 0,0 mm 0,6 km/h (0 Bft) NW 309 0 min 0,000 mm 0,0 UV-I 25 W/m 9,9 C 1,6 km/h (1 Bft)
02.08.2016 06:20 11,7 C 11,7 C 89 % 1018,4 hPa 0,0 mm 0,1 km/h (0 Bft) NW 309 0 min 0,000 mm 0,0 UV-I 26 W/m 9,9 C 1,6 km/h (1 Bft)
02.08.2016 06:21 11,7 C 11,7 C 89 % 1018,4 hPa 0,0 mm 1,2 km/h (1 Bft) NW 309 0 min 0,000 mm 0,0 UV-I 26 W/m 9,9 C 3,2 km/h (1 Bft)
02.08.2016 06:22 11,7 C 11,7 C 89 % 1018,4 hPa 0,0 mm 1,6 km/h (1 Bft) NW 309 0 min 0,000 mm 0,0 UV-I 25 W/m 9,9 C 3,2 km/h (1 Bft)
02.08.2016 06:23 11,7 C 11,7 C 90 % 1018,4 hPa 0,0 mm 1,8 km/h (1 Bft) W-NW 285 0 min 0,000 mm 0,0 UV-I 25 W/m 10,1 C 3,2 km/h (1 Bft)
02.08.2016 06:24 11,7 C 11,7 C 89 % 1018,3 hPa 0,0 mm 1,9 km/h (1 Bft) W-NW 285 0 min 0,000 mm 0,0 UV-I 25 W/m 9,9 C 3,2 km/h (1 Bft)
02.08.2016 06:25 11,7 C 11,7 C 89 % 1018,4 hPa 0,0 mm 1,9 km/h (1 Bft) W-NW 298 0 min 0,000 mm 0,0 UV-I 25 W/m 9,9 C 4,8 km/h (1 Bft)
02.08.2016 06:26 11,7 C 11,7 C 89 % 1018,4 hPa 0,0 mm 0,7 km/h (0 Bft) W-NW 298 0 min 0,000 mm 0,0 UV-I 25 W/m 9,9 C 3,2 km/h (1 Bft)
02.08.2016 06:27 11,7 C 11,7 C 89 % 1018,4 hPa 0,0 mm 0,4 km/h (0 Bft) W-NW 298 0 min 0,000 mm 0,0 UV-I 25 W/m 9,9 C 1,6 km/h (1 Bft)
02.08.2016 06:28 11,7 C 11,7 C 89 % 1018,4 hPa 0,0 mm 0,2 km/h (0 Bft) W-NW 298 0 min 0,000 mm 0,0 UV-I 25 W/m 9,9 C 1,6 km/h (1 Bft)
02.08.2016 06:29 11,7 C 11,7 C 89 % 1018,4 hPa 0,0 mm 0,0 km/h (0 Bft) W-NW 298 0 min 0,000 mm 0,0 UV-I 25 W/m 9,9 C 0,0 km/h (0 Bft)
02.08.2016 06:30 11,7 C 11,7 C 89 % 1018,4 hPa 0,0 mm 0,7 km/h (0 Bft) W-NW 298 0 min 0,000 mm 0,0 UV-I 26 W/m 9,9 C 1,6 km/h (1 Bft)
02.08.2016 06:31 11,7 C 11,7 C 89 % 1018,4 hPa 0,0 mm 0,9 km/h (0 Bft) W-NW 298 0 min 0,000 mm 0,0 UV-I 26 W/m 9,9 C 1,6 km/h (1 Bft)
02.08.2016 06:32 11,7 C 11,7 C 89 % 1018,4 hPa 0,0 mm 0,4 km/h (0 Bft) W-NW 298 0 min 0,000 mm 0,0 UV-I 28 W/m 9,9 C 1,6 km/h (1 Bft)
02.08.2016 06:33 11,7 C 11,7 C 89 % 1018,4 hPa 0,0 mm 0,5 km/h (0 Bft) W-NW 298 0 min 0,000 mm 0,0 UV-I 30 W/m 9,9 C 1,6 km/h (1 Bft)
02.08.2016 06:34 11,7 C 11,7 C 89 % 1018,4 hPa 0,0 mm 1,0 km/h (0 Bft) W-NW 298 0 min 0,000 mm 0,0 UV-I 33 W/m 9,9 C 3,2 km/h (1 Bft)
02.08.2016 06:35 11,7 C 11,7 C 89 % 1018,3 hPa 0,0 mm 0,6 km/h (0 Bft) W-NW 298 0 min 0,000 mm 0,0 UV-I 35 W/m 9,9 C 1,6 km/h (1 Bft)
02.08.2016 06:36 11,7 C 11,7 C 89 % 1018,3 hPa 0,0 mm 1,7 km/h (1 Bft) NW 314 0 min 0,000 mm 0,0 UV-I 37 W/m 9,9 C 4,8 km/h (1 Bft)
02.08.2016 06:37 11,7 C 11,7 C 89 % 1018,3 hPa 0,0 mm 0,4 km/h (0 Bft) NW 314 0 min 0,000 mm 0,0 UV-I 40 W/m 9,9 C 1,6 km/h (1 Bft)
02.08.2016 06:38 11,7 C 11,7 C 89 % 1018,3 hPa 0,0 mm 1,5 km/h (1 Bft) NW 314 0 min 0,000 mm 0,0 UV-I 42 W/m 9,9 C 1,6 km/h (1 Bft)
02.08.2016 06:39 11,7 C 11,7 C 89 % 1018,4 hPa 0,0 mm 0,3 km/h (0 Bft) NW 314 0 min 0,000 mm 0,0 UV-I 46 W/m 9,9 C 1,6 km/h (1 Bft)
02.08.2016 06:40 11,7 C 11,7 C 89 % 1018,3 hPa 0,0 mm 0,0 km/h (0 Bft) NW 314 0 min 0,000 mm 0,0 UV-I 47 W/m 9,9 C 0,0 km/h (0 Bft)
02.08.2016 06:41 11,7 C 11,7 C 89 % 1018,3 hPa 0,0 mm 0,7 km/h (0 Bft) N-NO 30 0 min 0,000 mm 0,0 UV-I 49 W/m 9,9 C 1,6 km/h (1 Bft)
02.08.2016 06:42 11,7 C 11,7 C 89 % 1018,3 hPa 0,0 mm 0,2 km/h (0 Bft) N-NO 30 0 min 0,000 mm 0,0 UV-I 53 W/m 9,9 C 1,6 km/h (1 Bft)
02.08.2016 06:43 11,7 C 11,7 C 89 % 1018,4 hPa 0,0 mm 0,9 km/h (0 Bft) N-NO 30 0 min 0,000 mm 0,0 UV-I 58 W/m 9,9 C 3,2 km/h (1 Bft)
02.08.2016 06:44 11,8 C 11,8 C 89 % 1018,3 hPa 0,0 mm 1,6 km/h (1 Bft) N-NO 30 1 min 0,000 mm 0,0 UV-I 74 W/m 10,0 C 3,2 km/h (1 Bft)
02.08.2016 06:45 11,8 C 11,8 C 89 % 1018,3 hPa 0,0 mm 1,0 km/h (0 Bft) N-NO 30 1 min 0,000 mm 0,0 UV-I 95 W/m 10,0 C 3,2 km/h (1 Bft)
02.08.2016 06:46 11,9 C 11,9 C 89 % 1018,3 hPa 0,0 mm 0,7 km/h (0 Bft) N-NO 30 1 min 0,000 mm 0,0 UV-I 97 W/m 10,1 C 1,6 km/h (1 Bft)
02.08.2016 06:47 11,9 C 11,9 C 89 % 1018,3 hPa 0,0 mm 0,3 km/h (0 Bft) N-NO 30 1 min 0,000 mm 0,0 UV-I 93 W/m 10,1 C 1,6 km/h (1 Bft)
02.08.2016 06:48 11,9 C 11,9 C 89 % 1018,3 hPa 0,0 mm 0,0 km/h (0 Bft) N-NO 30 1 min 0,000 mm 0,0 UV-I 86 W/m 10,1 C 0,0 km/h (0 Bft)
02.08.2016 06:49 12,0 C 12,0 C 89 % 1018,4 hPa 0,0 mm 0,7 km/h (0 Bft) N-NW 339 1 min 0,000 mm 0,0 UV-I 81 W/m 10,2 C 3,2 km/h (1 Bft)
02.08.2016 06:50 11,9 C 12,0 C 90 % 1018,4 hPa 0,0 mm 2,1 km/h (1 Bft) N-NW 339 1 min 0,000 mm 0,0 UV-I 83 W/m 10,3 C 3,2 km/h (1 Bft)
02.08.2016 06:51 12,0 C 12,0 C 90 % 1018,3 hPa 0,0 mm 0,3 km/h (0 Bft) N-NW 339 1 min 0,000 mm 0,0 UV-I 95 W/m 10,4 C 1,6 km/h (1 Bft)
02.08.2016 06:52 12,0 C 12,0 C 90 % 1018,4 hPa 0,0 mm 1,1 km/h (1 Bft) N-NW 339 1 min 0,000 mm 0,0 UV-I 111 W/m 10,4 C 3,2 km/h (1 Bft)
02.08.2016 06:53 12,0 C 12,1 C 90 % 1018,3 hPa 0,0 mm 1,2 km/h (1 Bft) N-NW 339 1 min 0,000 mm 0,0 UV-I 118 W/m 10,4 C 1,6 km/h (1 Bft)
02.08.2016 06:54 12,1 C 12,1 C 91 % 1018,3 hPa 0,0 mm 1,6 km/h (1 Bft) N-NW 339 1 min 0,000 mm 0,0 UV-I 120 W/m 10,7 C 3,2 km/h (1 Bft)
02.08.2016 06:55 12,1 C 12,1 C 90 % 1018,4 hPa 0,0 mm 2,5 km/h (1 Bft) NW 325 1 min 0,000 mm 0,0 UV-I 109 W/m 10,5 C 3,2 km/h (1 Bft)
02.08.2016 06:56 12,2 C 12,2 C 90 % 1018,3 hPa 0,0 mm 1,7 km/h (1 Bft) N 360 1 min 0,000 mm 0,0 UV-I 113 W/m 10,6 C 3,2 km/h (1 Bft)
02.08.2016 06:57 12,3 C 12,3 C 90 % 1018,3 hPa 0,0 mm 0,5 km/h (0 Bft) N 360 1 min 0,000 mm 0,0 UV-I 121 W/m 10,7 C 1,6 km/h (1 Bft)
02.08.2016 06:58 12,4 C 12,4 C 90 % 1018,3 hPa 0,0 mm 1,2 km/h (1 Bft) N 360 1 min 0,000 mm 0,0 UV-I 151 W/m 10,8 C 1,6 km/h (1 Bft)
02.08.2016 06:59 12,4 C 12,4 C 90 % 1018,4 hPa 0,0 mm 0,2 km/h (0 Bft) N 360 1 min 0,000 mm 0,0 UV-I 162 W/m 10,8 C 1,6 km/h (1 Bft)
02.08.2016 07:00 12,5 C 12,5 C 89 % 1018,4 hPa 0,0 mm 0,5 km/h (0 Bft) N 360 1 min 0,000 mm 0,0 UV-I 155 W/m 10,7 C 1,6 km/h (1 Bft)
02.08.2016 07:01 12,6 C 12,6 C 89 % 1018,4 hPa 0,0 mm 2,1 km/h (1 Bft) N 355 1 min 0,025 mm 0,0 UV-I 132 W/m 10,8 C 3,2 km/h (1 Bft)
02.08.2016 07:02 12,7 C 12,7 C 88 % 1018,4 hPa 0,0 mm 0,3 km/h (0 Bft) N 355 1 min 0,000 mm 0,0 UV-I 113 W/m 10,8 C 1,6 km/h (1 Bft)
02.08.2016 07:03 12,8 C 12,8 C 89 % 1018,4 hPa 0,0 mm 1,1 km/h (1 Bft) N 355 1 min 0,000 mm 0,0 UV-I 155 W/m 11,0 C 3,2 km/h (1 Bft)
02.08.2016 07:04 12,8 C 12,8 C 88 % 1018,4 hPa 0,0 mm 2,4 km/h (1 Bft) W 271 1 min 0,000 mm 0,0 UV-I 141 W/m 10,9 C 4,8 km/h (1 Bft)
02.08.2016 07:05 12,9 C 12,9 C 89 % 1018,4 hPa 0,0 mm 2,5 km/h (1 Bft) NO 34 1 min 0,000 mm 0,0 UV-I 130 W/m 11,1 C 4,8 km/h (1 Bft)
02.08.2016 07:06 12,9 C 12,9 C 88 % 1018,4 hPa 0,0 mm 0,9 km/h (0 Bft) N-NO 33 1 min 0,000 mm 0,0 UV-I 167 W/m 11,0 C 1,6 km/h (1 Bft)
02.08.2016 07:07 13,0 C 13,0 C 89 % 1018,4 hPa 0,0 mm 0,1 km/h (0 Bft) N-NO 33 1 min 0,000 mm 0,5 UV-I 176 W/m 11,2 C 1,6 km/h (1 Bft)
02.08.2016 07:08 13,1 C 13,1 C 90 % 1018,4 hPa 0,0 mm 0,1 km/h (0 Bft) NO 34 1 min 0,000 mm 0,5 UV-I 167 W/m 11,5 C 1,6 km/h (1 Bft)
02.08.2016 07:09 13,1 C 13,1 C 89 % 1018,4 hPa 0,0 mm 0,3 km/h (0 Bft) NO 34 1 min 0,000 mm 0,5 UV-I 171 W/m 11,3 C 1,6 km/h (1 Bft)
02.08.2016 07:10 13,1 C 13,1 C 87 % 1018,4 hPa 0,0 mm 0,8 km/h (0 Bft) N-NO 33 1 min 0,000 mm 0,5 UV-I 144 W/m 11,0 C 1,6 km/h (1 Bft)
02.08.2016 07:11 13,2 C 13,2 C 87 % 1018,4 hPa 0,0 mm 0,7 km/h (0 Bft) NO 34 1 min 0,000 mm 0,5 UV-I 132 W/m 11,1 C 1,6 km/h (1 Bft)
02.08.2016 07:12 13,2 C 13,2 C 86 % 1018,4 hPa 0,0 mm 1,1 km/h (1 Bft) NO 34 1 min 0,000 mm 0,5 UV-I 156 W/m 10,9 C 1,6 km/h (1 Bft)
02.08.2016 07:13 13,3 C 13,3 C 86 % 1018,3 hPa 0,0 mm 1,1 km/h (1 Bft) N-NO 33 1 min 0,000 mm 0,5 UV-I 186 W/m 11,0 C 3,2 km/h (1 Bft)
02.08.2016 07:14 13,3 C 13,3 C 87 % 1018,4 hPa 0,0 mm 2,1 km/h (1 Bft) N-NO 33 1 min 0,000 mm 0,5 UV-I 195 W/m 11,2 C 3,2 km/h (1 Bft)
02.08.2016 07:15 13,4 C 13,4 C 87 % 1018,4 hPa 0,0 mm 0,1 km/h (0 Bft) N-NO 33 1 min 0,000 mm 0,5 UV-I 199 W/m 11,3 C 1,6 km/h (1 Bft)
02.08.2016 07:16 13,4 C 13,4 C 86 % 1018,3 hPa 0,0 mm 0,2 km/h (0 Bft) N-NO 33 1 min 0,000 mm 0,5 UV-I 156 W/m 11,1 C 1,6 km/h (1 Bft)
02.08.2016 07:17 13,5 C 13,5 C 85 % 1018,4 hPa 0,0 mm 0,0 km/h (0 Bft) N-NO 33 1 min 0,000 mm 0,5 UV-I 141 W/m 11,0 C 0,0 km/h (0 Bft)
02.08.2016 07:18 13,5 C 13,5 C 85 % 1018,4 hPa 0,0 mm 0,7 km/h (0 Bft) N-NO 33 1 min 0,000 mm 0,5 UV-I 144 W/m 11,0 C 3,2 km/h (1 Bft)
02.08.2016 07:19 13,6 C 13,6 C 85 % 1018,4 hPa 0,0 mm 0,6 km/h (0 Bft) N-NO 33 1 min 0,000 mm 0,5 UV-I 137 W/m 11,1 C 1,6 km/h (1 Bft)
02.08.2016 07:20 13,6 C 13,6 C 85 % 1018,4 hPa 0,0 mm 0,1 km/h (0 Bft) N-NO 33 1 min 0,000 mm 0,5 UV-I 132 W/m 11,1 C 1,6 km/h (1 Bft)
02.08.2016 07:21 13,7 C 13,7 C 85 % 1018,4 hPa 0,0 mm 0,5 km/h (0 Bft) N-NO 33 1 min 0,000 mm 0,5 UV-I 132 W/m 11,2 C 1,6 km/h (1 Bft)
02.08.2016 07:22 13,7 C 13,7 C 85 % 1018,4 hPa 0,0 mm 0,2 km/h (0 Bft) N-NO 33 1 min 0,000 mm 0,5 UV-I 132 W/m 11,2 C 1,6 km/h (1 Bft)
02.08.2016 07:23 13,7 C 13,7 C 86 % 1018,4 hPa 0,0 mm 1,1 km/h (1 Bft) N-NO 33 1 min 0,000 mm 0,5 UV-I 128 W/m 11,4 C 1,6 km/h (1 Bft)
02.08.2016 07:24 13,7 C 13,7 C 86 % 1018,5 hPa 0,0 mm 0,6 km/h (0 Bft) N-NO 33 1 min 0,000 mm 0,6 UV-I 128 W/m 11,4 C 1,6 km/h (1 Bft)
02.08.2016 07:25 13,8 C 13,8 C 84 % 1018,4 hPa 0,0 mm 0,1 km/h (0 Bft) N-NO 33 1 min 0,000 mm 0,6 UV-I 128 W/m 11,1 C 1,6 km/h (1 Bft)
02.08.2016 07:26 13,8 C 13,8 C 88 % 1018,5 hPa 0,0 mm 0,4 km/h (0 Bft) N-NO 33 1 min 0,000 mm 0,6 UV-I 132 W/m 11,8 C 1,6 km/h (1 Bft)
02.08.2016 07:27 13,8 C 13,8 C 85 % 1018,5 hPa 0,0 mm 0,6 km/h (0 Bft) N-NO 33 1 min 0,000 mm 0,6 UV-I 132 W/m 11,3 C 3,2 km/h (1 Bft)
02.08.2016 07:28 13,8 C 13,8 C 86 % 1018,4 hPa 0,0 mm 0,6 km/h (0 Bft) N-NO 33 1 min 0,000 mm 0,6 UV-I 132 W/m 11,5 C 3,2 km/h (1 Bft)
02.08.2016 07:29 13,8 C 13,9 C 85 % 1018,4 hPa 0,0 mm 0,1 km/h (0 Bft) N-NO 33 0 min 0,000 mm 0,6 UV-I 130 W/m 11,3 C 1,6 km/h (1 Bft)
02.08.2016 07:30 13,9 C 13,9 C 85 % 1018,5 hPa 0,0 mm 0,1 km/h (0 Bft) N-NO 33 0 min 0,000 mm 0,6 UV-I 130 W/m 11,4 C 1,6 km/h (1 Bft)
02.08.2016 07:31 13,9 C 13,9 C 85 % 1018,5 hPa 0,0 mm 0,0 km/h (0 Bft) N-NO 33 0 min 0,000 mm 0,6 UV-I 128 W/m 11,4 C 0,0 km/h (0 Bft)
02.08.2016 07:32 13,9 C 13,9 C 85 % 1018,5 hPa 0,0 mm 0,0 km/h (0 Bft) N-NO 33 0 min 0,000 mm 0,6 UV-I 125 W/m 11,4 C 0,0 km/h (0 Bft)
02.08.2016 07:33 13,9 C 13,9 C 85 % 1018,4 hPa 0,0 mm 0,0 km/h (0 Bft) N-NO 33 0 min 0,000 mm 0,6 UV-I 123 W/m 11,4 C 0,0 km/h (0 Bft)
02.08.2016 07:34 13,9 C 13,9 C 86 % 1018,5 hPa 0,0 mm 0,0 km/h (0 Bft) N-NO 33 0 min 0,000 mm 0,6 UV-I 123 W/m 11,6 C 0,0 km/h (0 Bft)
02.08.2016 07:35 13,9 C 13,9 C 86 % 1018,4 hPa 0,0 mm 0,2 km/h (0 Bft) N-NO 33 0 min 0,000 mm 0,6 UV-I 121 W/m 11,6 C 1,6 km/h (1 Bft)
02.08.2016 07:36 13,9 C 13,9 C 85 % 1018,4 hPa 0,0 mm 0,3 km/h (0 Bft) N-NO 33 0 min 0,000 mm 0,6 UV-I 123 W/m 11,4 C 1,6 km/h (1 Bft)
02.08.2016 07:37 13,9 C 13,9 C 85 % 1018,4 hPa 0,0 mm 1,1 km/h (1 Bft) N-NO 33 0 min 0,000 mm 0,6 UV-I 123 W/m 11,4 C 1,6 km/h (1 Bft)
02.08.2016 07:38 13,9 C 14,0 C 86 % 1018,4 hPa 0,0 mm 0,0 km/h (0 Bft) N-NO 33 0 min 0,000 mm 0,6 UV-I 114 W/m 11,6 C 0,0 km/h (0 Bft)
02.08.2016 07:39 13,9 C 14,0 C 85 % 1018,4 hPa 0,0 mm 0,0 km/h (0 Bft) N-NO 33 0 min 0,000 mm 0,6 UV-I 111 W/m 11,4 C 0,0 km/h (0 Bft)
02.08.2016 07:40 14,0 C 14,0 C 87 % 1018,4 hPa 0,0 mm 0,1 km/h (0 Bft) N-NO 33 0 min 0,000 mm 0,6 UV-I 109 W/m 11,9 C 1,6 km/h (1 Bft)
02.08.2016 07:41 14,0 C 14,0 C 88 % 1018,4 hPa 0,0 mm 0,0 km/h (0 Bft) N-NO 33 0 min 0,000 mm 0,6 UV-I 107 W/m 12,0 C 0,0 km/h (0 Bft)
02.08.2016 07:42 14,0 C 14,0 C 87 % 1018,4 hPa 0,0 mm 0,1 km/h (0 Bft) N-NO 33 0 min 0,000 mm 0,6 UV-I 105 W/m 11,9 C 1,6 km/h (1 Bft)
02.08.2016 07:43 13,9 C 14,0 C 87 % 1018,4 hPa 0,0 mm 0,7 km/h (0 Bft) N-NO 33 0 min 0,000 mm 0,6 UV-I 104 W/m 11,8 C 1,6 km/h (1 Bft)
02.08.2016 07:44 13,9 C 13,9 C 86 % 1018,4 hPa 0,0 mm 0,0 km/h (0 Bft) N-NO 33 0 min 0,000 mm 0,6 UV-I 102 W/m 11,6 C 0,0 km/h (0 Bft)
02.08.2016 07:45 13,9 C 13,9 C 85 % 1018,4 hPa 0,0 mm 0,2 km/h (0 Bft) N-NO 33 0 min 0,000 mm 0,6 UV-I 102 W/m 11,4 C 1,6 km/h (1 Bft)
02.08.2016 07:46 13,9 C 13,9 C 87 % 1018,5 hPa 0,0 mm 0,1 km/h (0 Bft) N-NO 33 0 min 0,000 mm 0,6 UV-I 104 W/m 11,8 C 1,6 km/h (1 Bft)
02.08.2016 07:47 13,9 C 13,9 C 85 % 1018,4 hPa 0,0 mm 0,1 km/h (0 Bft) N-NO 33 0 min 0,000 mm 0,6 UV-I 104 W/m 11,4 C 1,6 km/h (1 Bft)
02.08.2016 07:48 13,9 C 13,9 C 87 % 1018,4 hPa 0,0 mm 0,0 km/h (0 Bft) N-NO 33 0 min 0,000 mm 0,7 UV-I 105 W/m 11,8 C 0,0 km/h (0 Bft)
02.08.2016 07:49 13,9 C 13,9 C 86 % 1018,4 hPa 0,0 mm 0,6 km/h (0 Bft) N-NO 33 0 min 0,000 mm 0,7 UV-I 107 W/m 11,6 C 1,6 km/h (1 Bft)
02.08.2016 07:50 13,9 C 13,9 C 85 % 1018,4 hPa 0,0 mm 0,3 km/h (0 Bft) N-NO 33 0 min 0,000 mm 0,7 UV-I 113 W/m 11,4 C 1,6 km/h (1 Bft)
02.08.2016 07:51 13,9 C 14,0 C 86 % 1018,4 hPa 0,0 mm 0,1 km/h (0 Bft) N-NO 33 0 min 0,000 mm 0,7 UV-I 116 W/m 11,6 C 1,6 km/h (1 Bft)
02.08.2016 07:52 13,9 C 13,9 C 87 % 1018,4 hPa 0,0 mm 0,8 km/h (0 Bft) NO 34 0 min 0,000 mm 0,7 UV-I 120 W/m 11,8 C 1,6 km/h (1 Bft)
02.08.2016 07:53 13,9 C 13,9 C 86 % 1018,4 hPa 0,0 mm 0,0 km/h (0 Bft) NO 34 0 min 0,000 mm 0,7 UV-I 123 W/m 11,6 C 0,0 km/h (0 Bft)
02.08.2016 07:54 14,0 C 14,0 C 86 % 1018,5 hPa 0,0 mm 0,0 km/h (0 Bft) NO 34 0 min 0,000 mm 0,7 UV-I 127 W/m 11,7 C 0,0 km/h (0 Bft)
02.08.2016 07:55 14,1 C 14,1 C 87 % 1018,5 hPa 0,0 mm 0,3 km/h (0 Bft) NO 34 0 min 0,000 mm 0,8 UV-I 130 W/m 12,0 C 1,6 km/h (1 Bft)
02.08.2016 07:56 14,1 C 14,1 C 86 % 1018,5 hPa 0,0 mm 0,3 km/h (0 Bft) NO 34 0 min 0,000 mm 0,8 UV-I 142 W/m 11,8 C 1,6 km/h (1 Bft)
02.08.2016 07:57 14,1 C 14,1 C 87 % 1018,4 hPa 0,0 mm 0,3 km/h (0 Bft) NO 34 0 min 0,000 mm 0,8 UV-I 139 W/m 12,0 C 1,6 km/h (1 Bft)
02.08.2016 07:58 14,1 C 14,1 C 86 % 1018,5 hPa 0,0 mm 0,1 km/h (0 Bft) NO 34 0 min 0,000 mm 0,8 UV-I 141 W/m 11,8 C 1,6 km/h (1 Bft)
02.08.2016 07:59 14,1 C 14,1 C 84 % 1018,5 hPa 0,0 mm 1,0 km/h (0 Bft) N 10 0 min 0,000 mm 0,8 UV-I 141 W/m 11,4 C 3,2 km/h (1 Bft)
02.08.2016 08:00 14,1 C 14,1 C 86 % 1018,4 hPa 0,0 mm 0,1 km/h (0 Bft) N 10 0 min 0,000 mm 0,8 UV-I 137 W/m 11,8 C 1,6 km/h (1 Bft)
02.08.2016 08:01 14,1 C 14,1 C 86 % 1018,4 hPa 0,0 mm 0,2 km/h (0 Bft) N 10 0 min 0,076 mm 0,8 UV-I 134 W/m 11,8 C 1,6 km/h (1 Bft)
02.08.2016 08:02 14,2 C 14,2 C 85 % 1018,4 hPa 0,0 mm 0,1 km/h (0 Bft) N 10 0 min 0,001 mm 0,8 UV-I 128 W/m 11,7 C 1,6 km/h (1 Bft)
02.08.2016 08:03 14,2 C 14,2 C 86 % 1018,4 hPa 0,0 mm 1,0 km/h (0 Bft) N 10 0 min 0,000 mm 0,8 UV-I 125 W/m 11,9 C 1,6 km/h (1 Bft)
02.08.2016 08:04 14,2 C 14,2 C 85 % 1018,4 hPa 0,0 mm 0,1 km/h (0 Bft) N 10 0 min 0,000 mm 0,8 UV-I 123 W/m 11,7 C 1,6 km/h (1 Bft)
02.08.2016 08:05 14,2 C 14,2 C 86 % 1018,5 hPa 0,0 mm 0,1 km/h (0 Bft) N 10 0 min 0,000 mm 0,8 UV-I 120 W/m 11,9 C 1,6 km/h (1 Bft)
02.08.2016 08:06 14,2 C 14,2 C 86 % 1018,5 hPa 0,0 mm 0,3 km/h (0 Bft) N 10 0 min 0,000 mm 0,8 UV-I 118 W/m 11,9 C 1,6 km/h (1 Bft)
02.08.2016 08:07 14,2 C 14,2 C 86 % 1018,5 hPa 0,0 mm 0,1 km/h (0 Bft) N 10 0 min 0,000 mm 0,8 UV-I 118 W/m 11,9 C 1,6 km/h (1 Bft)
02.08.2016 08:08 14,2 C 14,2 C 85 % 1018,5 hPa 0,0 mm 0,1 km/h (0 Bft) N 10 0 min 0,000 mm 0,8 UV-I 121 W/m 11,7 C 1,6 km/h (1 Bft)
02.08.2016 08:09 14,2 C 14,2 C 85 % 1018,4 hPa 0,0 mm 0,0 km/h (0 Bft) N 10 0 min 0,000 mm 0,8 UV-I 127 W/m 11,7 C 0,0 km/h (0 Bft)
02.08.2016 08:10 14,2 C 14,2 C 85 % 1018,5 hPa 0,0 mm 1,7 km/h (1 Bft) O-NO 78 0 min 0,000 mm 0,9 UV-I 132 W/m 11,7 C 3,2 km/h (1 Bft)
02.08.2016 08:11 14,2 C 14,2 C 86 % 1018,5 hPa 0,0 mm 1,3 km/h (1 Bft) O-NO 78 0 min 0,000 mm 0,9 UV-I 137 W/m 11,9 C 3,2 km/h (1 Bft)
02.08.2016 08:12 14,2 C 14,2 C 85 % 1018,4 hPa 0,0 mm 1,0 km/h (0 Bft) O-NO 77 0 min 0,000 mm 0,9 UV-I 142 W/m 11,7 C 1,6 km/h (1 Bft)
02.08.2016 08:13 14,2 C 14,2 C 85 % 1018,4 hPa 0,0 mm 0,7 km/h (0 Bft) O-NO 78 0 min 0,000 mm 0,9 UV-I 155 W/m 11,7 C 1,6 km/h (1 Bft)
02.08.2016 08:14 14,2 C 14,2 C 83 % 1018,5 hPa 0,0 mm 0,0 km/h (0 Bft) O-NO 78 0 min 0,000 mm 1,0 UV-I 162 W/m 11,4 C 0,0 km/h (0 Bft)
02.08.2016 08:15 14,3 C 14,3 C 85 % 1018,4 hPa 0,0 mm 0,0 km/h (0 Bft) O-NO 78 0 min 0,000 mm 1,0 UV-I 167 W/m 11,8 C 0,0 km/h (0 Bft)
02.08.2016 08:16 14,3 C 14,3 C 86 % 1018,4 hPa 0,0 mm 0,3 km/h (0 Bft) O-NO 78 0 min 0,000 mm 1,1 UV-I 178 W/m 12,0 C 1,6 km/h (1 Bft)
02.08.2016 08:17 14,3 C 14,3 C 85 % 1018,4 hPa 0,0 mm 2,5 km/h (1 Bft) O-NO 78 0 min 0,000 mm 1,1 UV-I 195 W/m 11,8 C 3,2 km/h (1 Bft)
02.08.2016 08:18 14,3 C 14,3 C 85 % 1018,4 hPa 0,0 mm 0,9 km/h (0 Bft) O-NO 78 1 min 0,000 mm 1,2 UV-I 229 W/m 11,8 C 3,2 km/h (1 Bft)
02.08.2016 08:19 14,4 C 14,4 C 85 % 1018,4 hPa 0,0 mm 0,5 km/h (0 Bft) O-NO 78 1 min 0,000 mm 1,2 UV-I 218 W/m 11,9 C 1,6 km/h (1 Bft)
02.08.2016 08:20 14,6 C 14,6 C 85 % 1018,4 hPa 0,0 mm 0,8 km/h (0 Bft) O-NO 78 0 min 0,000 mm 1,1 UV-I 197 W/m 12,1 C 1,6 km/h (1 Bft)
02.08.2016 08:21 14,6 C 14,6 C 85 % 1018,4 hPa 0,0 mm 0,0 km/h (0 Bft) O-NO 78 0 min 0,000 mm 1,1 UV-I 186 W/m 12,1 C 0,0 km/h (0 Bft)
02.08.2016 08:22 14,7 C 14,7 C 84 % 1018,4 hPa 0,0 mm 0,7 km/h (0 Bft) O-NO 78 0 min 0,000 mm 1,1 UV-I 186 W/m 12,0 C 1,6 km/h (1 Bft)
02.08.2016 08:23 14,8 C 14,8 C 84 % 1018,4 hPa 0,0 mm 2,0 km/h (1 Bft) O-NO 78 0 min 0,000 mm 1,0 UV-I 178 W/m 12,1 C 3,2 km/h (1 Bft)
02.08.2016 08:24 14,8 C 14,8 C 85 % 1018,4 hPa 0,0 mm 2,2 km/h (1 Bft) NW 319 0 min 0,000 mm 1,0 UV-I 174 W/m 12,3 C 4,8 km/h (1 Bft)
02.08.2016 08:25 14,8 C 14,8 C 85 % 1018,4 hPa 0,0 mm 1,7 km/h (1 Bft) W-NW 299 0 min 0,000 mm 1,0 UV-I 181 W/m 12,3 C 3,2 km/h (1 Bft)
02.08.2016 08:26 14,9 C 14,9 C 85 % 1018,4 hPa 0,0 mm 0,1 km/h (0 Bft) W-NW 299 0 min 0,000 mm 1,0 UV-I 181 W/m 12,4 C 1,6 km/h (1 Bft)
02.08.2016 08:27 14,9 C 14,9 C 84 % 1018,5 hPa 0,0 mm 0,4 km/h (0 Bft) W-NW 299 0 min 0,000 mm 1,1 UV-I 197 W/m 12,2 C 3,2 km/h (1 Bft)
02.08.2016 08:28 15,1 C 15,1 C 85 % 1018,5 hPa 0,0 mm 1,8 km/h (1 Bft) W-NW 302 0 min 0,000 mm 1,0 UV-I 169 W/m 12,6 C 3,2 km/h (1 Bft)
02.08.2016 08:29 15,1 C 15,1 C 84 % 1018,5 hPa 0,0 mm 1,1 km/h (1 Bft) W-NW 302 0 min 0,000 mm 1,0 UV-I 172 W/m 12,4 C 3,2 km/h (1 Bft)
02.08.2016 08:30 15,1 C 15,1 C 83 % 1018,5 hPa 0,0 mm 1,1 km/h (1 Bft) S-SW 192 0 min 0,000 mm 1,0 UV-I 141 W/m 12,2 C 1,6 km/h (1 Bft)
02.08.2016 08:31 15,0 C 15,1 C 82 % 1018,5 hPa 0,0 mm 0,3 km/h (0 Bft) S-SW 192 0 min 0,000 mm 0,9 UV-I 120 W/m 12,0 C 1,6 km/h (1 Bft)
02.08.2016 08:32 14,9 C 15,0 C 83 % 1018,5 hPa 0,0 mm 1,2 km/h (1 Bft) S-SW 192 0 min 0,000 mm 1,0 UV-I 120 W/m 12,0 C 1,6 km/h (1 Bft)
02.08.2016 08:33 14,9 C 14,9 C 82 % 1018,5 hPa 0,0 mm 0,5 km/h (0 Bft) S-SW 192 0 min 0,000 mm 1,0 UV-I 121 W/m 11,9 C 1,6 km/h (1 Bft)
02.08.2016 08:34 14,8 C 14,9 C 85 % 1018,5 hPa 0,0 mm 0,0 km/h (0 Bft) S-SW 192 0 min 0,000 mm 1,0 UV-I 125 W/m 12,3 C 0,0 km/h (0 Bft)
02.08.2016 08:35 14,8 C 14,9 C 85 % 1018,5 hPa 0,0 mm 2,5 km/h (1 Bft) W 280 0 min 0,000 mm 1,1 UV-I 132 W/m 12,3 C 4,8 km/h (1 Bft)
02.08.2016 08:36 14,8 C 14,8 C 85 % 1018,5 hPa 0,0 mm 2,5 km/h (1 Bft) W 261 0 min 0,000 mm 1,2 UV-I 141 W/m 12,3 C 4,8 km/h (1 Bft)
02.08.2016 08:37 14,8 C 14,9 C 85 % 1018,5 hPa 0,0 mm 1,3 km/h (1 Bft) S-SW 213 0 min 0,000 mm 1,2 UV-I 163 W/m 12,3 C 3,2 km/h (1 Bft)
02.08.2016 08:38 14,9 C 14,9 C 83 % 1018,6 hPa 0,0 mm 0,9 km/h (0 Bft) S-SW 213 0 min 0,000 mm 1,3 UV-I 176 W/m 12,0 C 1,6 km/h (1 Bft)
02.08.2016 08:39 14,9 C 14,9 C 82 % 1018,5 hPa 0,0 mm 1,1 km/h (1 Bft) SW 214 0 min 0,000 mm 1,4 UV-I 197 W/m 11,9 C 3,2 km/h (1 Bft)
02.08.2016 08:40 14,9 C 14,9 C 83 % 1018,5 hPa 0,0 mm 0,0 km/h (0 Bft) SW 214 0 min 0,000 mm 1,5 UV-I 230 W/m 12,0 C 0,0 km/h (0 Bft)
02.08.2016 08:41 14,9 C 14,9 C 85 % 1018,6 hPa 0,0 mm 0,1 km/h (0 Bft) SW 214 1 min 0,000 mm 1,6 UV-I 257 W/m 12,4 C 1,6 km/h (1 Bft)
02.08.2016 08:42 15,0 C 15,0 C 86 % 1018,6 hPa 0,0 mm 0,1 km/h (0 Bft) SW 214 1 min 0,000 mm 1,8 UV-I 366 W/m 12,7 C 1,6 km/h (1 Bft)
02.08.2016 08:43 15,1 C 15,1 C 85 % 1018,6 hPa 0,0 mm 0,1 km/h (0 Bft) SW 214 1 min 0,000 mm 1,9 UV-I 394 W/m 12,6 C 1,6 km/h (1 Bft)
02.08.2016 08:44 15,3 C 15,3 C 85 % 1018,6 hPa 0,0 mm 1,9 km/h (1 Bft) W-SW 257 1 min 0,000 mm 1,8 UV-I 364 W/m 12,8 C 4,8 km/h (1 Bft)
02.08.2016 08:45 15,4 C 15,4 C 84 % 1018,6 hPa 0,0 mm 1,3 km/h (1 Bft) W-SW 257 1 min 0,000 mm 1,9 UV-I 387 W/m 12,7 C 1,6 km/h (1 Bft)
02.08.2016 08:46 15,5 C 15,5 C 85 % 1018,6 hPa 0,0 mm 0,9 km/h (0 Bft) S 185 1 min 0,000 mm 1,8 UV-I 378 W/m 13,0 C 1,6 km/h (1 Bft)
02.08.2016 08:47 15,5 C 15,5 C 82 % 1018,6 hPa 0,0 mm 1,2 km/h (1 Bft) S 185 1 min 0,000 mm 1,7 UV-I 308 W/m 12,4 C 1,6 km/h (1 Bft)
02.08.2016 08:48 15,6 C 15,6 C 82 % 1018,6 hPa 0,0 mm 0,1 km/h (0 Bft) S 185 1 min 0,000 mm 1,7 UV-I 302 W/m 12,5 C 1,6 km/h (1 Bft)
02.08.2016 08:49 15,6 C 15,6 C 83 % 1018,5 hPa 0,0 mm 0,8 km/h (0 Bft) S 185 0 min 0,000 mm 1,4 UV-I 229 W/m 12,7 C 1,6 km/h (1 Bft)
02.08.2016 08:50 15,6 C 15,6 C 81 % 1018,6 hPa 0,0 mm 0,5 km/h (0 Bft) S 185 0 min 0,000 mm 1,3 UV-I 190 W/m 12,3 C 1,6 km/h (1 Bft)
02.08.2016 08:51 15,8 C 15,8 C 83 % 1018,6 hPa 0,0 mm 3,3 km/h (1 Bft) W-NW 283 0 min 0,000 mm 1,3 UV-I 185 W/m 12,9 C 4,8 km/h (1 Bft)
02.08.2016 08:52 15,9 C 15,9 C 81 % 1018,5 hPa 0,0 mm 4,0 km/h (1 Bft) NW 305 0 min 0,000 mm 1,3 UV-I 185 W/m 12,6 C 4,8 km/h (1 Bft)
02.08.2016 08:53 15,9 C 16,0 C 82 % 1018,6 hPa 0,0 mm 1,5 km/h (1 Bft) NO 53 0 min 0,000 mm 1,3 UV-I 193 W/m 12,8 C 3,2 km/h (1 Bft)
02.08.2016 08:54 15,9 C 16,0 C 81 % 1018,6 hPa 0,0 mm 2,7 km/h (1 Bft) NO 53 0 min 0,000 mm 1,4 UV-I 202 W/m 12,6 C 3,2 km/h (1 Bft)
02.08.2016 08:55 15,9 C 15,9 C 85 % 1018,5 hPa 0,0 mm 0,8 km/h (0 Bft) NO 53 0 min 0,000 mm 1,5 UV-I 207 W/m 13,4 C 1,6 km/h (1 Bft)
02.08.2016 08:56 15,8 C 15,9 C 81 % 1018,5 hPa 0,0 mm 0,1 km/h (0 Bft) NO 53 0 min 0,000 mm 1,5 UV-I 214 W/m 12,5 C 1,6 km/h (1 Bft)
02.08.2016 08:57 15,8 C 15,8 C 81 % 1018,5 hPa 0,0 mm 0,4 km/h (0 Bft) NO 53 0 min 0,000 mm 1,5 UV-I 221 W/m 12,5 C 1,6 km/h (1 Bft)
02.08.2016 08:58 15,9 C 15,9 C 80 % 1018,5 hPa 0,0 mm 2,3 km/h (1 Bft) W-SW 245 0 min 0,000 mm 1,5 UV-I 227 W/m 12,5 C 3,2 km/h (1 Bft)
02.08.2016 08:59 16,0 C 16,0 C 82 % 1018,5 hPa 0,0 mm 3,6 km/h (1 Bft) W-NW 290 0 min 0,000 mm 1,6 UV-I 239 W/m 12,9 C 4,8 km/h (1 Bft)
02.08.2016 09:00 16,1 C 16,1 C 82 % 1018,5 hPa 0,0 mm 3,0 km/h (1 Bft) W 280 0 min 0,000 mm 1,7 UV-I 264 W/m 13,0 C 3,2 km/h (1 Bft)
02.08.2016 09:01 16,2 C 16,2 C 80 % 1018,5 hPa 0,0 mm 3,5 km/h (1 Bft) W-SW 257 0 min 0,101 mm 1,6 UV-I 255 W/m 12,7 C 4,8 km/h (1 Bft)
02.08.2016 09:02 16,3 C 16,3 C 81 % 1018,5 hPa 0,0 mm 3,4 km/h (1 Bft) W-NW 290 0 min 0,000 mm 1,5 UV-I 230 W/m 13,0 C 4,8 km/h (1 Bft)
02.08.2016 09:03 16,3 C 16,3 C 78 % 1018,5 hPa 0,0 mm 1,6 km/h (1 Bft) W-NW 290 1 min 0,000 mm 1,6 UV-I 276 W/m 12,5 C 3,2 km/h (1 Bft)
02.08.2016 09:04 16,4 C 16,4 C 77 % 1018,5 hPa 0,0 mm 2,2 km/h (1 Bft) W-SW 244 0 min 0,000 mm 1,5 UV-I 265 W/m 12,4 C 3,2 km/h (1 Bft)
02.08.2016 09:05 16,4 C 16,4 C 77 % 1018,5 hPa 0,0 mm 1,2 km/h (1 Bft) W-SW 244 0 min 0,000 mm 1,4 UV-I 227 W/m 12,4 C 3,2 km/h (1 Bft)
02.08.2016 09:06 16,4 C 16,4 C 79 % 1018,5 hPa 0,0 mm 3,3 km/h (1 Bft) W-SW 257 0 min 0,000 mm 1,3 UV-I 181 W/m 12,7 C 6,4 km/h (2 Bft)
02.08.2016 09:07 16,4 C 16,4 C 77 % 1018,5 hPa 0,0 mm 2,1 km/h (1 Bft) W-SW 238 0 min 0,000 mm 1,3 UV-I 179 W/m 12,4 C 3,2 km/h (1 Bft)
02.08.2016 09:08 16,5 C 16,5 C 80 % 1018,5 hPa 0,0 mm 2,3 km/h (1 Bft) W-SW 248 0 min 0,000 mm 1,4 UV-I 181 W/m 13,0 C 3,2 km/h (1 Bft)
02.08.2016 09:09 16,4 C 16,5 C 80 % 1018,5 hPa 0,0 mm 0,7 km/h (0 Bft) S-SW 209 0 min 0,000 mm 1,4 UV-I 185 W/m 12,9 C 1,6 km/h (1 Bft)
02.08.2016 09:10 16,4 C 16,4 C 82 % 1018,5 hPa 0,0 mm 1,3 km/h (1 Bft) S-SW 209 0 min 0,000 mm 1,5 UV-I 190 W/m 13,3 C 3,2 km/h (1 Bft)
02.08.2016 09:11 16,3 C 16,4 C 81 % 1018,5 hPa 0,0 mm 0,1 km/h (0 Bft) S-SW 209 0 min 0,000 mm 1,5 UV-I 197 W/m 13,0 C 1,6 km/h (1 Bft)
02.08.2016 09:12 16,3 C 16,3 C 81 % 1018,5 hPa 0,0 mm 1,1 km/h (1 Bft) S-SW 209 0 min 0,000 mm 1,6 UV-I 211 W/m 13,0 C 1,6 km/h (1 Bft)
02.08.2016 09:13 16,4 C 16,4 C 82 % 1018,5 hPa 0,0 mm 0,8 km/h (0 Bft) S-SW 209 0 min 0,000 mm 1,7 UV-I 211 W/m 13,3 C 1,6 km/h (1 Bft)
02.08.2016 09:14 16,4 C 16,4 C 81 % 1018,5 hPa 0,0 mm 0,3 km/h (0 Bft) S-SW 210 0 min 0,000 mm 1,7 UV-I 230 W/m 13,1 C 1,6 km/h (1 Bft)
02.08.2016 09:15 16,6 C 16,6 C 82 % 1018,6 hPa 0,0 mm 1,1 km/h (1 Bft) SW 229 0 min 0,000 mm 1,8 UV-I 246 W/m 13,5 C 3,2 km/h (1 Bft)
02.08.2016 09:16 16,6 C 16,6 C 80 % 1018,5 hPa 0,0 mm 2,1 km/h (1 Bft) W-SW 246 0 min 0,000 mm 1,8 UV-I 264 W/m 13,1 C 4,8 km/h (1 Bft)
02.08.2016 09:17 16,6 C 16,6 C 77 % 1018,5 hPa 0,0 mm 2,4 km/h (1 Bft) W-SW 246 1 min 0,000 mm 1,8 UV-I 313 W/m 12,5 C 3,2 km/h (1 Bft)
02.08.2016 09:18 16,6 C 16,6 C 78 % 1018,5 hPa 0,0 mm 2,7 km/h (1 Bft) S-SW 203 0 min 0,000 mm 1,9 UV-I 271 W/m 12,7 C 4,8 km/h (1 Bft)
02.08.2016 09:19 16,7 C 16,7 C 78 % 1018,5 hPa 0,0 mm 1,7 km/h (1 Bft) S-SW 204 0 min 0,000 mm 1,8 UV-I 265 W/m 12,8 C 3,2 km/h (1 Bft)
02.08.2016 09:20 16,7 C 16,7 C 77 % 1018,5 hPa 0,0 mm 0,5 km/h (0 Bft) S-SW 204 0 min 0,000 mm 1,7 UV-I 246 W/m 12,6 C 1,6 km/h (1 Bft)
02.08.2016 09:21 16,8 C 16,8 C 81 % 1018,5 hPa 0,0 mm 0,4 km/h (0 Bft) S-SW 204 0 min 0,000 mm 1,7 UV-I 250 W/m 13,5 C 1,6 km/h (1 Bft)
02.08.2016 09:22 16,8 C 16,8 C 79 % 1018,5 hPa 0,0 mm 1,8 km/h (1 Bft) S-SW 213 0 min 0,000 mm 1,7 UV-I 262 W/m 13,1 C 3,2 km/h (1 Bft)
02.08.2016 09:23 16,9 C 16,9 C 81 % 1018,6 hPa 0,0 mm 1,0 km/h (0 Bft) S-SW 213 0 min 0,000 mm 1,6 UV-I 216 W/m 13,6 C 1,6 km/h (1 Bft)
02.08.2016 09:24 16,9 C 16,9 C 80 % 1018,6 hPa 0,0 mm 0,4 km/h (0 Bft) S-SW 213 0 min 0,000 mm 1,6 UV-I 204 W/m 13,4 C 1,6 km/h (1 Bft)
02.08.2016 09:25 16,9 C 16,9 C 81 % 1018,6 hPa 0,0 mm 0,1 km/h (0 Bft) S-SW 213 0 min 0,000 mm 1,5 UV-I 199 W/m 13,6 C 1,6 km/h (1 Bft)
02.08.2016 09:26 16,8 C 16,9 C 82 % 1018,6 hPa 0,0 mm 0,0 km/h (0 Bft) S-SW 213 0 min 0,000 mm 1,6 UV-I 199 W/m 13,7 C 0,0 km/h (0 Bft)
02.08.2016 09:27 16,7 C 16,8 C 81 % 1018,6 hPa 0,0 mm 0,0 km/h (0 Bft) S-SW 213 0 min 0,000 mm 1,6 UV-I 199 W/m 13,4 C 0,0 km/h (0 Bft)
02.08.2016 09:28 16,7 C 16,7 C 82 % 1018,6 hPa 0,0 mm 0,1 km/h (0 Bft) S-SW 213 0 min 0,000 mm 1,6 UV-I 199 W/m 13,6 C 1,6 km/h (1 Bft)
02.08.2016 09:29 16,7 C 16,7 C 78 % 1018,6 hPa 0,0 mm 0,4 km/h (0 Bft) S-SW 213 0 min 0,000 mm 1,6 UV-I 199 W/m 12,8 C 1,6 km/h (1 Bft)
02.08.2016 09:30 16,6 C 16,7 C 80 % 1018,6 hPa 0,0 mm 0,2 km/h (0 Bft) S-SW 213 0 min 0,000 mm 1,6 UV-I 197 W/m 13,1 C 1,6 km/h (1 Bft)
02.08.2016 09:31 16,5 C 16,6 C 80 % 1018,6 hPa 0,0 mm 0,7 km/h (0 Bft) S-SW 213 0 min 0,000 mm 1,6 UV-I 197 W/m 13,0 C 1,6 km/h (1 Bft)
02.08.2016 09:32 16,4 C 16,5 C 80 % 1018,6 hPa 0,0 mm 0,8 km/h (0 Bft) S-SW 212 0 min 0,000 mm 1,6 UV-I 195 W/m 12,9 C 1,6 km/h (1 Bft)
02.08.2016 09:33 16,4 C 16,4 C 84 % 1018,6 hPa 0,0 mm 0,5 km/h (0 Bft) S-SW 212 0 min 0,000 mm 1,6 UV-I 197 W/m 13,7 C 1,6 km/h (1 Bft)
02.08.2016 09:34 16,6 C 16,6 C 84 % 1018,6 hPa 0,0 mm 0,7 km/h (0 Bft) S-SW 212 0 min 0,000 mm 1,6 UV-I 179 W/m 13,9 C 1,6 km/h (1 Bft)
02.08.2016 09:35 16,5 C 16,6 C 83 % 1018,6 hPa 0,0 mm 0,5 km/h (0 Bft) S-SW 212 0 min 0,000 mm 1,6 UV-I 181 W/m 13,6 C 1,6 km/h (1 Bft)
02.08.2016 09:36 16,4 C 16,5 C 82 % 1018,6 hPa 0,0 mm 0,1 km/h (0 Bft) S-SW 212 0 min 0,000 mm 1,7 UV-I 186 W/m 13,3 C 1,6 km/h (1 Bft)
02.08.2016 09:37 16,4 C 16,4 C 82 % 1018,6 hPa 0,0 mm 0,9 km/h (0 Bft) S-SW 212 0 min 0,000 mm 1,8 UV-I 195 W/m 13,3 C 1,6 km/h (1 Bft)
02.08.2016 09:38 16,4 C 16,4 C 81 % 1018,5 hPa 0,0 mm 0,1 km/h (0 Bft) S-SW 212 0 min 0,000 mm 1,8 UV-I 206 W/m 13,1 C 1,6 km/h (1 Bft)
02.08.2016 09:39 16,4 C 16,4 C 81 % 1018,5 hPa 0,0 mm 0,1 km/h (0 Bft) S-SW 212 0 min 0,000 mm 1,9 UV-I 220 W/m 13,1 C 1,6 km/h (1 Bft)
02.08.2016 09:40 16,4 C 16,4 C 81 % 1018,5 hPa 0,0 mm 0,0 km/h (0 Bft) S-SW 212 0 min 0,000 mm 1,9 UV-I 225 W/m 13,1 C 0,0 km/h (0 Bft)
02.08.2016 09:41 16,4 C 16,4 C 82 % 1018,5 hPa 0,0 mm 0,3 km/h (0 Bft) S-SW 212 0 min 0,000 mm 1,9 UV-I 227 W/m 13,3 C 1,6 km/h (1 Bft)
02.08.2016 09:42 16,4 C 16,4 C 82 % 1018,5 hPa 0,0 mm 0,0 km/h (0 Bft) S-SW 212 0 min 0,000 mm 1,9 UV-I 225 W/m 13,3 C 0,0 km/h (0 Bft)
02.08.2016 09:43 16,4 C 16,4 C 81 % 1018,5 hPa 0,0 mm 0,0 km/h (0 Bft) S-SW 212 0 min 0,000 mm 1,9 UV-I 225 W/m 13,1 C 0,0 km/h (0 Bft)
02.08.2016 09:44 16,4 C 16,4 C 80 % 1018,5 hPa 0,0 mm 0,0 km/h (0 Bft) S-SW 212 0 min 0,000 mm 1,9 UV-I 229 W/m 12,9 C 0,0 km/h (0 Bft)
02.08.2016 09:45 16,5 C 16,5 C 80 % 1018,5 hPa 0,0 mm 0,1 km/h (0 Bft) S-SW 212 0 min 0,000 mm 1,9 UV-I 229 W/m 13,0 C 1,6 km/h (1 Bft)
02.08.2016 09:46 16,5 C 16,5 C 79 % 1018,5 hPa 0,0 mm 0,7 km/h (0 Bft) S-SW 212 0 min 0,000 mm 1,9 UV-I 218 W/m 12,8 C 1,6 km/h (1 Bft)
02.08.2016 09:47 16,6 C 16,6 C 80 % 1018,5 hPa 0,0 mm 0,9 km/h (0 Bft) S-SW 212 0 min 0,000 mm 1,8 UV-I 200 W/m 13,1 C 1,6 km/h (1 Bft)
02.08.2016 09:48 16,6 C 16,6 C 81 % 1018,5 hPa 0,0 mm 1,7 km/h (1 Bft) S-SW 211 0 min 0,000 mm 1,9 UV-I 204 W/m 13,3 C 4,8 km/h (1 Bft)
02.08.2016 09:49 16,6 C 16,6 C 79 % 1018,5 hPa 0,0 mm 0,0 km/h (0 Bft) S-SW 211 0 min 0,000 mm 2,0 UV-I 221 W/m 12,9 C 0,0 km/h (0 Bft)
02.08.2016 09:50 16,6 C 16,6 C 81 % 1018,5 hPa 0,0 mm 0,7 km/h (0 Bft) S-SW 211 0 min 0,000 mm 2,2 UV-I 260 W/m 13,3 C 3,2 km/h (1 Bft)
02.08.2016 09:51 16,8 C 16,8 C 81 % 1018,5 hPa 0,0 mm 0,7 km/h (0 Bft) S-SW 211 0 min 0,000 mm 2,3 UV-I 271 W/m 13,5 C 1,6 km/h (1 Bft)
02.08.2016 09:52 16,8 C 16,8 C 81 % 1018,5 hPa 0,0 mm 1,6 km/h (1 Bft) SW 215 0 min 0,000 mm 2,5 UV-I 302 W/m 13,5 C 3,2 km/h (1 Bft)
02.08.2016 09:53 16,8 C 16,8 C 78 % 1018,5 hPa 0,0 mm 0,7 km/h (0 Bft) SW 215 1 min 0,000 mm 2,7 UV-I 376 W/m 12,9 C 1,6 km/h (1 Bft)
02.08.2016 09:54 16,8 C 16,8 C 78 % 1018,5 hPa 0,0 mm 1,1 km/h (1 Bft) SW 215 1 min 0,000 mm 2,7 UV-I 366 W/m 12,9 C 3,2 km/h (1 Bft)
02.08.2016 09:55 16,9 C 16,9 C 77 % 1018,5 hPa 0,0 mm 0,1 km/h (0 Bft) SW 215 1 min 0,000 mm 2,7 UV-I 362 W/m 12,8 C 1,6 km/h (1 Bft)
02.08.2016 09:56 17,0 C 17,0 C 79 % 1018,5 hPa 0,0 mm 0,2 km/h (0 Bft) SW 215 1 min 0,000 mm 2,8 UV-I 371 W/m 13,3 C 1,6 km/h (1 Bft)
02.08.2016 09:57 17,2 C 17,2 C 76 % 1018,5 hPa 0,0 mm 2,0 km/h (1 Bft) SW 215 1 min 0,000 mm 2,9 UV-I 396 W/m 12,9 C 3,2 km/h (1 Bft)
02.08.2016 09:58 17,3 C 17,3 C 74 % 1018,5 hPa 0,0 mm 1,7 km/h (1 Bft) SW 215 1 min 0,000 mm 3,0 UV-I 427 W/m 12,6 C 3,2 km/h (1 Bft)
02.08.2016 09:59 17,5 C 17,5 C 77 % 1018,5 hPa 0,0 mm 2,6 km/h (1 Bft) W-SW 243 1 min 0,000 mm 3,0 UV-I 406 W/m 13,4 C 3,2 km/h (1 Bft)
02.08.2016 10:00 17,7 C 17,7 C 76 % 1018,5 hPa 0,0 mm 2,6 km/h (1 Bft) W-SW 251 1 min 0,000 mm 2,8 UV-I 366 W/m 13,4 C 3,2 km/h (1 Bft)
02.08.2016 10:01 17,8 C 17,8 C 77 % 1018,5 hPa 0,0 mm 4,5 km/h (1 Bft) W 259 1 min 0,127 mm 2,8 UV-I 343 W/m 13,7 C 6,4 km/h (2 Bft)
02.08.2016 10:02 17,9 C 17,9 C 73 % 1018,5 hPa 0,0 mm 4,2 km/h (1 Bft) W-SW 248 1 min 0,000 mm 2,9 UV-I 355 W/m 13,0 C 6,4 km/h (2 Bft)
02.08.2016 10:03 17,9 C 17,9 C 76 % 1018,5 hPa 0,0 mm 1,3 km/h (1 Bft) W-SW 249 1 min 0,000 mm 3,0 UV-I 381 W/m 13,6 C 3,2 km/h (1 Bft)
02.08.2016 10:04 18,0 C 18,0 C 74 % 1018,4 hPa 0,0 mm 0,9 km/h (0 Bft) W-SW 244 1 min 0,000 mm 3,2 UV-I 434 W/m 13,3 C 1,6 km/h (1 Bft)
02.08.2016 10:05 18,1 C 18,1 C 71 % 1018,5 hPa 0,0 mm 2,6 km/h (1 Bft) W 272 1 min 0,000 mm 3,1 UV-I 413 W/m 12,8 C 4,8 km/h (1 Bft)
02.08.2016 10:06 18,1 C 18,1 C 71 % 1018,5 hPa 0,0 mm 5,5 km/h (1 Bft) W-SW 239 1 min 0,000 mm 3,1 UV-I 406 W/m 12,8 C 6,4 km/h (2 Bft)
02.08.2016 10:07 18,1 C 18,1 C 71 % 1018,5 hPa 0,0 mm 5,2 km/h (1 Bft) W 261 1 min 0,000 mm 3,1 UV-I 397 W/m 12,8 C 6,4 km/h (2 Bft)
02.08.2016 10:08 18,2 C 18,2 C 77 % 1018,5 hPa 0,0 mm 4,2 km/h (1 Bft) SW 227 1 min 0,000 mm 3,1 UV-I 392 W/m 14,1 C 6,4 km/h (2 Bft)
02.08.2016 10:09 18,2 C 18,2 C 73 % 1018,4 hPa 0,0 mm 5,0 km/h (1 Bft) SW 228 1 min 0,000 mm 3,1 UV-I 394 W/m 13,3 C 8,0 km/h (2 Bft)
02.08.2016 10:10 18,2 C 18,2 C 71 % 1018,4 hPa 0,0 mm 5,2 km/h (1 Bft) SW 231 1 min 0,000 mm 3,1 UV-I 401 W/m 12,9 C 6,4 km/h (2 Bft)
02.08.2016 10:11 18,3 C 18,3 C 68 % 1018,4 hPa 0,0 mm 4,4 km/h (1 Bft) W-SW 248 1 min 0,000 mm 3,0 UV-I 374 W/m 12,3 C 6,4 km/h (2 Bft)
02.08.2016 10:12 18,3 C 18,3 C 71 % 1018,4 hPa 0,0 mm 3,4 km/h (1 Bft) W-SW 238 1 min 0,000 mm 3,0 UV-I 376 W/m 12,9 C 4,8 km/h (1 Bft)
02.08.2016 10:13 18,3 C 18,3 C 72 % 1018,5 hPa 0,0 mm 2,6 km/h (1 Bft) W-SW 244 1 min 0,000 mm 3,0 UV-I 385 W/m 13,2 C 4,8 km/h (1 Bft)
02.08.2016 10:14 18,4 C 18,4 C 71 % 1018,5 hPa 0,0 mm 1,9 km/h (1 Bft) W-SW 241 1 min 0,000 mm 2,9 UV-I 373 W/m 13,0 C 3,2 km/h (1 Bft)
02.08.2016 10:15 18,4 C 18,4 C 70 % 1018,4 hPa 0,0 mm 1,0 km/h (0 Bft) W 267 1 min 0,000 mm 2,9 UV-I 366 W/m 12,8 C 1,6 km/h (1 Bft)
02.08.2016 10:16 18,4 C 18,4 C 71 % 1018,4 hPa 0,0 mm 2,4 km/h (1 Bft) W 267 0 min 0,000 mm 2,8 UV-I 345 W/m 13,0 C 3,2 km/h (1 Bft)
02.08.2016 10:17 18,4 C 18,4 C 67 % 1018,4 hPa 0,0 mm 3,0 km/h (1 Bft) W 262 0 min 0,000 mm 2,7 UV-I 336 W/m 12,2 C 4,8 km/h (1 Bft)
02.08.2016 10:18 18,5 C 18,5 C 73 % 1018,5 hPa 0,0 mm 3,6 km/h (1 Bft) W-SW 239 0 min 0,000 mm 2,7 UV-I 336 W/m 13,6 C 6,4 km/h (2 Bft)
02.08.2016 10:19 18,4 C 18,5 C 68 % 1018,4 hPa 0,0 mm 1,5 km/h (1 Bft) SW 229 0 min 0,000 mm 2,7 UV-I 330 W/m 12,4 C 3,2 km/h (1 Bft)
02.08.2016 10:20 18,4 C 18,4 C 70 % 1018,4 hPa 0,0 mm 2,7 km/h (1 Bft) W-SW 257 0 min 0,000 mm 2,6 UV-I 311 W/m 12,8 C 8,0 km/h (2 Bft)
02.08.2016 10:21 18,4 C 18,4 C 71 % 1018,3 hPa 0,0 mm 3,4 km/h (1 Bft) W 281 0 min 0,000 mm 2,6 UV-I 302 W/m 13,0 C 6,4 km/h (2 Bft)
02.08.2016 10:22 18,4 C 18,4 C 68 % 1018,4 hPa 0,0 mm 0,7 km/h (0 Bft) W 281 0 min 0,000 mm 2,6 UV-I 306 W/m 12,4 C 1,6 km/h (1 Bft)
02.08.2016 10:23 18,4 C 18,4 C 64 % 1018,4 hPa 0,0 mm 1,4 km/h (1 Bft) W-SW 257 0 min 0,000 mm 2,7 UV-I 309 W/m 11,5 C 4,8 km/h (1 Bft)
02.08.2016 10:24 18,4 C 18,4 C 68 % 1018,4 hPa 0,0 mm 5,4 km/h (1 Bft) W 261 0 min 0,000 mm 2,7 UV-I 311 W/m 12,4 C 9,7 km/h (2 Bft)
02.08.2016 10:25 18,4 C 18,4 C 69 % 1018,4 hPa 0,0 mm 4,7 km/h (1 Bft) W 273 0 min 0,000 mm 2,7 UV-I 313 W/m 12,6 C 9,7 km/h (2 Bft)
02.08.2016 10:26 18,4 C 18,4 C 68 % 1018,4 hPa 0,0 mm 4,9 km/h (1 Bft) W-SW 257 0 min 0,000 mm 2,8 UV-I 318 W/m 12,4 C 6,4 km/h (2 Bft)
02.08.2016 10:27 18,4 C 18,4 C 71 % 1018,4 hPa 0,0 mm 7,1 km/h (2 Bft) W-SW 241 0 min 0,000 mm 2,8 UV-I 323 W/m 13,0 C 12,9 km/h (3 Bft)
02.08.2016 10:28 18,3 C 18,4 C 65 % 1018,4 hPa 0,0 mm 1,8 km/h (1 Bft) W-SW 253 0 min 0,000 mm 2,8 UV-I 323 W/m 11,6 C 8,0 km/h (2 Bft)
02.08.2016 10:29 18,4 C 18,4 C 65 % 1018,4 hPa 0,0 mm 1,8 km/h (1 Bft) W 279 0 min 0,000 mm 2,8 UV-I 313 W/m 11,7 C 6,4 km/h (2 Bft)
02.08.2016 10:30 18,4 C 18,4 C 67 % 1018,3 hPa 0,0 mm 4,5 km/h (1 Bft) W-NW 290 0 min 0,000 mm 2,7 UV-I 306 W/m 12,2 C 6,4 km/h (2 Bft)
02.08.2016 10:31 18,4 C 18,4 C 70 % 1018,4 hPa 0,0 mm 3,4 km/h (1 Bft) W 276 0 min 0,000 mm 2,8 UV-I 304 W/m 12,8 C 4,8 km/h (1 Bft)
02.08.2016 10:32 18,4 C 18,4 C 68 % 1018,4 hPa 0,0 mm 6,1 km/h (2 Bft) W 277 0 min 0,000 mm 2,8 UV-I 308 W/m 12,4 C 11,3 km/h (2 Bft)
02.08.2016 10:33 18,4 C 18,4 C 65 % 1018,3 hPa 0,0 mm 10,7 km/h (2 Bft) W-NW 286 0 min 0,000 mm 2,8 UV-I 315 W/m 11,7 C 17,7 km/h (3 Bft)
02.08.2016 10:34 18,4 C 18,4 C 67 % 1018,3 hPa 0,0 mm 10,2 km/h (2 Bft) W-SW 250 0 min 0,000 mm 2,9 UV-I 332 W/m 12,2 C 16,1 km/h (3 Bft)
02.08.2016 10:35 18,4 C 18,4 C 65 % 1018,4 hPa 0,0 mm 6,4 km/h (2 Bft) S-SW 212 0 min 0,000 mm 3,0 UV-I 339 W/m 11,7 C 12,9 km/h (3 Bft)
02.08.2016 10:36 18,4 C 18,4 C 66 % 1018,3 hPa 0,0 mm 3,8 km/h (1 Bft) SW 236 0 min 0,000 mm 3,0 UV-I 345 W/m 11,9 C 6,4 km/h (2 Bft)
02.08.2016 10:37 18,4 C 18,4 C 66 % 1018,3 hPa 0,0 mm 1,7 km/h (1 Bft) SW 236 0 min 0,000 mm 3,1 UV-I 352 W/m 11,9 C 3,2 km/h (1 Bft)
02.08.2016 10:38 18,4 C 18,4 C 66 % 1018,3 hPa 0,0 mm 1,4 km/h (1 Bft) W-NW 286 0 min 0,000 mm 3,1 UV-I 364 W/m 11,9 C 3,2 km/h (1 Bft)
02.08.2016 10:39 18,4 C 18,4 C 64 % 1018,3 hPa 0,0 mm 4,8 km/h (1 Bft) W 278 1 min 0,000 mm 3,2 UV-I 396 W/m 11,5 C 8,0 km/h (2 Bft)
02.08.2016 10:40 18,4 C 18,4 C 66 % 1018,3 hPa 0,0 mm 5,1 km/h (1 Bft) W 265 1 min 0,000 mm 3,3 UV-I 424 W/m 11,9 C 11,3 km/h (2 Bft)
02.08.2016 10:41 18,6 C 18,6 C 67 % 1018,3 hPa 0,0 mm 10,4 km/h (2 Bft) W-SW 250 1 min 0,000 mm 3,7 UV-I 462 W/m 12,3 C 16,1 km/h (3 Bft)
02.08.2016 10:42 18,5 C 18,6 C 62 % 1018,3 hPa 0,0 mm 10,8 km/h (2 Bft) W-SW 243 1 min 0,000 mm 3,6 UV-I 469 W/m 11,1 C 16,1 km/h (3 Bft)
02.08.2016 10:43 18,5 C 18,6 C 63 % 1018,3 hPa 0,0 mm 7,9 km/h (2 Bft) W 271 1 min 0,000 mm 3,5 UV-I 434 W/m 11,3 C 14,5 km/h (3 Bft)
02.08.2016 10:44 18,5 C 18,6 C 66 % 1018,3 hPa 0,0 mm 5,5 km/h (1 Bft) W 260 1 min 0,000 mm 3,4 UV-I 408 W/m 12,0 C 9,7 km/h (2 Bft)
02.08.2016 10:45 18,5 C 18,6 C 65 % 1018,2 hPa 0,0 mm 5,6 km/h (1 Bft) NW 317 0 min 0,000 mm 3,2 UV-I 371 W/m 11,8 C 9,7 km/h (2 Bft)
02.08.2016 10:46 18,5 C 18,6 C 64 % 1018,2 hPa 0,0 mm 5,7 km/h (1 Bft) W 263 0 min 0,000 mm 3,1 UV-I 334 W/m 11,6 C 11,3 km/h (2 Bft)
02.08.2016 10:47 18,5 C 18,6 C 66 % 1018,3 hPa 0,0 mm 4,3 km/h (1 Bft) W 265 0 min 0,000 mm 3,2 UV-I 346 W/m 12,0 C 6,4 km/h (2 Bft)
02.08.2016 10:48 18,6 C 18,6 C 67 % 1018,2 hPa 0,0 mm 3,4 km/h (1 Bft) W 273 0 min 0,000 mm 3,4 UV-I 381 W/m 12,3 C 6,4 km/h (2 Bft)
02.08.2016 10:49 18,6 C 18,6 C 65 % 1018,2 hPa 0,0 mm 3,1 km/h (1 Bft) W-NW 302 1 min 0,000 mm 3,7 UV-I 422 W/m 11,9 C 4,8 km/h (1 Bft)
02.08.2016 10:50 18,6 C 18,6 C 61 % 1018,2 hPa 0,0 mm 2,4 km/h (1 Bft) W-SW 258 1 min 0,000 mm 3,8 UV-I 454 W/m 10,9 C 4,8 km/h (1 Bft)
02.08.2016 10:51 18,6 C 18,6 C 64 % 1018,2 hPa 0,0 mm 5,5 km/h (1 Bft) W 274 1 min 0,000 mm 4,1 UV-I 519 W/m 11,7 C 14,5 km/h (3 Bft)
02.08.2016 10:52 18,7 C 18,7 C 66 % 1018,2 hPa 0,0 mm 6,2 km/h (2 Bft) W-NW 289 1 min 0,000 mm 4,0 UV-I 490 W/m 12,2 C 14,5 km/h (3 Bft)
02.08.2016 10:53 18,7 C 18,7 C 64 % 1018,2 hPa 0,0 mm 3,2 km/h (1 Bft) NW 309 1 min 0,000 mm 3,9 UV-I 471 W/m 11,7 C 4,8 km/h (1 Bft)
02.08.2016 10:54 18,8 C 18,8 C 62 % 1018,2 hPa 0,0 mm 5,9 km/h (2 Bft) W 272 1 min 0,000 mm 4,1 UV-I 475 W/m 11,4 C 12,9 km/h (3 Bft)
02.08.2016 10:55 18,9 C 18,9 C 64 % 1018,2 hPa 0,0 mm 7,2 km/h (2 Bft) W 268 1 min 0,000 mm 4,4 UV-I 554 W/m 11,9 C 11,3 km/h (2 Bft)
02.08.2016 10:56 19,1 C 19,1 C 63 % 1018,3 hPa 0,0 mm 8,3 km/h (2 Bft) W-NW 291 1 min 0,000 mm 4,5 UV-I 610 W/m 11,9 C 14,5 km/h (3 Bft)
02.08.2016 10:57 19,1 C 19,1 C 63 % 1018,2 hPa 0,0 mm 6,8 km/h (2 Bft) W-NW 292 1 min 0,000 mm 4,3 UV-I 545 W/m 11,9 C 11,3 km/h (2 Bft)
02.08.2016 10:58 19,1 C 19,1 C 65 % 1018,3 hPa 0,0 mm 3,2 km/h (1 Bft) W-NW 299 1 min 0,000 mm 3,7 UV-I 462 W/m 12,4 C 6,4 km/h (2 Bft)
02.08.2016 10:59 19,1 C 19,2 C 62 % 1018,3 hPa 0,0 mm 4,8 km/h (1 Bft) W-SW 246 1 min 0,000 mm 3,5 UV-I 425 W/m 11,6 C 8,0 km/h (2 Bft)
02.08.2016 11:00 19,2 C 19,2 C 62 % 1018,3 hPa 0,0 mm 10,5 km/h (2 Bft) W 259 1 min 0,000 mm 3,5 UV-I 404 W/m 11,7 C 14,5 km/h (3 Bft)
02.08.2016 11:01 19,1 C 19,2 C 61 % 1018,2 hPa 0,0 mm 7,8 km/h (2 Bft) W-SW 241 1 min 0,229 mm 3,5 UV-I 408 W/m 11,4 C 12,9 km/h (3 Bft)
02.08.2016 11:02 19,1 C 19,1 C 64 % 1018,3 hPa 0,0 mm 4,9 km/h (1 Bft) W 263 1 min 0,000 mm 3,6 UV-I 427 W/m 12,1 C 6,4 km/h (2 Bft)
02.08.2016 11:03 19,1 C 19,1 C 64 % 1018,2 hPa 0,0 mm 5,6 km/h (1 Bft) W-NW 293 1 min 0,000 mm 3,8 UV-I 503 W/m 12,1 C 9,7 km/h (2 Bft)
02.08.2016 11:04 19,1 C 19,1 C 66 % 1018,2 hPa 0,0 mm 3,4 km/h (1 Bft) W-SW 254 1 min 0,000 mm 4,2 UV-I 522 W/m 12,6 C 4,8 km/h (1 Bft)
02.08.2016 11:05 19,2 C 19,2 C 63 % 1018,1 hPa 0,0 mm 6,1 km/h (2 Bft) W 265 1 min 0,000 mm 4,2 UV-I 519 W/m 12,0 C 11,3 km/h (2 Bft)
02.08.2016 11:06 19,2 C 19,2 C 64 % 1018,2 hPa 0,0 mm 5,9 km/h (2 Bft) W 277 1 min 0,000 mm 4,1 UV-I 504 W/m 12,2 C 11,3 km/h (2 Bft)
02.08.2016 11:07 19,3 C 19,3 C 63 % 1018,2 hPa 0,0 mm 9,2 km/h (2 Bft) NW 307 1 min 0,000 mm 4,1 UV-I 503 W/m 12,1 C 12,9 km/h (3 Bft)
02.08.2016 11:08 19,3 C 19,3 C 63 % 1018,2 hPa 0,0 mm 7,9 km/h (2 Bft) NW 317 1 min 0,000 mm 4,2 UV-I 527 W/m 12,1 C 12,9 km/h (3 Bft)
02.08.2016 11:09 19,3 C 19,3 C 61 % 1018,2 hPa 0,0 mm 9,0 km/h (2 Bft) W-NW 300 1 min 0,000 mm 4,5 UV-I 570 W/m 11,6 C 14,5 km/h (3 Bft)
02.08.2016 11:10 19,2 C 19,3 C 61 % 1018,2 hPa 0,0 mm 11,3 km/h (2 Bft) W 269 1 min 0,000 mm 4,0 UV-I 508 W/m 11,5 C 16,1 km/h (3 Bft)
02.08.2016 11:11 19,3 C 19,3 C 64 % 1018,2 hPa 0,0 mm 9,2 km/h (2 Bft) W 281 1 min 0,000 mm 3,9 UV-I 489 W/m 12,3 C 16,1 km/h (3 Bft)
02.08.2016 11:12 19,2 C 19,3 C 61 % 1018,2 hPa 0,0 mm 9,6 km/h (2 Bft) W 268 1 min 0,000 mm 3,8 UV-I 464 W/m 11,5 C 16,1 km/h (3 Bft)
02.08.2016 11:13 19,2 C 19,2 C 61 % 1018,2 hPa 0,0 mm 7,4 km/h (2 Bft) W-SW 251 1 min 0,000 mm 3,7 UV-I 448 W/m 11,5 C 11,3 km/h (2 Bft)
02.08.2016 11:14 19,2 C 19,2 C 64 % 1018,2 hPa 0,0 mm 10,1 km/h (2 Bft) W 263 1 min 0,000 mm 3,7 UV-I 438 W/m 12,2 C 17,7 km/h (3 Bft)
02.08.2016 11:15 19,2 C 19,2 C 60 % 1018,2 hPa 0,0 mm 6,1 km/h (2 Bft) W-NW 298 1 min 0,000 mm 3,7 UV-I 424 W/m 11,2 C 9,7 km/h (2 Bft)
02.08.2016 11:16 19,1 C 19,2 C 62 % 1018,2 hPa 0,0 mm 10,1 km/h (2 Bft) W-NW 298 1 min 0,000 mm 3,7 UV-I 424 W/m 11,6 C 17,7 km/h (3 Bft)
02.08.2016 11:17 19,2 C 19,2 C 61 % 1018,2 hPa 0,0 mm 10,1 km/h (2 Bft) NW 320 1 min 0,000 mm 3,7 UV-I 420 W/m 11,5 C 14,5 km/h (3 Bft)
02.08.2016 11:18 19,2 C 19,2 C 62 % 1018,2 hPa 0,0 mm 13,5 km/h (3 Bft) W 275 1 min 0,000 mm 3,8 UV-I 427 W/m 11,7 C 17,7 km/h (3 Bft)
02.08.2016 11:19 19,2 C 19,2 C 64 % 1018,2 hPa 0,0 mm 6,3 km/h (2 Bft) W-NW 283 1 min 0,000 mm 3,8 UV-I 443 W/m 12,2 C 12,9 km/h (3 Bft)
02.08.2016 11:20 19,2 C 19,2 C 65 % 1018,2 hPa 0,0 mm 7,9 km/h (2 Bft) NW 304 1 min 0,000 mm 3,8 UV-I 427 W/m 12,5 C 12,9 km/h (3 Bft)
02.08.2016 11:21 19,2 C 19,2 C 64 % 1018,2 hPa 0,0 mm 4,0 km/h (1 Bft) W-SW 241 0 min 0,000 mm 3,7 UV-I 418 W/m 12,2 C 8,0 km/h (2 Bft)
02.08.2016 11:22 19,2 C 19,2 C 65 % 1018,2 hPa 0,0 mm 4,5 km/h (1 Bft) W-NW 292 1 min 0,000 mm 4,1 UV-I 466 W/m 12,5 C 8,0 km/h (2 Bft)
02.08.2016 11:23 19,3 C 19,3 C 64 % 1018,2 hPa 0,0 mm 7,2 km/h (2 Bft) N-NW 332 1 min 0,000 mm 4,1 UV-I 469 W/m 12,3 C 11,3 km/h (2 Bft)
02.08.2016 11:24 19,3 C 19,3 C 64 % 1018,2 hPa 0,0 mm 7,2 km/h (2 Bft) W 279 1 min 0,000 mm 4,4 UV-I 522 W/m 12,3 C 12,9 km/h (3 Bft)
02.08.2016 11:25 19,3 C 19,3 C 62 % 1018,2 hPa 0,0 mm 8,6 km/h (2 Bft) NW 304 1 min 0,000 mm 4,9 UV-I 599 W/m 11,8 C 12,9 km/h (3 Bft)
02.08.2016 11:26 19,3 C 19,3 C 63 % 1018,2 hPa 0,0 mm 5,5 km/h (1 Bft) W 267 1 min 0,000 mm 4,8 UV-I 545 W/m 12,1 C 8,0 km/h (2 Bft)
02.08.2016 11:27 19,3 C 19,3 C 62 % 1018,2 hPa 0,0 mm 9,8 km/h (2 Bft) W-NW 298 1 min 0,000 mm 4,4 UV-I 540 W/m 11,8 C 14,5 km/h (3 Bft)
02.08.2016 11:28 19,3 C 19,3 C 62 % 1018,2 hPa 0,0 mm 6,2 km/h (2 Bft) W 264 1 min 0,000 mm 5,3 UV-I 540 W/m 11,8 C 11,3 km/h (2 Bft)
02.08.2016 11:29 19,3 C 19,3 C 63 % 1018,1 hPa 0,0 mm 6,4 km/h (2 Bft) NW 307 1 min 0,000 mm 4,8 UV-I 642 W/m 12,1 C 14,5 km/h (3 Bft)
02.08.2016 11:30 19,4 C 19,4 C 65 % 1018,1 hPa 0,0 mm 10,8 km/h (2 Bft) NW 312 1 min 0,000 mm 4,7 UV-I 550 W/m 12,6 C 14,5 km/h (3 Bft)
02.08.2016 11:31 19,6 C 19,6 C 65 % 1018,1 hPa 0,0 mm 7,6 km/h (2 Bft) W 270 1 min 0,000 mm 5,2 UV-I 638 W/m 12,8 C 16,1 km/h (3 Bft)
02.08.2016 11:32 19,7 C 19,7 C 66 % 1018,1 hPa 0,0 mm 8,2 km/h (2 Bft) W-NW 294 1 min 0,000 mm 4,8 UV-I 548 W/m 13,2 C 11,3 km/h (2 Bft)
02.08.2016 11:33 19,7 C 19,7 C 63 % 1018,2 hPa 0,0 mm 14,1 km/h (3 Bft) W-NW 285 1 min 0,000 mm 4,5 UV-I 508 W/m 12,5 C 24,1 km/h (4 Bft)
02.08.2016 11:34 19,6 C 19,7 C 61 % 1018,2 hPa 0,0 mm 13,2 km/h (3 Bft) W-NW 302 1 min 0,000 mm 4,2 UV-I 487 W/m 11,9 C 22,5 km/h (4 Bft)
02.08.2016 11:35 19,5 C 19,6 C 60 % 1018,2 hPa 0,0 mm 12,7 km/h (3 Bft) W-NW 303 1 min 0,000 mm 4,3 UV-I 497 W/m 11,5 C 17,7 km/h (3 Bft)
02.08.2016 11:36 19,4 C 19,5 C 63 % 1018,2 hPa 0,0 mm 11,4 km/h (2 Bft) W-NW 299 1 min 0,000 mm 4,5 UV-I 504 W/m 12,2 C 17,7 km/h (3 Bft)
02.08.2016 11:37 19,3 C 19,4 C 62 % 1018,1 hPa 0,0 mm 14,2 km/h (3 Bft) NW 316 1 min 0,000 mm 4,7 UV-I 552 W/m 11,8 C 22,5 km/h (4 Bft)
02.08.2016 11:38 19,3 C 19,3 C 63 % 1018,0 hPa 0,0 mm 11,5 km/h (2 Bft) W-SW 246 1 min 0,000 mm 5,2 UV-I 552 W/m 12,1 C 19,3 km/h (3 Bft)
02.08.2016 11:39 19,3 C 19,3 C 62 % 1018,1 hPa 0,0 mm 9,5 km/h (2 Bft) W-NW 302 1 min 0,000 mm 5,4 UV-I 663 W/m 11,8 C 14,5 km/h (3 Bft)
02.08.2016 11:40 19,3 C 19,3 C 64 % 1018,1 hPa 0,0 mm 5,0 km/h (1 Bft) NW 308 1 min 0,000 mm 5,1 UV-I 701 W/m 12,3 C 11,3 km/h (2 Bft)
02.08.2016 11:41 19,3 C 19,3 C 66 % 1018,0 hPa 0,0 mm 5,0 km/h (1 Bft) W-NW 292 1 min 0,000 mm 4,9 UV-I 606 W/m 12,8 C 8,0 km/h (2 Bft)
02.08.2016 11:42 19,4 C 19,4 C 65 % 1018,0 hPa 0,0 mm 9,2 km/h (2 Bft) NW 317 1 min 0,000 mm 5,2 UV-I 654 W/m 12,6 C 12,9 km/h (3 Bft)
02.08.2016 11:43 19,5 C 19,5 C 65 % 1018,0 hPa 0,0 mm 6,2 km/h (2 Bft) NW 306 1 min 0,000 mm 5,0 UV-I 592 W/m 12,7 C 11,3 km/h (2 Bft)
02.08.2016 11:44 19,6 C 19,6 C 63 % 1018,1 hPa 0,0 mm 9,3 km/h (2 Bft) W 277 1 min 0,000 mm 5,1 UV-I 668 W/m 12,4 C 14,5 km/h (3 Bft)
02.08.2016 11:45 19,6 C 19,6 C 62 % 1018,0 hPa 0,0 mm 8,1 km/h (2 Bft) W 271 1 min 0,000 mm 5,4 UV-I 693 W/m 12,1 C 17,7 km/h (3 Bft)
02.08.2016 11:46 19,6 C 19,6 C 64 % 1018,0 hPa 0,0 mm 11,3 km/h (2 Bft) W 275 1 min 0,000 mm 5,4 UV-I 686 W/m 12,6 C 16,1 km/h (3 Bft)
02.08.2016 11:47 19,6 C 19,6 C 64 % 1018,0 hPa 0,0 mm 10,3 km/h (2 Bft) W-NW 287 1 min 0,000 mm 5,4 UV-I 652 W/m 12,6 C 14,5 km/h (3 Bft)
02.08.2016 11:48 19,6 C 19,6 C 64 % 1018,0 hPa 0,0 mm 6,8 km/h (2 Bft) NW 308 1 min 0,000 mm 5,3 UV-I 645 W/m 12,6 C 11,3 km/h (2 Bft)
02.08.2016 11:49 19,7 C 19,7 C 64 % 1018,0 hPa 0,0 mm 6,4 km/h (2 Bft) N-NW 338 1 min 0,000 mm 5,1 UV-I 612 W/m 12,7 C 11,3 km/h (2 Bft)
02.08.2016 11:50 19,8 C 19,8 C 67 % 1018,0 hPa 0,0 mm 8,6 km/h (2 Bft) W 279 1 min 0,000 mm 5,0 UV-I 545 W/m 13,5 C 12,9 km/h (3 Bft)
02.08.2016 11:51 19,7 C 19,8 C 65 % 1018,0 hPa 0,0 mm 12,0 km/h (2 Bft) W-NW 296 1 min 0,000 mm 5,0 UV-I 584 W/m 12,9 C 19,3 km/h (3 Bft)
02.08.2016 11:52 19,7 C 19,7 C 65 % 1018,0 hPa 0,0 mm 9,9 km/h (2 Bft) W-SW 240 1 min 0,000 mm 5,0 UV-I 594 W/m 12,9 C 16,1 km/h (3 Bft)
02.08.2016 11:53 19,7 C 19,7 C 65 % 1018,0 hPa 0,0 mm 10,5 km/h (2 Bft) NW 312 1 min 0,000 mm 5,1 UV-I 598 W/m 12,9 C 14,5 km/h (3 Bft)
02.08.2016 11:54 19,7 C 19,7 C 67 % 1018,0 hPa 0,0 mm 7,2 km/h (2 Bft) W-NW 300 1 min 0,000 mm 5,9 UV-I 696 W/m 13,4 C 12,9 km/h (3 Bft)
02.08.2016 11:55 19,7 C 19,7 C 63 % 1018,0 hPa 0,0 mm 6,5 km/h (2 Bft) W-SW 252 1 min 0,000 mm 6,6 UV-I 696 W/m 12,5 C 12,9 km/h (3 Bft)
02.08.2016 11:56 19,7 C 19,7 C 64 % 1017,9 hPa 0,0 mm 4,0 km/h (1 Bft) W-NW 283 1 min 0,000 mm 5,4 UV-I 696 W/m 12,7 C 6,4 km/h (2 Bft)
02.08.2016 11:57 19,7 C 19,7 C 65 % 1017,9 hPa 0,0 mm 5,8 km/h (2 Bft) W-NW 296 1 min 0,000 mm 5,1 UV-I 605 W/m 12,9 C 11,3 km/h (2 Bft)
02.08.2016 11:58 19,8 C 19,8 C 65 % 1018,0 hPa 0,0 mm 6,4 km/h (2 Bft) NW 315 1 min 0,000 mm 5,0 UV-I 584 W/m 13,0 C 11,3 km/h (2 Bft)
02.08.2016 11:59 19,8 C 19,8 C 64 % 1017,9 hPa 0,0 mm 5,4 km/h (1 Bft) W-NW 298 1 min 0,000 mm 5,6 UV-I 650 W/m 12,8 C 9,7 km/h (2 Bft)
02.08.2016 12:00 19,9 C 19,9 C 64 % 1018,0 hPa 0,0 mm 4,9 km/h (1 Bft) N-NW 330 1 min 0,000 mm 5,6 UV-I 691 W/m 12,9 C 6,4 km/h (2 Bft)
02.08.2016 12:01 19,9 C 19,9 C 67 % 1017,9 hPa 0,0 mm 5,7 km/h (1 Bft) W 279 1 min 0,355 mm 5,6 UV-I 635 W/m 13,6 C 9,7 km/h (2 Bft)
02.08.2016 12:02 19,9 C 19,9 C 65 % 1017,9 hPa 0,0 mm 7,0 km/h (2 Bft) W 271 1 min 0,000 mm 5,1 UV-I 566 W/m 13,1 C 9,7 km/h (2 Bft)
02.08.2016 12:03 19,9 C 19,9 C 65 % 1017,9 hPa 0,0 mm 5,7 km/h (1 Bft) W-SW 238 1 min 0,000 mm 6,7 UV-I 566 W/m 13,1 C 8,0 km/h (2 Bft)
02.08.2016 12:04 19,9 C 19,9 C 67 % 1017,9 hPa 0,0 mm 10,2 km/h (2 Bft) W-SW 254 1 min 0,000 mm 4,9 UV-I 566 W/m 13,6 C 14,5 km/h (3 Bft)
02.08.2016 12:05 19,9 C 19,9 C 66 % 1017,9 hPa 0,0 mm 5,9 km/h (2 Bft) W-NW 284 1 min 0,000 mm 5,5 UV-I 566 W/m 13,4 C 8,0 km/h (2 Bft)
02.08.2016 12:06 19,9 C 19,9 C 66 % 1017,9 hPa 0,0 mm 4,2 km/h (1 Bft) SW 219 1 min 0,000 mm 5,3 UV-I 629 W/m 13,4 C 6,4 km/h (2 Bft)
02.08.2016 12:07 19,9 C 20,0 C 60 % 1017,9 hPa 0,0 mm 2,5 km/h (1 Bft) S 178 1 min 0,000 mm 5,6 UV-I 635 W/m 11,9 C 6,4 km/h (2 Bft)
02.08.2016 12:08 20,0 C 20,0 C 66 % 1017,8 hPa 0,0 mm 3,5 km/h (1 Bft) SW 228 1 min 0,000 mm 5,7 UV-I 715 W/m 13,4 C 8,0 km/h (2 Bft)
02.08.2016 12:09 20,1 C 20,1 C 66 % 1017,8 hPa 0,0 mm 4,3 km/h (1 Bft) W-SW 248 1 min 0,000 mm 5,9 UV-I 715 W/m 13,5 C 8,0 km/h (2 Bft)
02.08.2016 12:10 20,2 C 20,2 C 67 % 1017,8 hPa 0,0 mm 4,2 km/h (1 Bft) W 280 1 min 0,000 mm 5,1 UV-I 550 W/m 13,9 C 9,7 km/h (2 Bft)
02.08.2016 12:11 20,2 C 20,2 C 64 % 1017,7 hPa 0,0 mm 9,3 km/h (2 Bft) W-NW 288 1 min 0,000 mm 4,8 UV-I 512 W/m 13,2 C 11,3 km/h (2 Bft)
02.08.2016 12:12 20,2 C 20,2 C 66 % 1017,7 hPa 0,0 mm 5,8 km/h (2 Bft) W-NW 291 1 min 0,000 mm 6,0 UV-I 512 W/m 13,6 C 9,7 km/h (2 Bft)
02.08.2016 12:13 20,2 C 20,2 C 66 % 1017,7 hPa 0,0 mm 4,7 km/h (1 Bft) W 263 1 min 0,000 mm 5,9 UV-I 603 W/m 13,6 C 8,0 km/h (2 Bft)
02.08.2016 12:14 20,1 C 20,2 C 65 % 1017,7 hPa 0,0 mm 6,4 km/h (2 Bft) W-NW 286 1 min 0,000 mm 4,9 UV-I 563 W/m 13,3 C 9,7 km/h (2 Bft)
02.08.2016 12:15 20,1 C 20,2 C 68 % 1017,7 hPa 0,0 mm 3,9 km/h (1 Bft) NW 306 1 min 0,000 mm 5,3 UV-I 570 W/m 14,0 C 6,4 km/h (2 Bft)
02.08.2016 12:16 20,1 C 20,1 C 64 % 1017,8 hPa 0,0 mm 6,1 km/h (2 Bft) NW 315 1 min 0,000 mm 5,4 UV-I 654 W/m 13,1 C 11,3 km/h (2 Bft)
02.08.2016 12:17 20,2 C 20,2 C 65 % 1017,7 hPa 0,0 mm 9,5 km/h (2 Bft) W 267 1 min 0,000 mm 4,9 UV-I 654 W/m 13,4 C 12,9 km/h (3 Bft)
02.08.2016 12:18 20,3 C 20,3 C 65 % 1017,8 hPa 0,0 mm 8,0 km/h (2 Bft) NW 316 1 min 0,000 mm 4,8 UV-I 568 W/m 13,5 C 14,5 km/h (3 Bft)
02.08.2016 12:19 20,2 C 20,3 C 66 % 1017,8 hPa 0,0 mm 8,4 km/h (2 Bft) NW 311 1 min 0,000 mm 5,7 UV-I 652 W/m 13,6 C 14,5 km/h (3 Bft)
02.08.2016 12:20 20,1 C 20,2 C 63 % 1017,8 hPa 0,0 mm 7,3 km/h (2 Bft) NW 305 1 min 0,000 mm 6,9 UV-I 652 W/m 12,8 C 11,3 km/h (2 Bft)
02.08.2016 12:21 20,1 C 20,1 C 64 % 1017,7 hPa 0,0 mm 4,1 km/h (1 Bft) W-NW 283 1 min 0,000 mm 7,1 UV-I 652 W/m 13,1 C 6,4 km/h (2 Bft)
02.08.2016 12:22 20,2 C 20,2 C 65 % 1017,7 hPa 0,0 mm 5,0 km/h (1 Bft) W-NW 298 1 min 0,000 mm 6,7 UV-I 904 W/m 13,4 C 6,4 km/h (2 Bft)
02.08.2016 12:23 20,4 C 20,4 C 64 % 1017,8 hPa 0,0 mm 3,2 km/h (1 Bft) W-NW 300 1 min 0,000 mm 5,2 UV-I 904 W/m 13,4 C 4,8 km/h (1 Bft)
02.08.2016 12:24 20,4 C 20,4 C 64 % 1017,7 hPa 0,0 mm 6,7 km/h (2 Bft) NW 309 1 min 0,000 mm 5,8 UV-I 701 W/m 13,4 C 11,3 km/h (2 Bft)
02.08.2016 12:25 20,4 C 20,5 C 63 % 1017,6 hPa 0,0 mm 5,0 km/h (1 Bft) W-NW 284 1 min 0,000 mm 5,1 UV-I 605 W/m 13,1 C 9,7 km/h (2 Bft)
02.08.2016 12:26 20,4 C 20,5 C 62 % 1017,6 hPa 0,0 mm 4,8 km/h (1 Bft) W 272 1 min 0,000 mm 6,2 UV-I 605 W/m 12,9 C 6,4 km/h (2 Bft)
02.08.2016 12:27 20,4 C 20,5 C 62 % 1017,6 hPa 0,0 mm 9,9 km/h (2 Bft) NW 305 1 min 0,000 mm 7,3 UV-I 605 W/m 12,9 C 19,3 km/h (3 Bft)
02.08.2016 12:28 20,5 C 20,5 C 67 % 1017,6 hPa 0,0 mm 7,2 km/h (2 Bft) W 277 1 min 0,000 mm 7,9 UV-I 605 W/m 14,2 C 11,3 km/h (2 Bft)
02.08.2016 12:29 20,7 C 20,7 C 65 % 1017,6 hPa 0,0 mm 5,9 km/h (2 Bft) N-NW 328 1 min 0,000 mm 8,0 UV-I 1032 W/m 13,9 C 9,7 km/h (2 Bft)
02.08.2016 12:30 20,9 C 20,9 C 64 % 1017,5 hPa 0,0 mm 8,9 km/h (2 Bft) NW 317 1 min 0,000 mm 8,0 UV-I 1069 W/m 13,8 C 14,5 km/h (3 Bft)
02.08.2016 12:31 21,1 C 21,1 C 66 % 1017,6 hPa 0,0 mm 8,7 km/h (2 Bft) W-SW 257 1 min 0,000 mm 7,8 UV-I 1053 W/m 14,5 C 14,5 km/h (3 Bft)
02.08.2016 12:32 21,1 C 21,1 C 57 % 1017,6 hPa 0,0 mm 8,4 km/h (2 Bft) W-NW 298 1 min 0,000 mm 6,3 UV-I 1053 W/m 12,2 C 12,9 km/h (3 Bft)
02.08.2016 12:33 20,8 C 21,1 C 57 % 1017,6 hPa 0,0 mm 9,4 km/h (2 Bft) W 259 1 min 0,000 mm 6,4 UV-I 664 W/m 12,0 C 12,9 km/h (3 Bft)
02.08.2016 12:34 20,7 C 20,8 C 58 % 1017,6 hPa 0,0 mm 8,4 km/h (2 Bft) W 276 1 min 0,000 mm 7,7 UV-I 664 W/m 12,1 C 16,1 km/h (3 Bft)
02.08.2016 12:35 20,7 C 20,7 C 60 % 1017,6 hPa 0,0 mm 4,0 km/h (1 Bft) W-NW 302 1 min 0,000 mm 7,4 UV-I 986 W/m 12,7 C 9,7 km/h (2 Bft)
02.08.2016 12:36 20,7 C 20,7 C 60 % 1017,6 hPa 0,0 mm 7,0 km/h (2 Bft) NW 304 1 min 0,000 mm 7,4 UV-I 986 W/m 12,7 C 9,7 km/h (2 Bft)
02.08.2016 12:37 20,8 C 20,8 C 63 % 1017,6 hPa 0,0 mm 12,4 km/h (3 Bft) W 270 1 min 0,000 mm 5,3 UV-I 615 W/m 13,5 C 17,7 km/h (3 Bft)
02.08.2016 12:38 20,8 C 20,8 C 61 % 1017,6 hPa 0,0 mm 7,8 km/h (2 Bft) W-NW 286 1 min 0,000 mm 6,3 UV-I 691 W/m 13,0 C 11,3 km/h (2 Bft)
02.08.2016 12:39 20,8 C 20,9 C 63 % 1017,6 hPa 0,0 mm 6,7 km/h (2 Bft) SW 217 1 min 0,000 mm 6,2 UV-I 758 W/m 13,5 C 12,9 km/h (3 Bft)
02.08.2016 12:40 20,8 C 20,8 C 61 % 1017,6 hPa 0,0 mm 3,5 km/h (1 Bft) NW 315 1 min 0,000 mm 5,5 UV-I 758 W/m 13,0 C 6,4 km/h (2 Bft)
02.08.2016 12:41 20,8 C 20,8 C 61 % 1017,6 hPa 0,0 mm 5,6 km/h (1 Bft) W-NW 301 1 min 0,000 mm 5,1 UV-I 571 W/m 13,0 C 9,7 km/h (2 Bft)
02.08.2016 12:42 20,8 C 20,9 C 62 % 1017,6 hPa 0,0 mm 9,5 km/h (2 Bft) W-NW 286 1 min 0,000 mm 4,9 UV-I 526 W/m 13,2 C 16,1 km/h (3 Bft)
02.08.2016 12:43 20,7 C 20,8 C 58 % 1017,6 hPa 0,0 mm 7,6 km/h (2 Bft) W-NW 294 1 min 0,000 mm 4,8 UV-I 526 W/m 12,1 C 12,9 km/h (3 Bft)
02.08.2016 12:44 20,6 C 20,7 C 58 % 1017,6 hPa 0,0 mm 8,7 km/h (2 Bft) W-SW 252 1 min 0,000 mm 4,9 UV-I 526 W/m 12,0 C 12,9 km/h (3 Bft)
02.08.2016 12:45 20,4 C 20,6 C 58 % 1017,6 hPa 0,0 mm 10,5 km/h (2 Bft) W-NW 296 1 min 0,000 mm 4,7 UV-I 489 W/m 11,9 C 17,7 km/h (3 Bft)
02.08.2016 12:46 20,3 C 20,4 C 60 % 1017,6 hPa 0,0 mm 6,5 km/h (2 Bft) W 267 1 min 0,000 mm 5,0 UV-I 504 W/m 12,3 C 14,5 km/h (3 Bft)
02.08.2016 12:47 20,2 C 20,3 C 62 % 1017,6 hPa 0,0 mm 8,6 km/h (2 Bft) W-SW 243 1 min 0,000 mm 5,2 UV-I 540 W/m 12,7 C 12,9 km/h (3 Bft)
02.08.2016 12:48 20,2 C 20,2 C 58 % 1017,6 hPa 0,0 mm 8,5 km/h (2 Bft) W-SW 238 1 min 0,000 mm 5,3 UV-I 555 W/m 11,7 C 12,9 km/h (3 Bft)
02.08.2016 12:49 20,2 C 20,2 C 59 % 1017,6 hPa 0,0 mm 9,0 km/h (2 Bft) W-SW 257 1 min 0,000 mm 5,2 UV-I 619 W/m 11,9 C 14,5 km/h (3 Bft)
02.08.2016 12:50 20,2 C 20,2 C 57 % 1017,6 hPa 0,0 mm 3,7 km/h (1 Bft) W 267 1 min 0,000 mm 5,2 UV-I 619 W/m 11,4 C 4,8 km/h (1 Bft)
02.08.2016 12:51 20,2 C 20,2 C 60 % 1017,6 hPa 0,0 mm 6,6 km/h (2 Bft) W 259 1 min 0,000 mm 5,9 UV-I 712 W/m 12,2 C 12,9 km/h (3 Bft)
02.08.2016 12:52 20,3 C 20,3 C 65 % 1017,6 hPa 0,0 mm 9,5 km/h (2 Bft) W 259 1 min 0,000 mm 5,3 UV-I 712 W/m 13,5 C 12,9 km/h (3 Bft)
02.08.2016 12:53 20,4 C 20,4 C 60 % 1017,6 hPa 0,0 mm 11,4 km/h (2 Bft) SW 232 1 min 0,000 mm 5,2 UV-I 596 W/m 12,4 C 16,1 km/h (3 Bft)
02.08.2016 12:54 20,4 C 20,4 C 58 % 1017,6 hPa 0,0 mm 13,1 km/h (3 Bft) N-NW 329 1 min 0,000 mm 5,2 UV-I 515 W/m 11,9 C 19,3 km/h (3 Bft)
02.08.2016 12:55 20,4 C 20,4 C 58 % 1017,6 hPa 0,0 mm 9,2 km/h (2 Bft) W-NW 295 1 min 0,000 mm 4,6 UV-I 478 W/m 11,9 C 14,5 km/h (3 Bft)
02.08.2016 12:56 20,4 C 20,4 C 59 % 1017,5 hPa 0,0 mm 10,1 km/h (2 Bft) W 279 1 min 0,000 mm 5,3 UV-I 557 W/m 12,1 C 17,7 km/h (3 Bft)
02.08.2016 12:57 20,4 C 20,4 C 56 % 1017,6 hPa 0,0 mm 7,1 km/h (2 Bft) NW 315 1 min 0,000 mm 6,0 UV-I 557 W/m 11,3 C 9,7 km/h (2 Bft)
02.08.2016 12:58 20,4 C 20,4 C 60 % 1017,6 hPa 0,0 mm 8,1 km/h (2 Bft) W 263 1 min 0,000 mm 5,6 UV-I 557 W/m 12,4 C 12,9 km/h (3 Bft)
02.08.2016 12:59 20,5 C 20,5 C 59 % 1017,6 hPa 0,0 mm 9,7 km/h (2 Bft) W-NW 291 1 min 0,000 mm 5,8 UV-I 657 W/m 12,2 C 14,5 km/h (3 Bft)
02.08.2016 13:00 20,5 C 20,5 C 59 % 1017,6 hPa 0,0 mm 6,7 km/h (2 Bft) NW 309 1 min 0,000 mm 5,1 UV-I 570 W/m 12,2 C 11,3 km/h (2 Bft)
02.08.2016 13:01 20,6 C 20,6 C 60 % 1017,6 hPa 0,0 mm 7,6 km/h (2 Bft) NW 311 1 min 0,406 mm 5,7 UV-I 613 W/m 12,6 C 14,5 km/h (3 Bft)
02.08.2016 13:02 20,6 C 20,6 C 62 % 1017,6 hPa 0,0 mm 10,5 km/h (2 Bft) NW 313 1 min 0,001 mm 6,7 UV-I 613 W/m 13,1 C 14,5 km/h (3 Bft)
02.08.2016 13:03 20,7 C 20,7 C 61 % 1017,6 hPa 0,0 mm 11,6 km/h (2 Bft) W-NW 286 1 min 0,000 mm 5,9 UV-I 812 W/m 12,9 C 16,1 km/h (3 Bft)
02.08.2016 13:04 20,8 C 20,8 C 61 % 1017,6 hPa 0,0 mm 9,0 km/h (2 Bft) W 261 1 min 0,000 mm 4,8 UV-I 812 W/m 13,0 C 14,5 km/h (3 Bft)
02.08.2016 13:05 20,8 C 20,8 C 59 % 1017,6 hPa 0,0 mm 9,7 km/h (2 Bft) W-NW 291 1 min 0,000 mm 4,1 UV-I 812 W/m 12,5 C 12,9 km/h (3 Bft)
02.08.2016 13:06 20,8 C 20,8 C 61 % 1017,6 hPa 0,0 mm 11,5 km/h (2 Bft) NW 311 1 min 0,000 mm 4,7 UV-I 469 W/m 13,0 C 17,7 km/h (3 Bft)
02.08.2016 13:07 20,7 C 20,8 C 59 % 1017,6 hPa 0,0 mm 5,8 km/h (2 Bft) W-SW 257 1 min 0,000 mm 6,4 UV-I 469 W/m 12,4 C 8,0 km/h (2 Bft)
02.08.2016 13:08 20,6 C 20,7 C 56 % 1017,5 hPa 0,0 mm 7,5 km/h (2 Bft) W-NW 288 1 min 0,000 mm 5,2 UV-I 469 W/m 11,5 C 11,3 km/h (2 Bft)
02.08.2016 13:09 20,6 C 20,6 C 60 % 1017,6 hPa 0,0 mm 4,9 km/h (1 Bft) W-NW 282 1 min 0,000 mm 5,7 UV-I 469 W/m 12,6 C 8,0 km/h (2 Bft)
02.08.2016 13:10 20,7 C 20,7 C 59 % 1017,5 hPa 0,0 mm 10,1 km/h (2 Bft) W-SW 245 1 min 0,000 mm 5,2 UV-I 469 W/m 12,4 C 12,9 km/h (3 Bft)
02.08.2016 13:11 20,7 C 20,7 C 59 % 1017,6 hPa 0,0 mm 5,4 km/h (1 Bft) W-SW 251 1 min 0,000 mm 4,8 UV-I 503 W/m 12,4 C 11,3 km/h (2 Bft)
02.08.2016 13:12 20,7 C 20,7 C 62 % 1017,5 hPa 0,0 mm 10,4 km/h (2 Bft) W-SW 248 1 min 0,000 mm 5,5 UV-I 640 W/m 13,2 C 16,1 km/h (3 Bft)
02.08.2016 13:13 20,7 C 20,8 C 61 % 1017,6 hPa 0,0 mm 8,8 km/h (2 Bft) W-NW 285 1 min 0,000 mm 5,9 UV-I 703 W/m 12,9 C 16,1 km/h (3 Bft)
02.08.2016 13:14 20,7 C 20,7 C 56 % 1017,5 hPa 0,0 mm 5,6 km/h (1 Bft) W 261 1 min 0,000 mm 6,4 UV-I 744 W/m 11,6 C 12,9 km/h (3 Bft)
02.08.2016 13:15 20,8 C 20,8 C 60 % 1017,5 hPa 0,0 mm 8,8 km/h (2 Bft) W 263 1 min 0,000 mm 6,2 UV-I 744 W/m 12,7 C 12,9 km/h (3 Bft)
02.08.2016 13:16 20,8 C 20,8 C 58 % 1017,5 hPa 0,0 mm 5,8 km/h (2 Bft) NW 309 1 min 0,000 mm 6,1 UV-I 744 W/m 12,2 C 8,0 km/h (2 Bft)
02.08.2016 13:17 20,9 C 20,9 C 60 % 1017,5 hPa 0,0 mm 5,0 km/h (1 Bft) W-NW 294 1 min 0,000 mm 4,4 UV-I 744 W/m 12,8 C 8,0 km/h (2 Bft)
02.08.2016 13:18 20,9 C 20,9 C 57 % 1017,5 hPa 0,0 mm 2,2 km/h (1 Bft) W-NW 292 0 min 0,000 mm 4,3 UV-I 457 W/m 12,1 C 4,8 km/h (1 Bft)
02.08.2016 13:19 20,8 C 20,9 C 57 % 1017,4 hPa 0,0 mm 5,2 km/h (1 Bft) W-NW 302 0 min 0,000 mm 5,9 UV-I 457 W/m 12,0 C 9,7 km/h (2 Bft)
02.08.2016 13:20 20,8 C 20,8 C 64 % 1017,5 hPa 0,0 mm 7,2 km/h (2 Bft) W-SW 242 0 min 0,000 mm 6,3 UV-I 457 W/m 13,7 C 12,9 km/h (3 Bft)
02.08.2016 13:21 20,8 C 20,8 C 60 % 1017,5 hPa 0,0 mm 8,6 km/h (2 Bft) NW 310 1 min 0,000 mm 6,1 UV-I 772 W/m 12,7 C 14,5 km/h (3 Bft)
02.08.2016 13:22 20,9 C 20,9 C 61 % 1017,5 hPa 0,0 mm 8,8 km/h (2 Bft) W 267 1 min 0,000 mm 5,6 UV-I 766 W/m 13,1 C 16,1 km/h (3 Bft)
02.08.2016 13:23 20,9 C 20,9 C 58 % 1017,5 hPa 0,0 mm 7,0 km/h (2 Bft) N-NW 329 1 min 0,000 mm 6,3 UV-I 724 W/m 12,3 C 11,3 km/h (2 Bft)
02.08.2016 13:24 21,1 C 21,1 C 58 % 1017,4 hPa 0,0 mm 4,6 km/h (1 Bft) W-SW 253 1 min 0,000 mm 7,0 UV-I 724 W/m 12,5 C 6,4 km/h (2 Bft)
02.08.2016 13:25 21,2 C 21,2 C 60 % 1017,5 hPa 0,0 mm 8,4 km/h (2 Bft) W-NW 292 1 min 0,000 mm 8,3 UV-I 1074 W/m 13,1 C 16,1 km/h (3 Bft)
02.08.2016 13:26 21,3 C 21,3 C 59 % 1017,4 hPa 0,0 mm 7,9 km/h (2 Bft) W-NW 283 1 min 0,000 mm 8,0 UV-I 1074 W/m 13,0 C 14,5 km/h (3 Bft)
02.08.2016 13:27 21,4 C 21,4 C 55 % 1017,5 hPa 0,0 mm 10,7 km/h (2 Bft) W 261 1 min 0,000 mm 6,2 UV-I 1074 W/m 12,0 C 16,1 km/h (3 Bft)
02.08.2016 13:28 21,3 C 21,4 C 58 % 1017,4 hPa 0,0 mm 4,8 km/h (1 Bft) SW 218 1 min 0,000 mm 6,0 UV-I 1074 W/m 12,7 C 9,7 km/h (2 Bft)
02.08.2016 13:29 21,4 C 21,4 C 63 % 1017,4 hPa 0,0 mm 4,3 km/h (1 Bft) S-SW 202 1 min 0,000 mm 6,3 UV-I 1074 W/m 14,1 C 6,4 km/h (2 Bft)
02.08.2016 13:30 21,4 C 21,4 C 57 % 1017,4 hPa 0,0 mm 4,7 km/h (1 Bft) SW 231 1 min 0,000 mm 6,7 UV-I 816 W/m 12,5 C 8,0 km/h (2 Bft)
02.08.2016 13:31 21,4 C 21,4 C 58 % 1017,3 hPa 0,0 mm 4,5 km/h (1 Bft) W-SW 242 1 min 0,000 mm 6,5 UV-I 751 W/m 12,8 C 8,0 km/h (2 Bft)
02.08.2016 13:32 21,3 C 21,4 C 56 % 1017,4 hPa 0,0 mm 7,9 km/h (2 Bft) W-SW 240 1 min 0,000 mm 6,4 UV-I 766 W/m 12,2 C 14,5 km/h (3 Bft)
02.08.2016 13:33 21,3 C 21,3 C 57 % 1017,4 hPa 0,0 mm 8,7 km/h (2 Bft) W 269 1 min 0,000 mm 6,6 UV-I 745 W/m 12,4 C 14,5 km/h (3 Bft)
02.08.2016 13:34 21,3 C 21,3 C 58 % 1017,4 hPa 0,0 mm 5,2 km/h (1 Bft) W-NW 301 1 min 0,000 mm 7,1 UV-I 831 W/m 12,7 C 8,0 km/h (2 Bft)
02.08.2016 13:35 21,4 C 21,4 C 59 % 1017,3 hPa 0,0 mm 7,5 km/h (2 Bft) W-SW 247 1 min 0,000 mm 7,2 UV-I 780 W/m 13,0 C 11,3 km/h (2 Bft)
02.08.2016 13:36 21,4 C 21,4 C 57 % 1017,4 hPa 0,0 mm 6,6 km/h (2 Bft) W-NW 294 1 min 0,000 mm 7,9 UV-I 780 W/m 12,5 C 12,9 km/h (3 Bft)
02.08.2016 13:37 21,6 C 21,6 C 59 % 1017,3 hPa 0,0 mm 8,7 km/h (2 Bft) W 279 1 min 0,000 mm 7,6 UV-I 983 W/m 13,2 C 12,9 km/h (3 Bft)
02.08.2016 13:38 21,8 C 21,8 C 61 % 1017,3 hPa 0,0 mm 11,3 km/h (2 Bft) W 274 1 min 0,000 mm 7,7 UV-I 972 W/m 13,9 C 17,7 km/h (3 Bft)
02.08.2016 13:39 21,8 C 21,8 C 56 % 1017,3 hPa 0,0 mm 10,2 km/h (2 Bft) W-NW 292 1 min 0,000 mm 7,7 UV-I 979 W/m 12,6 C 12,9 km/h (3 Bft)
02.08.2016 13:40 21,7 C 21,8 C 56 % 1017,3 hPa 0,0 mm 5,9 km/h (2 Bft) NW 316 1 min 0,000 mm 7,8 UV-I 998 W/m 12,5 C 8,0 km/h (2 Bft)
02.08.2016 13:41 21,7 C 21,7 C 61 % 1017,3 hPa 0,0 mm 6,4 km/h (2 Bft) W-NW 298 1 min 0,000 mm 7,5 UV-I 1051 W/m 13,8 C 11,3 km/h (2 Bft)
02.08.2016 13:42 21,7 C 21,8 C 59 % 1017,3 hPa 0,0 mm 6,3 km/h (2 Bft) W-NW 289 1 min 0,000 mm 6,2 UV-I 1051 W/m 13,3 C 11,3 km/h (2 Bft)
02.08.2016 13:43 21,7 C 21,8 C 59 % 1017,2 hPa 0,0 mm 6,9 km/h (2 Bft) W 259 1 min 0,000 mm 5,0 UV-I 529 W/m 13,3 C 11,3 km/h (2 Bft)
02.08.2016 13:44 21,7 C 21,7 C 58 % 1017,2 hPa 0,0 mm 5,6 km/h (1 Bft) W-NW 285 1 min 0,000 mm 5,7 UV-I 529 W/m 13,1 C 9,7 km/h (2 Bft)
02.08.2016 13:45 21,6 C 21,7 C 56 % 1017,2 hPa 0,0 mm 4,0 km/h (1 Bft) W-NW 297 1 min 0,000 mm 5,6 UV-I 649 W/m 12,4 C 6,4 km/h (2 Bft)
02.08.2016 13:46 21,5 C 21,6 C 56 % 1017,2 hPa 0,0 mm 4,7 km/h (1 Bft) NW 317 1 min 0,000 mm 5,3 UV-I 596 W/m 12,3 C 6,4 km/h (2 Bft)
02.08.2016 13:47 21,5 C 21,6 C 59 % 1017,2 hPa 0,0 mm 9,8 km/h (2 Bft) W-NW 282 1 min 0,000 mm 5,1 UV-I 540 W/m 13,1 C 14,5 km/h (3 Bft)
02.08.2016 13:48 21,5 C 21,5 C 58 % 1017,3 hPa 0,0 mm 7,2 km/h (2 Bft) W-NW 292 1 min 0,000 mm 4,9 UV-I 504 W/m 12,9 C 11,3 km/h (2 Bft)
02.08.2016 13:49 21,5 C 21,5 C 59 % 1017,2 hPa 0,0 mm 3,6 km/h (1 Bft) W-NW 290 1 min 0,000 mm 4,6 UV-I 483 W/m 13,1 C 4,8 km/h (1 Bft)
02.08.2016 13:50 21,4 C 21,5 C 57 % 1017,3 hPa 0,0 mm 5,4 km/h (1 Bft) W-NW 298 1 min 0,000 mm 4,6 UV-I 489 W/m 12,5 C 6,4 km/h (2 Bft)
02.08.2016 13:51 21,3 C 21,4 C 55 % 1017,2 hPa 0,0 mm 4,0 km/h (1 Bft) NW 317 1 min 0,000 mm 4,7 UV-I 510 W/m 11,9 C 6,4 km/h (2 Bft)
02.08.2016 13:52 21,3 C 21,3 C 55 % 1017,2 hPa 0,0 mm 10,1 km/h (2 Bft) W-NW 293 1 min 0,000 mm 4,6 UV-I 469 W/m 11,9 C 16,1 km/h (3 Bft)
02.08.2016 13:53 21,4 C 21,4 C 60 % 1017,2 hPa 0,0 mm 7,4 km/h (2 Bft) W 273 1 min 0,000 mm 4,8 UV-I 504 W/m 13,3 C 14,5 km/h (3 Bft)
02.08.2016 13:54 21,4 C 21,4 C 60 % 1017,3 hPa 0,0 mm 10,7 km/h (2 Bft) W 267 1 min 0,000 mm 5,1 UV-I 561 W/m 13,3 C 14,5 km/h (3 Bft)
02.08.2016 13:55 21,4 C 21,4 C 60 % 1017,3 hPa 0,0 mm 8,6 km/h (2 Bft) W 265 1 min 0,000 mm 5,1 UV-I 582 W/m 13,3 C 14,5 km/h (3 Bft)
02.08.2016 13:56 21,5 C 21,5 C 59 % 1017,2 hPa 0,0 mm 4,8 km/h (1 Bft) W-SW 245 1 min 0,000 mm 4,8 UV-I 533 W/m 13,1 C 11,3 km/h (2 Bft)
02.08.2016 13:57 21,5 C 21,5 C 61 % 1017,2 hPa 0,0 mm 6,4 km/h (2 Bft) W-SW 247 1 min 0,000 mm 4,9 UV-I 529 W/m 13,7 C 12,9 km/h (3 Bft)
02.08.2016 13:58 21,5 C 21,5 C 61 % 1017,2 hPa 0,0 mm 8,2 km/h (2 Bft) W 261 1 min 0,000 mm 5,1 UV-I 564 W/m 13,7 C 12,9 km/h (3 Bft)
02.08.2016 13:59 21,4 C 21,5 C 55 % 1017,2 hPa 0,0 mm 4,8 km/h (1 Bft) W-NW 292 1 min 0,000 mm 5,3 UV-I 612 W/m 12,0 C 6,4 km/h (2 Bft)
02.08.2016 14:00 21,4 C 21,4 C 55 % 1017,1 hPa 0,0 mm 2,9 km/h (1 Bft) W-NW 288 1 min 0,000 mm 5,1 UV-I 536 W/m 12,0 C 6,4 km/h (2 Bft)
02.08.2016 14:01 21,4 C 21,4 C 57 % 1017,2 hPa 0,0 mm 4,4 km/h (1 Bft) W 275 1 min 0,432 mm 4,8 UV-I 533 W/m 12,5 C 4,8 km/h (1 Bft)
02.08.2016 14:03 21,3 C 21,4 C 58 % 1017,1 hPa 0,0 mm 5,7 km/h (1 Bft) W-SW 238 0 min 0,000 mm 4,1 UV-I 445 W/m 12,7 C 12,9 km/h (3 Bft)
02.08.2016 14:04 21,3 C 21,4 C 57 % 1017,1 hPa 0,0 mm 5,9 km/h (2 Bft) SW 227 0 min 0,000 mm 4,0 UV-I 427 W/m 12,4 C 12,9 km/h (3 Bft)
02.08.2016 14:05 21,3 C 21,3 C 59 % 1017,1 hPa 0,0 mm 3,8 km/h (1 Bft) W 279 0 min 0,000 mm 4,0 UV-I 432 W/m 13,0 C 4,8 km/h (1 Bft)
02.08.2016 14:06 21,3 C 21,3 C 60 % 1017,2 hPa 0,0 mm 6,5 km/h (2 Bft) W-SW 257 0 min 0,000 mm 4,1 UV-I 443 W/m 13,2 C 12,9 km/h (3 Bft)
02.08.2016 14:07 21,3 C 21,3 C 59 % 1017,2 hPa 0,0 mm 10,1 km/h (2 Bft) W 260 0 min 0,000 mm 4,1 UV-I 445 W/m 13,0 C 14,5 km/h (3 Bft)
02.08.2016 14:08 21,3 C 21,3 C 58 % 1017,2 hPa 0,0 mm 11,8 km/h (2 Bft) W 277 0 min 0,000 mm 4,0 UV-I 438 W/m 12,7 C 19,3 km/h (3 Bft)
02.08.2016 14:09 21,2 C 21,3 C 57 % 1017,2 hPa 0,0 mm 11,7 km/h (2 Bft) W 268 0 min 0,000 mm 4,0 UV-I 431 W/m 12,3 C 16,1 km/h (3 Bft)
02.08.2016 14:10 21,2 C 21,2 C 60 % 1017,2 hPa 0,0 mm 6,0 km/h (2 Bft) N-NW 333 0 min 0,000 mm 4,0 UV-I 439 W/m 13,1 C 9,7 km/h (2 Bft)
02.08.2016 14:11 21,1 C 21,2 C 59 % 1017,2 hPa 0,0 mm 9,7 km/h (2 Bft) W-NW 302 0 min 0,000 mm 4,0 UV-I 445 W/m 12,8 C 14,5 km/h (3 Bft)
02.08.2016 14:12 21,1 C 21,1 C 59 % 1017,2 hPa 0,0 mm 7,4 km/h (2 Bft) W-NW 292 0 min 0,000 mm 4,2 UV-I 459 W/m 12,8 C 11,3 km/h (2 Bft)
02.08.2016 14:13 21,2 C 21,2 C 64 % 1017,2 hPa 0,0 mm 7,6 km/h (2 Bft) W 271 1 min 0,000 mm 4,2 UV-I 469 W/m 14,1 C 12,9 km/h (3 Bft)
02.08.2016 14:14 21,2 C 21,2 C 61 % 1017,1 hPa 0,0 mm 11,4 km/h (2 Bft) NW 317 1 min 0,000 mm 4,2 UV-I 466 W/m 13,4 C 20,9 km/h (4 Bft)
02.08.2016 14:15 21,3 C 21,3 C 59 % 1017,1 hPa 0,0 mm 9,3 km/h (2 Bft) W 275 1 min 0,000 mm 4,4 UV-I 494 W/m 13,0 C 14,5 km/h (3 Bft)
02.08.2016 14:16 21,3 C 21,3 C 59 % 1017,1 hPa 0,0 mm 6,4 km/h (2 Bft) W-NW 300 1 min 0,000 mm 4,4 UV-I 527 W/m 13,0 C 9,7 km/h (2 Bft)
02.08.2016 14:17 21,3 C 21,3 C 58 % 1017,1 hPa 0,0 mm 6,0 km/h (2 Bft) W 260 1 min 0,000 mm 4,6 UV-I 520 W/m 12,7 C 8,0 km/h (2 Bft)
02.08.2016 14:18 21,3 C 21,3 C 56 % 1017,1 hPa 0,0 mm 2,6 km/h (1 Bft) NW 309 0 min 0,000 mm 4,2 UV-I 457 W/m 12,2 C 4,8 km/h (1 Bft)
02.08.2016 14:19 21,3 C 21,3 C 58 % 1017,1 hPa 0,0 mm 9,3 km/h (2 Bft) W-NW 290 0 min 0,000 mm 4,0 UV-I 424 W/m 12,7 C 16,1 km/h (3 Bft)
02.08.2016 14:20 21,3 C 21,3 C 56 % 1017,1 hPa 0,0 mm 8,4 km/h (2 Bft) W-NW 300 0 min 0,000 mm 4,0 UV-I 424 W/m 12,2 C 11,3 km/h (2 Bft)
02.08.2016 14:21 21,3 C 21,3 C 57 % 1017,1 hPa 0,0 mm 6,1 km/h (2 Bft) W-NW 292 0 min 0,000 mm 4,2 UV-I 441 W/m 12,4 C 11,3 km/h (2 Bft)
02.08.2016 14:22 21,3 C 21,3 C 60 % 1017,0 hPa 0,0 mm 14,0 km/h (3 Bft) W-SW 252 1 min 0,000 mm 4,2 UV-I 476 W/m 13,2 C 20,9 km/h (4 Bft)
02.08.2016 14:23 21,2 C 21,3 C 55 % 1017,1 hPa 0,0 mm 7,4 km/h (2 Bft) W-NW 284 1 min 0,000 mm 4,4 UV-I 475 W/m 11,8 C 12,9 km/h (3 Bft)
02.08.2016 14:24 21,2 C 21,2 C 58 % 1017,1 hPa 0,0 mm 10,9 km/h (2 Bft) W 261 1 min 0,000 mm 4,3 UV-I 485 W/m 12,6 C 16,1 km/h (3 Bft)
02.08.2016 14:25 21,2 C 21,2 C 59 % 1017,1 hPa 0,0 mm 7,4 km/h (2 Bft) W-NW 298 1 min 0,000 mm 4,4 UV-I 478 W/m 12,9 C 14,5 km/h (3 Bft)
02.08.2016 14:26 21,2 C 21,2 C 57 % 1017,2 hPa 0,0 mm 6,7 km/h (2 Bft) W-NW 286 0 min 0,000 mm 4,0 UV-I 434 W/m 12,3 C 11,3 km/h (2 Bft)
02.08.2016 14:27 21,1 C 21,2 C 56 % 1017,1 hPa 0,0 mm 6,1 km/h (2 Bft) N-NW 337 0 min 0,000 mm 3,8 UV-I 406 W/m 12,0 C 11,3 km/h (2 Bft)
02.08.2016 14:28 21,1 C 21,1 C 59 % 1017,1 hPa 0,0 mm 10,0 km/h (2 Bft) W 279 0 min 0,000 mm 3,8 UV-I 406 W/m 12,8 C 14,5 km/h (3 Bft)
02.08.2016 14:29 21,1 C 21,1 C 57 % 1017,1 hPa 0,0 mm 8,2 km/h (2 Bft) NW 309 0 min 0,000 mm 4,0 UV-I 429 W/m 12,2 C 12,9 km/h (3 Bft)
02.08.2016 14:30 21,1 C 21,1 C 60 % 1017,1 hPa 0,0 mm 8,6 km/h (2 Bft) NW 306 1 min 0,000 mm 4,2 UV-I 483 W/m 13,0 C 14,5 km/h (3 Bft)
02.08.2016 14:31 21,1 C 21,1 C 59 % 1017,1 hPa 0,0 mm 8,4 km/h (2 Bft) W-NW 296 0 min 0,000 mm 3,9 UV-I 425 W/m 12,8 C 12,9 km/h (3 Bft)
02.08.2016 14:32 21,1 C 21,1 C 60 % 1017,1 hPa 0,0 mm 6,6 km/h (2 Bft) W-NW 302 0 min 0,000 mm 4,0 UV-I 422 W/m 13,0 C 11,3 km/h (2 Bft)
02.08.2016 14:33 21,1 C 21,1 C 59 % 1017,1 hPa 0,0 mm 4,8 km/h (1 Bft) NW 311 1 min 0,000 mm 4,3 UV-I 468 W/m 12,8 C 6,4 km/h (2 Bft)
02.08.2016 14:34 21,1 C 21,1 C 59 % 1017,0 hPa 0,0 mm 7,7 km/h (2 Bft) W 273 1 min 0,000 mm 4,2 UV-I 468 W/m 12,8 C 16,1 km/h (3 Bft)
02.08.2016 14:35 21,2 C 21,2 C 60 % 1017,1 hPa 0,0 mm 12,2 km/h (2 Bft) W-NW 288 1 min 0,000 mm 4,2 UV-I 462 W/m 13,1 C 20,9 km/h (4 Bft)
02.08.2016 14:36 21,2 C 21,2 C 57 % 1017,0 hPa 0,0 mm 8,0 km/h (2 Bft) NW 323 1 min 0,000 mm 4,3 UV-I 468 W/m 12,3 C 12,9 km/h (3 Bft)
02.08.2016 14:37 21,3 C 21,3 C 59 % 1016,9 hPa 0,0 mm 8,0 km/h (2 Bft) W 268 1 min 0,000 mm 4,2 UV-I 461 W/m 13,0 C 14,5 km/h (3 Bft)
02.08.2016 14:38 21,2 C 21,3 C 57 % 1017,0 hPa 0,0 mm 7,7 km/h (2 Bft) W-NW 296 0 min 0,000 mm 4,1 UV-I 448 W/m 12,3 C 11,3 km/h (2 Bft)
02.08.2016 14:39 21,2 C 21,2 C 61 % 1016,9 hPa 0,0 mm 5,8 km/h (2 Bft) NW 312 0 min 0,000 mm 4,1 UV-I 436 W/m 13,4 C 9,7 km/h (2 Bft)
02.08.2016 14:40 21,2 C 21,2 C 61 % 1017,0 hPa 0,0 mm 9,8 km/h (2 Bft) SW 232 1 min 0,000 mm 4,3 UV-I 547 W/m 13,4 C 17,7 km/h (3 Bft)
02.08.2016 14:41 21,3 C 21,3 C 60 % 1016,9 hPa 0,0 mm 9,3 km/h (2 Bft) W 261 1 min 0,000 mm 4,9 UV-I 552 W/m 13,2 C 12,9 km/h (3 Bft)
02.08.2016 14:42 21,3 C 21,3 C 60 % 1017,0 hPa 0,0 mm 11,7 km/h (2 Bft) W 278 1 min 0,000 mm 5,5 UV-I 552 W/m 13,2 C 17,7 km/h (3 Bft)
02.08.2016 14:43 21,3 C 21,3 C 57 % 1017,0 hPa 0,0 mm 8,9 km/h (2 Bft) W 267 1 min 0,000 mm 5,3 UV-I 601 W/m 12,4 C 12,9 km/h (3 Bft)
02.08.2016 14:44 21,4 C 21,4 C 59 % 1017,0 hPa 0,0 mm 8,6 km/h (2 Bft) W 265 1 min 0,000 mm 5,4 UV-I 680 W/m 13,0 C 11,3 km/h (2 Bft)
02.08.2016 14:45 21,5 C 21,5 C 58 % 1017,0 hPa 0,0 mm 4,6 km/h (1 Bft) W 273 1 min 0,000 mm 5,1 UV-I 626 W/m 12,9 C 9,7 km/h (2 Bft)
02.08.2016 14:46 21,6 C 21,6 C 62 % 1017,0 hPa 0,0 mm 7,7 km/h (2 Bft) W-NW 291 1 min 0,000 mm 4,2 UV-I 559 W/m 14,0 C 16,1 km/h (3 Bft)
02.08.2016 14:47 21,6 C 21,6 C 56 % 1017,0 hPa 0,0 mm 9,1 km/h (2 Bft) W-NW 291 1 min 0,000 mm 4,5 UV-I 526 W/m 12,4 C 14,5 km/h (3 Bft)
02.08.2016 14:48 21,7 C 21,7 C 61 % 1016,9 hPa 0,0 mm 4,2 km/h (1 Bft) W 281 1 min 0,000 mm 4,9 UV-I 550 W/m 13,8 C 6,4 km/h (2 Bft)
02.08.2016 14:49 21,7 C 21,7 C 63 % 1017,0 hPa 0,0 mm 4,0 km/h (1 Bft) W-SW 246 1 min 0,000 mm 4,7 UV-I 596 W/m 14,3 C 6,4 km/h (2 Bft)
02.08.2016 14:50 21,8 C 21,8 C 58 % 1016,9 hPa 0,0 mm 4,3 km/h (1 Bft) NW 323 1 min 0,000 mm 4,6 UV-I 547 W/m 13,2 C 9,7 km/h (2 Bft)
02.08.2016 14:51 21,8 C 21,8 C 63 % 1017,0 hPa 0,0 mm 8,3 km/h (2 Bft) W 269 1 min 0,000 mm 5,9 UV-I 547 W/m 14,4 C 12,9 km/h (3 Bft)
02.08.2016 14:52 21,9 C 21,9 C 58 % 1017,0 hPa 0,0 mm 13,2 km/h (3 Bft) W 269 1 min 0,000 mm 4,9 UV-I 577 W/m 13,3 C 17,7 km/h (3 Bft)
02.08.2016 14:53 21,8 C 21,9 C 58 % 1017,0 hPa 0,0 mm 12,5 km/h (3 Bft) W 267 1 min 0,000 mm 4,1 UV-I 577 W/m 13,2 C 19,3 km/h (3 Bft)
02.08.2016 14:54 21,8 C 21,8 C 59 % 1017,0 hPa 0,0 mm 8,3 km/h (2 Bft) W-NW 286 1 min 0,000 mm 5,1 UV-I 577 W/m 13,4 C 12,9 km/h (3 Bft)
02.08.2016 14:55 21,7 C 21,8 C 59 % 1017,0 hPa 0,0 mm 10,9 km/h (2 Bft) W-NW 303 1 min 0,000 mm 4,0 UV-I 577 W/m 13,3 C 17,7 km/h (3 Bft)
02.08.2016 14:56 21,7 C 21,7 C 59 % 1017,0 hPa 0,0 mm 8,9 km/h (2 Bft) W 260 0 min 0,000 mm 3,5 UV-I 401 W/m 13,3 C 12,9 km/h (3 Bft)
02.08.2016 14:57 21,6 C 21,7 C 59 % 1017,0 hPa 0,0 mm 7,1 km/h (2 Bft) W-SW 240 0 min 0,000 mm 3,3 UV-I 343 W/m 13,2 C 9,7 km/h (2 Bft)
02.08.2016 14:58 21,5 C 21,6 C 60 % 1017,0 hPa 0,0 mm 12,5 km/h (3 Bft) W 279 0 min 0,000 mm 3,1 UV-I 329 W/m 13,4 C 17,7 km/h (3 Bft)
02.08.2016 14:59 21,3 C 21,5 C 57 % 1016,9 hPa 0,0 mm 11,3 km/h (2 Bft) W 278 0 min 0,000 mm 3,0 UV-I 329 W/m 12,4 C 16,1 km/h (3 Bft)
02.08.2016 15:00 21,2 C 21,3 C 57 % 1017,0 hPa 0,0 mm 10,3 km/h (2 Bft) W 268 0 min 0,000 mm 3,3 UV-I 352 W/m 12,3 C 16,1 km/h (3 Bft)
02.08.2016 15:01 21,1 C 21,2 C 58 % 1016,9 hPa 0,0 mm 11,1 km/h (2 Bft) N-NW 340 0 min 0,330 mm 3,3 UV-I 383 W/m 12,5 C 17,7 km/h (3 Bft)
02.08.2016 15:02 21,0 C 21,1 C 59 % 1017,0 hPa 0,0 mm 5,8 km/h (2 Bft) W 266 0 min 0,000 mm 3,1 UV-I 355 W/m 12,7 C 8,0 km/h (2 Bft)
02.08.2016 15:03 20,9 C 21,0 C 60 % 1017,0 hPa 0,0 mm 5,5 km/h (1 Bft) NW 313 0 min 0,000 mm 3,1 UV-I 336 W/m 12,8 C 9,7 km/h (2 Bft)
02.08.2016 15:04 21,0 C 21,0 C 63 % 1017,0 hPa 0,0 mm 8,2 km/h (2 Bft) W-NW 301 0 min 0,000 mm 3,0 UV-I 327 W/m 13,7 C 12,9 km/h (3 Bft)
02.08.2016 15:05 21,0 C 21,0 C 62 % 1017,0 hPa 0,0 mm 9,8 km/h (2 Bft) N-NW 346 0 min 0,000 mm 3,0 UV-I 327 W/m 13,4 C 16,1 km/h (3 Bft)
02.08.2016 15:06 21,0 C 21,0 C 61 % 1017,0 hPa 0,0 mm 8,2 km/h (2 Bft) W 259 0 min 0,000 mm 3,1 UV-I 336 W/m 13,2 C 11,3 km/h (2 Bft)
02.08.2016 15:07 20,9 C 21,0 C 61 % 1017,0 hPa 0,0 mm 9,8 km/h (2 Bft) W-NW 288 0 min 0,000 mm 3,2 UV-I 352 W/m 13,1 C 17,7 km/h (3 Bft)
02.08.2016 15:08 20,9 C 20,9 C 61 % 1017,0 hPa 0,0 mm 11,3 km/h (2 Bft) W-NW 291 0 min 0,000 mm 3,3 UV-I 359 W/m 13,1 C 16,1 km/h (3 Bft)
02.08.2016 15:09 20,9 C 20,9 C 59 % 1017,0 hPa 0,0 mm 8,2 km/h (2 Bft) N-NW 327 0 min 0,000 mm 3,5 UV-I 406 W/m 12,6 C 12,9 km/h (3 Bft)
02.08.2016 15:10 21,0 C 21,0 C 62 % 1017,0 hPa 0,0 mm 8,6 km/h (2 Bft) W-NW 291 1 min 0,000 mm 4,1 UV-I 487 W/m 13,4 C 16,1 km/h (3 Bft)
02.08.2016 15:11 21,0 C 21,0 C 61 % 1017,0 hPa 0,0 mm 10,8 km/h (2 Bft) W-NW 290 1 min 0,000 mm 3,7 UV-I 487 W/m 13,2 C 16,1 km/h (3 Bft)
02.08.2016 15:12 20,9 C 21,0 C 60 % 1017,0 hPa 0,0 mm 12,5 km/h (3 Bft) SW 233 0 min 0,000 mm 3,7 UV-I 413 W/m 12,8 C 16,1 km/h (3 Bft)
02.08.2016 15:13 20,9 C 20,9 C 60 % 1017,0 hPa 0,0 mm 12,1 km/h (2 Bft) W-NW 286 0 min 0,000 mm 3,9 UV-I 415 W/m 12,8 C 19,3 km/h (3 Bft)
02.08.2016 15:14 20,9 C 20,9 C 59 % 1017,0 hPa 0,0 mm 8,7 km/h (2 Bft) W-NW 286 1 min 0,000 mm 4,1 UV-I 459 W/m 12,6 C 16,1 km/h (3 Bft)
02.08.2016 15:15 20,9 C 20,9 C 60 % 1017,0 hPa 0,0 mm 11,7 km/h (2 Bft) W 277 1 min 0,000 mm 3,8 UV-I 443 W/m 12,8 C 16,1 km/h (3 Bft)
02.08.2016 15:16 20,9 C 20,9 C 62 % 1017,0 hPa 0,0 mm 6,4 km/h (2 Bft) W 280 0 min 0,000 mm 3,5 UV-I 396 W/m 13,3 C 11,3 km/h (2 Bft)
02.08.2016 15:17 20,9 C 20,9 C 60 % 1017,0 hPa 0,0 mm 11,9 km/h (2 Bft) W 271 0 min 0,000 mm 3,7 UV-I 406 W/m 12,8 C 17,7 km/h (3 Bft)
02.08.2016 15:18 21,0 C 21,0 C 61 % 1017,0 hPa 0,0 mm 11,7 km/h (2 Bft) W-NW 282 1 min 0,000 mm 3,9 UV-I 480 W/m 13,2 C 17,7 km/h (3 Bft)
02.08.2016 15:19 21,1 C 21,1 C 63 % 1017,0 hPa 0,0 mm 6,9 km/h (2 Bft) W-SW 254 1 min 0,000 mm 3,8 UV-I 436 W/m 13,8 C 9,7 km/h (2 Bft)
02.08.2016 15:20 21,1 C 21,1 C 61 % 1017,0 hPa 0,0 mm 6,8 km/h (2 Bft) W 263 0 min 0,000 mm 3,5 UV-I 408 W/m 13,3 C 16,1 km/h (3 Bft)
02.08.2016 15:21 21,1 C 21,1 C 61 % 1017,0 hPa 0,0 mm 10,4 km/h (2 Bft) W 271 0 min 0,000 mm 3,4 UV-I 374 W/m 13,3 C 16,1 km/h (3 Bft)
02.08.2016 15:22 21,1 C 21,1 C 60 % 1016,9 hPa 0,0 mm 6,9 km/h (2 Bft) S-SW 209 0 min 0,000 mm 3,3 UV-I 381 W/m 13,0 C 12,9 km/h (3 Bft)
02.08.2016 15:23 21,0 C 21,1 C 62 % 1016,9 hPa 0,0 mm 4,5 km/h (1 Bft) W-SW 247 0 min 0,000 mm 3,2 UV-I 371 W/m 13,4 C 9,7 km/h (2 Bft)
02.08.2016 15:24 21,0 C 21,0 C 60 % 1016,9 hPa 0,0 mm 7,2 km/h (2 Bft) NW 306 0 min 0,000 mm 3,2 UV-I 359 W/m 12,9 C 11,3 km/h (2 Bft)
02.08.2016 15:25 21,0 C 21,0 C 60 % 1016,9 hPa 0,0 mm 8,9 km/h (2 Bft) W 264 0 min 0,000 mm 3,1 UV-I 348 W/m 12,9 C 12,9 km/h (3 Bft)
02.08.2016 15:26 21,0 C 21,0 C 59 % 1016,9 hPa 0,0 mm 7,0 km/h (2 Bft) SW 215 0 min 0,000 mm 3,2 UV-I 355 W/m 12,7 C 12,9 km/h (3 Bft)
02.08.2016 15:27 21,0 C 21,0 C 64 % 1016,9 hPa 0,0 mm 6,6 km/h (2 Bft) NW 313 0 min 0,000 mm 3,2 UV-I 364 W/m 13,9 C 14,5 km/h (3 Bft)
02.08.2016 15:28 21,0 C 21,0 C 60 % 1016,9 hPa 0,0 mm 9,8 km/h (2 Bft) W 273 0 min 0,000 mm 3,2 UV-I 360 W/m 12,9 C 17,7 km/h (3 Bft)
02.08.2016 15:29 20,9 C 21,0 C 60 % 1016,9 hPa 0,0 mm 12,2 km/h (2 Bft) W-NW 287 0 min 0,000 mm 3,1 UV-I 355 W/m 12,8 C 17,7 km/h (3 Bft)
02.08.2016 15:30 20,9 C 20,9 C 60 % 1016,9 hPa 0,0 mm 11,8 km/h (2 Bft) W-SW 253 0 min 0,000 mm 3,0 UV-I 341 W/m 12,8 C 17,7 km/h (3 Bft)
02.08.2016 15:31 20,8 C 20,9 C 61 % 1016,9 hPa 0,0 mm 8,4 km/h (2 Bft) W-NW 294 0 min 0,000 mm 2,9 UV-I 332 W/m 13,0 C 12,9 km/h (3 Bft)
02.08.2016 15:32 20,8 C 20,8 C 61 % 1016,9 hPa 0,0 mm 8,7 km/h (2 Bft) W 276 0 min 0,000 mm 2,9 UV-I 332 W/m 13,0 C 14,5 km/h (3 Bft)
02.08.2016 15:33 20,8 C 20,8 C 61 % 1016,9 hPa 0,0 mm 6,2 km/h (2 Bft) W-NW 291 0 min 0,000 mm 2,9 UV-I 325 W/m 13,0 C 11,3 km/h (2 Bft)
02.08.2016 15:34 20,8 C 20,8 C 64 % 1016,9 hPa 0,0 mm 7,2 km/h (2 Bft) NW 307 0 min 0,000 mm 2,9 UV-I 338 W/m 13,7 C 12,9 km/h (3 Bft)
02.08.2016 15:35 20,8 C 20,8 C 62 % 1016,9 hPa 0,0 mm 6,6 km/h (2 Bft) W 276 0 min 0,000 mm 3,0 UV-I 345 W/m 13,2 C 11,3 km/h (2 Bft)
02.08.2016 15:36 20,9 C 20,9 C 63 % 1016,9 hPa 0,0 mm 6,8 km/h (2 Bft) W 269 0 min 0,000 mm 3,1 UV-I 355 W/m 13,6 C 11,3 km/h (2 Bft)
02.08.2016 15:37 20,9 C 20,9 C 65 % 1016,9 hPa 0,0 mm 4,6 km/h (1 Bft) W 279 0 min 0,000 mm 3,0 UV-I 371 W/m 14,1 C 9,7 km/h (2 Bft)
02.08.2016 15:38 20,9 C 20,9 C 63 % 1016,9 hPa 0,0 mm 8,4 km/h (2 Bft) W-NW 303 0 min 0,000 mm 3,0 UV-I 352 W/m 13,6 C 12,9 km/h (3 Bft)
02.08.2016 15:39 20,9 C 20,9 C 61 % 1016,9 hPa 0,0 mm 9,2 km/h (2 Bft) W 267 0 min 0,000 mm 3,0 UV-I 348 W/m 13,1 C 14,5 km/h (3 Bft)
02.08.2016 15:40 20,9 C 20,9 C 61 % 1016,9 hPa 0,0 mm 5,5 km/h (1 Bft) W-SW 257 0 min 0,000 mm 3,0 UV-I 343 W/m 13,1 C 9,7 km/h (2 Bft)
02.08.2016 15:41 20,9 C 20,9 C 64 % 1016,9 hPa 0,0 mm 5,3 km/h (1 Bft) W 260 0 min 0,000 mm 3,0 UV-I 345 W/m 13,8 C 6,4 km/h (2 Bft)
02.08.2016 15:42 20,9 C 20,9 C 64 % 1016,8 hPa 0,0 mm 6,8 km/h (2 Bft) W-SW 243 0 min 0,000 mm 3,1 UV-I 355 W/m 13,8 C 9,7 km/h (2 Bft)
02.08.2016 15:43 21,0 C 21,0 C 66 % 1016,8 hPa 0,0 mm 6,1 km/h (2 Bft) W-SW 256 0 min 0,000 mm 3,1 UV-I 367 W/m 14,4 C 14,5 km/h (3 Bft)
02.08.2016 15:44 21,0 C 21,0 C 61 % 1016,9 hPa 0,0 mm 9,8 km/h (2 Bft) W 281 0 min 0,000 mm 3,0 UV-I 366 W/m 13,2 C 12,9 km/h (3 Bft)
02.08.2016 15:45 21,1 C 21,1 C 63 % 1016,8 hPa 0,0 mm 5,4 km/h (1 Bft) S 182 0 min 0,000 mm 3,0 UV-I 357 W/m 13,8 C 8,0 km/h (2 Bft)
02.08.2016 15:46 21,0 C 21,1 C 60 % 1016,8 hPa 0,0 mm 7,4 km/h (2 Bft) W 260 0 min 0,000 mm 2,9 UV-I 348 W/m 12,9 C 17,7 km/h (3 Bft)
02.08.2016 15:47 21,0 C 21,0 C 62 % 1016,8 hPa 0,0 mm 5,2 km/h (1 Bft) W-SW 255 0 min 0,000 mm 2,9 UV-I 341 W/m 13,4 C 11,3 km/h (2 Bft)
02.08.2016 15:48 21,0 C 21,0 C 61 % 1016,8 hPa 0,0 mm 5,0 km/h (1 Bft) SW 217 0 min 0,000 mm 2,9 UV-I 341 W/m 13,2 C 6,4 km/h (2 Bft)
02.08.2016 15:49 21,0 C 21,0 C 63 % 1016,8 hPa 0,0 mm 6,2 km/h (2 Bft) W 281 0 min 0,000 mm 2,9 UV-I 339 W/m 13,7 C 12,9 km/h (3 Bft)
02.08.2016 15:50 21,0 C 21,0 C 63 % 1016,8 hPa 0,0 mm 7,8 km/h (2 Bft) SW 234 0 min 0,000 mm 2,9 UV-I 343 W/m 13,7 C 11,3 km/h (2 Bft)
02.08.2016 15:51 20,9 C 21,0 C 62 % 1016,8 hPa 0,0 mm 6,7 km/h (2 Bft) W 267 0 min 0,000 mm 2,9 UV-I 343 W/m 13,3 C 11,3 km/h (2 Bft)
02.08.2016 15:52 20,9 C 20,9 C 64 % 1016,8 hPa 0,0 mm 4,1 km/h (1 Bft) W 273 0 min 0,000 mm 3,0 UV-I 369 W/m 13,8 C 6,4 km/h (2 Bft)
02.08.2016 15:53 20,9 C 20,9 C 63 % 1016,8 hPa 0,0 mm 9,4 km/h (2 Bft) W-SW 250 0 min 0,000 mm 2,9 UV-I 343 W/m 13,6 C 12,9 km/h (3 Bft)
02.08.2016 15:54 20,9 C 20,9 C 64 % 1016,8 hPa 0,0 mm 7,9 km/h (2 Bft) SW 230 0 min 0,000 mm 2,8 UV-I 332 W/m 13,8 C 9,7 km/h (2 Bft)
02.08.2016 15:55 21,0 C 21,0 C 61 % 1016,8 hPa 0,0 mm 11,0 km/h (2 Bft) W 270 0 min 0,000 mm 2,8 UV-I 323 W/m 13,2 C 16,1 km/h (3 Bft)
02.08.2016 15:56 20,9 C 21,0 C 60 % 1016,8 hPa 0,0 mm 6,9 km/h (2 Bft) NW 304 0 min 0,000 mm 2,7 UV-I 325 W/m 12,8 C 14,5 km/h (3 Bft)
02.08.2016 15:57 20,9 C 21,0 C 60 % 1016,8 hPa 0,0 mm 4,5 km/h (1 Bft) W 261 0 min 0,000 mm 2,8 UV-I 329 W/m 12,8 C 9,7 km/h (2 Bft)
02.08.2016 15:58 21,0 C 21,0 C 64 % 1016,8 hPa 0,0 mm 4,3 km/h (1 Bft) W 261 0 min 0,000 mm 2,7 UV-I 329 W/m 13,9 C 8,0 km/h (2 Bft)
02.08.2016 15:59 21,0 C 21,0 C 64 % 1016,8 hPa 0,0 mm 6,0 km/h (2 Bft) W-SW 241 0 min 0,000 mm 2,7 UV-I 325 W/m 13,9 C 9,7 km/h (2 Bft)
02.08.2016 16:00 21,1 C 21,1 C 68 % 1016,7 hPa 0,0 mm 8,4 km/h (2 Bft) S 169 0 min 0,000 mm 2,6 UV-I 315 W/m 15,0 C 12,9 km/h (3 Bft)
02.08.2016 16:01 21,1 C 21,1 C 61 % 1016,7 hPa 0,0 mm 10,7 km/h (2 Bft) W-SW 254 0 min 0,254 mm 2,6 UV-I 306 W/m 13,3 C 17,7 km/h (3 Bft)
02.08.2016 16:02 21,0 C 21,1 C 62 % 1016,8 hPa 0,0 mm 14,0 km/h (3 Bft) W-SW 253 0 min 0,000 mm 2,6 UV-I 313 W/m 13,4 C 17,7 km/h (3 Bft)
02.08.2016 16:03 20,9 C 21,0 C 62 % 1016,8 hPa 0,0 mm 10,8 km/h (2 Bft) W-SW 258 0 min 0,000 mm 2,6 UV-I 318 W/m 13,3 C 17,7 km/h (3 Bft)
02.08.2016 16:04 20,9 C 21,0 C 64 % 1016,8 hPa 0,0 mm 8,5 km/h (2 Bft) W 260 0 min 0,000 mm 2,7 UV-I 325 W/m 13,8 C 14,5 km/h (3 Bft)
02.08.2016 16:05 20,9 C 20,9 C 61 % 1016,8 hPa 0,0 mm 8,0 km/h (2 Bft) W 261 0 min 0,000 mm 2,8 UV-I 336 W/m 13,1 C 12,9 km/h (3 Bft)
02.08.2016 16:06 20,9 C 20,9 C 65 % 1016,8 hPa 0,0 mm 6,4 km/h (2 Bft) W-SW 254 0 min 0,000 mm 2,8 UV-I 346 W/m 14,1 C 9,7 km/h (2 Bft)
02.08.2016 16:07 20,9 C 20,9 C 60 % 1016,8 hPa 0,0 mm 12,8 km/h (3 Bft) W-SW 246 0 min 0,000 mm 2,9 UV-I 352 W/m 12,8 C 16,1 km/h (3 Bft)
02.08.2016 16:08 20,9 C 20,9 C 61 % 1016,8 hPa 0,0 mm 6,9 km/h (2 Bft) W 275 0 min 0,000 mm 3,0 UV-I 367 W/m 13,1 C 11,3 km/h (2 Bft)
02.08.2016 16:09 21,0 C 21,0 C 61 % 1016,8 hPa 0,0 mm 9,9 km/h (2 Bft) W 263 0 min 0,000 mm 3,0 UV-I 367 W/m 13,2 C 14,5 km/h (3 Bft)
02.08.2016 16:10 21,0 C 21,0 C 62 % 1016,8 hPa 0,0 mm 6,1 km/h (2 Bft) W-SW 257 0 min 0,000 mm 3,0 UV-I 369 W/m 13,4 C 14,5 km/h (3 Bft)
02.08.2016 16:11 21,0 C 21,0 C 63 % 1016,8 hPa 0,0 mm 6,6 km/h (2 Bft) S-SW 201 0 min 0,000 mm 2,9 UV-I 357 W/m 13,7 C 12,9 km/h (3 Bft)
02.08.2016 16:12 21,0 C 21,1 C 62 % 1016,8 hPa 0,0 mm 5,0 km/h (1 Bft) W-NW 291 0 min 0,000 mm 2,9 UV-I 353 W/m 13,4 C 6,4 km/h (2 Bft)
02.08.2016 16:13 21,1 C 21,1 C 63 % 1016,8 hPa 0,0 mm 6,0 km/h (2 Bft) W-SW 256 0 min 0,000 mm 2,9 UV-I 359 W/m 13,8 C 14,5 km/h (3 Bft)
02.08.2016 16:14 21,1 C 21,1 C 61 % 1016,8 hPa 0,0 mm 11,4 km/h (2 Bft) W 281 0 min 0,000 mm 2,9 UV-I 366 W/m 13,3 C 16,1 km/h (3 Bft)
02.08.2016 16:15 21,1 C 21,2 C 63 % 1016,8 hPa 0,0 mm 4,6 km/h (1 Bft) W-SW 239 0 min 0,000 mm 3,0 UV-I 367 W/m 13,8 C 11,3 km/h (2 Bft)
02.08.2016 16:16 21,1 C 21,2 C 65 % 1016,8 hPa 0,0 mm 6,4 km/h (2 Bft) SW 236 0 min 0,000 mm 3,0 UV-I 367 W/m 14,3 C 14,5 km/h (3 Bft)
02.08.2016 16:17 21,1 C 21,2 C 60 % 1016,8 hPa 0,0 mm 15,2 km/h (3 Bft) W-SW 249 0 min 0,000 mm 2,9 UV-I 364 W/m 13,0 C 24,1 km/h (4 Bft)
02.08.2016 16:18 21,1 C 21,1 C 59 % 1016,8 hPa 0,0 mm 7,7 km/h (2 Bft) W-SW 242 0 min 0,000 mm 2,9 UV-I 350 W/m 12,8 C 16,1 km/h (3 Bft)
02.08.2016 16:19 21,1 C 21,1 C 59 % 1016,8 hPa 0,0 mm 8,8 km/h (2 Bft) W-SW 251 0 min 0,000 mm 2,9 UV-I 359 W/m 12,8 C 12,9 km/h (3 Bft)
02.08.2016 16:20 21,1 C 21,1 C 60 % 1016,8 hPa 0,0 mm 11,3 km/h (2 Bft) W-SW 253 1 min 0,000 mm 2,9 UV-I 376 W/m 13,0 C 17,7 km/h (3 Bft)
02.08.2016 16:21 21,0 C 21,1 C 60 % 1016,8 hPa 0,0 mm 13,3 km/h (3 Bft) W 259 1 min 0,000 mm 3,1 UV-I 385 W/m 12,9 C 16,1 km/h (3 Bft)
02.08.2016 16:22 21,1 C 21,1 C 60 % 1016,7 hPa 0,0 mm 7,6 km/h (2 Bft) W-SW 254 1 min 0,000 mm 3,0 UV-I 381 W/m 13,0 C 11,3 km/h (2 Bft)
02.08.2016 16:23 21,1 C 21,1 C 64 % 1016,8 hPa 0,0 mm 5,9 km/h (2 Bft) W-NW 291 1 min 0,000 mm 2,9 UV-I 381 W/m 14,0 C 8,0 km/h (2 Bft)
02.08.2016 16:24 21,1 C 21,1 C 61 % 1016,8 hPa 0,0 mm 6,9 km/h (2 Bft) W 279 0 min 0,000 mm 2,8 UV-I 357 W/m 13,3 C 12,9 km/h (3 Bft)
02.08.2016 16:25 21,2 C 21,2 C 61 % 1016,8 hPa 0,0 mm 7,4 km/h (2 Bft) W-SW 248 0 min 0,000 mm 2,8 UV-I 345 W/m 13,4 C 11,3 km/h (2 Bft)
02.08.2016 16:26 21,1 C 21,2 C 60 % 1016,8 hPa 0,0 mm 9,9 km/h (2 Bft) W-SW 257 0 min 0,000 mm 2,6 UV-I 332 W/m 13,0 C 12,9 km/h (3 Bft)
02.08.2016 16:27 21,1 C 21,1 C 60 % 1016,8 hPa 0,0 mm 5,3 km/h (1 Bft) NW 314 0 min 0,000 mm 2,5 UV-I 313 W/m 13,0 C 9,7 km/h (2 Bft)
02.08.2016 16:28 21,1 C 21,1 C 61 % 1016,8 hPa 0,0 mm 4,0 km/h (1 Bft) W-SW 250 0 min 0,000 mm 2,4 UV-I 290 W/m 13,3 C 12,9 km/h (3 Bft)
02.08.2016 16:29 21,1 C 21,1 C 62 % 1016,8 hPa 0,0 mm 5,8 km/h (2 Bft) NW 306 0 min 0,000 mm 2,2 UV-I 265 W/m 13,5 C 12,9 km/h (3 Bft)
02.08.2016 16:30 21,1 C 21,1 C 64 % 1016,8 hPa 0,0 mm 8,5 km/h (2 Bft) NW 317 0 min 0,000 mm 2,2 UV-I 244 W/m 14,0 C 14,5 km/h (3 Bft)
02.08.2016 16:31 21,0 C 21,1 C 63 % 1016,8 hPa 0,0 mm 8,0 km/h (2 Bft) W-NW 283 0 min 0,000 mm 2,0 UV-I 213 W/m 13,7 C 11,3 km/h (2 Bft)
02.08.2016 16:32 20,9 C 21,0 C 64 % 1016,8 hPa 0,0 mm 8,7 km/h (2 Bft) W-SW 244 0 min 0,000 mm 1,8 UV-I 206 W/m 13,8 C 12,9 km/h (3 Bft)
02.08.2016 16:33 20,8 C 20,9 C 63 % 1016,8 hPa 0,0 mm 9,1 km/h (2 Bft) W-SW 252 0 min 0,000 mm 1,8 UV-I 206 W/m 13,5 C 12,9 km/h (3 Bft)
02.08.2016 16:34 20,8 C 20,9 C 63 % 1016,9 hPa 0,0 mm 6,8 km/h (2 Bft) W-NW 292 0 min 0,000 mm 1,9 UV-I 211 W/m 13,5 C 12,9 km/h (3 Bft)
02.08.2016 16:35 20,7 C 20,8 C 61 % 1016,8 hPa 0,0 mm 9,9 km/h (2 Bft) W-SW 257 0 min 0,000 mm 1,9 UV-I 221 W/m 12,9 C 16,1 km/h (3 Bft)
02.08.2016 16:36 20,7 C 20,7 C 62 % 1016,9 hPa 0,0 mm 11,0 km/h (2 Bft) W 271 0 min 0,000 mm 2,0 UV-I 239 W/m 13,2 C 14,5 km/h (3 Bft)
02.08.2016 16:37 20,7 C 20,7 C 62 % 1016,9 hPa 0,0 mm 9,5 km/h (2 Bft) W-NW 285 0 min 0,000 mm 2,2 UV-I 292 W/m 13,2 C 17,7 km/h (3 Bft)
02.08.2016 16:38 20,7 C 20,7 C 63 % 1016,9 hPa 0,0 mm 6,6 km/h (2 Bft) NW 316 0 min 0,000 mm 2,5 UV-I 315 W/m 13,4 C 9,7 km/h (2 Bft)
02.08.2016 16:39 20,7 C 20,7 C 64 % 1016,9 hPa 0,0 mm 6,0 km/h (2 Bft) W 273 0 min 0,000 mm 2,5 UV-I 327 W/m 13,6 C 9,7 km/h (2 Bft)
02.08.2016 16:40 20,7 C 20,7 C 63 % 1016,9 hPa 0,0 mm 9,4 km/h (2 Bft) W-NW 296 0 min 0,000 mm 2,6 UV-I 332 W/m 13,4 C 16,1 km/h (3 Bft)
02.08.2016 16:41 20,7 C 20,7 C 63 % 1016,9 hPa 0,0 mm 7,4 km/h (2 Bft) W-SW 239 0 min 0,000 mm 2,5 UV-I 325 W/m 13,4 C 9,7 km/h (2 Bft)
02.08.2016 16:42 20,7 C 20,7 C 61 % 1016,9 hPa 0,0 mm 10,8 km/h (2 Bft) W-SW 250 0 min 0,000 mm 2,5 UV-I 315 W/m 12,9 C 19,3 km/h (3 Bft)
02.08.2016 16:43 20,7 C 20,7 C 61 % 1016,8 hPa 0,0 mm 7,3 km/h (2 Bft) W-NW 286 0 min 0,000 mm 2,4 UV-I 301 W/m 12,9 C 11,3 km/h (2 Bft)
02.08.2016 16:44 20,7 C 20,7 C 63 % 1016,8 hPa 0,0 mm 6,5 km/h (2 Bft) W-SW 250 0 min 0,000 mm 2,4 UV-I 302 W/m 13,4 C 11,3 km/h (2 Bft)
02.08.2016 16:45 20,7 C 20,7 C 64 % 1016,8 hPa 0,0 mm 4,1 km/h (1 Bft) W 281 0 min 0,000 mm 2,4 UV-I 308 W/m 13,6 C 6,4 km/h (2 Bft)
02.08.2016 16:46 20,7 C 20,7 C 64 % 1016,8 hPa 0,0 mm 4,2 km/h (1 Bft) W 269 0 min 0,000 mm 2,4 UV-I 309 W/m 13,6 C 9,7 km/h (2 Bft)
02.08.2016 16:47 20,8 C 20,8 C 64 % 1016,8 hPa 0,0 mm 8,6 km/h (2 Bft) W 273 0 min 0,000 mm 2,4 UV-I 311 W/m 13,7 C 14,5 km/h (3 Bft)
02.08.2016 16:48 20,8 C 20,8 C 63 % 1016,7 hPa 0,0 mm 12,5 km/h (3 Bft) W-NW 302 0 min 0,000 mm 2,4 UV-I 285 W/m 13,5 C 16,1 km/h (3 Bft)
02.08.2016 16:49 20,7 C 20,8 C 63 % 1016,7 hPa 0,0 mm 4,9 km/h (1 Bft) W 277 0 min 0,000 mm 2,4 UV-I 267 W/m 13,4 C 8,0 km/h (2 Bft)
02.08.2016 16:50 20,7 C 20,8 C 63 % 1016,8 hPa 0,0 mm 9,7 km/h (2 Bft) W 261 0 min 0,000 mm 2,3 UV-I 262 W/m 13,4 C 16,1 km/h (3 Bft)
02.08.2016 16:51 20,7 C 20,8 C 62 % 1016,8 hPa 0,0 mm 8,0 km/h (2 Bft) W 281 0 min 0,000 mm 2,3 UV-I 267 W/m 13,2 C 11,3 km/h (2 Bft)
02.08.2016 16:52 20,7 C 20,7 C 63 % 1016,7 hPa 0,0 mm 6,5 km/h (2 Bft) SW 227 0 min 0,000 mm 2,3 UV-I 274 W/m 13,4 C 11,3 km/h (2 Bft)
02.08.2016 16:53 20,7 C 20,7 C 63 % 1016,8 hPa 0,0 mm 8,8 km/h (2 Bft) W 280 0 min 0,000 mm 2,3 UV-I 269 W/m 13,4 C 12,9 km/h (3 Bft)
02.08.2016 16:54 20,7 C 20,7 C 65 % 1016,7 hPa 0,0 mm 5,9 km/h (2 Bft) W-SW 257 0 min 0,000 mm 2,3 UV-I 264 W/m 13,9 C 9,7 km/h (2 Bft)
02.08.2016 16:55 20,7 C 20,7 C 66 % 1016,7 hPa 0,0 mm 5,2 km/h (1 Bft) W-NW 300 0 min 0,000 mm 2,3 UV-I 255 W/m 14,1 C 9,7 km/h (2 Bft)
02.08.2016 16:56 20,8 C 20,8 C 64 % 1016,7 hPa 0,0 mm 5,5 km/h (1 Bft) NW 312 0 min 0,000 mm 2,2 UV-I 248 W/m 13,7 C 8,0 km/h (2 Bft)
02.08.2016 16:57 20,7 C 20,8 C 63 % 1016,7 hPa 0,0 mm 8,0 km/h (2 Bft) W-SW 250 0 min 0,000 mm 2,2 UV-I 243 W/m 13,4 C 14,5 km/h (3 Bft)
02.08.2016 16:58 20,8 C 20,8 C 63 % 1016,7 hPa 0,0 mm 10,3 km/h (2 Bft) W-SW 251 0 min 0,000 mm 2,2 UV-I 239 W/m 13,5 C 16,1 km/h (3 Bft)
02.08.2016 16:59 20,7 C 20,8 C 63 % 1016,7 hPa 0,0 mm 11,0 km/h (2 Bft) W 265 0 min 0,000 mm 2,2 UV-I 239 W/m 13,4 C 16,1 km/h (3 Bft)
02.08.2016 17:00 20,7 C 20,7 C 65 % 1016,7 hPa 0,0 mm 5,9 km/h (2 Bft) W 264 0 min 0,000 mm 2,2 UV-I 243 W/m 13,9 C 9,7 km/h (2 Bft)
02.08.2016 17:01 20,7 C 20,7 C 66 % 1016,8 hPa 0,0 mm 7,4 km/h (2 Bft) W-SW 256 0 min 0,228 mm 2,2 UV-I 244 W/m 14,1 C 12,9 km/h (3 Bft)
02.08.2016 17:02 20,7 C 20,7 C 63 % 1016,7 hPa 0,0 mm 9,4 km/h (2 Bft) W 263 0 min 0,000 mm 2,2 UV-I 246 W/m 13,4 C 12,9 km/h (3 Bft)
02.08.2016 17:03 20,7 C 20,7 C 63 % 1016,7 hPa 0,0 mm 4,7 km/h (1 Bft) NW 304 0 min 0,000 mm 2,2 UV-I 243 W/m 13,4 C 11,3 km/h (2 Bft)
02.08.2016 17:04 20,7 C 20,7 C 65 % 1016,7 hPa 0,0 mm 6,8 km/h (2 Bft) W-NW 293 0 min 0,000 mm 2,1 UV-I 236 W/m 13,9 C 14,5 km/h (3 Bft)
02.08.2016 17:05 20,7 C 20,7 C 63 % 1016,8 hPa 0,0 mm 8,5 km/h (2 Bft) W 277 0 min 0,000 mm 2,0 UV-I 227 W/m 13,4 C 12,9 km/h (3 Bft)
02.08.2016 17:06 20,6 C 20,7 C 62 % 1016,7 hPa 0,0 mm 7,0 km/h (2 Bft) W-NW 287 0 min 0,000 mm 1,9 UV-I 225 W/m 13,1 C 11,3 km/h (2 Bft)
02.08.2016 17:07 20,6 C 20,7 C 61 % 1016,7 hPa 0,0 mm 12,9 km/h (3 Bft) W-SW 248 0 min 0,000 mm 1,7 UV-I 206 W/m 12,8 C 17,7 km/h (3 Bft)
02.08.2016 17:08 20,6 C 20,6 C 65 % 1016,7 hPa 0,0 mm 7,5 km/h (2 Bft) W 269 0 min 0,000 mm 1,6 UV-I 193 W/m 13,8 C 12,9 km/h (3 Bft)
02.08.2016 17:09 20,6 C 20,6 C 63 % 1016,8 hPa 0,0 mm 11,7 km/h (2 Bft) W 271 0 min 0,000 mm 1,5 UV-I 183 W/m 13,3 C 17,7 km/h (3 Bft)
02.08.2016 17:10 20,5 C 20,6 C 64 % 1016,7 hPa 0,0 mm 10,8 km/h (2 Bft) W-SW 258 0 min 0,000 mm 1,4 UV-I 176 W/m 13,5 C 17,7 km/h (3 Bft)
02.08.2016 17:11 20,4 C 20,5 C 62 % 1016,8 hPa 0,0 mm 9,7 km/h (2 Bft) W-NW 290 0 min 0,000 mm 1,3 UV-I 167 W/m 12,9 C 17,7 km/h (3 Bft)
02.08.2016 17:12 20,3 C 20,4 C 61 % 1016,8 hPa 0,0 mm 7,7 km/h (2 Bft) W 281 0 min 0,000 mm 1,2 UV-I 151 W/m 12,5 C 14,5 km/h (3 Bft)
02.08.2016 17:13 20,3 C 20,3 C 63 % 1016,8 hPa 0,0 mm 6,4 km/h (2 Bft) W 265 0 min 0,000 mm 1,1 UV-I 144 W/m 13,0 C 11,3 km/h (2 Bft)
02.08.2016 17:14 20,3 C 20,3 C 63 % 1016,8 hPa 0,0 mm 5,7 km/h (1 Bft) W-SW 252 0 min 0,000 mm 1,1 UV-I 135 W/m 13,0 C 11,3 km/h (2 Bft)
02.08.2016 17:15 20,2 C 20,3 C 62 % 1016,8 hPa 0,0 mm 8,6 km/h (2 Bft) N-NW 339 0 min 0,000 mm 1,0 UV-I 123 W/m 12,7 C 14,5 km/h (3 Bft)
02.08.2016 17:16 20,2 C 20,2 C 62 % 1016,9 hPa 0,0 mm 11,0 km/h (2 Bft) NW 309 0 min 0,000 mm 1,0 UV-I 116 W/m 12,7 C 16,1 km/h (3 Bft)
02.08.2016 17:17 20,1 C 20,2 C 62 % 1016,8 hPa 0,0 mm 8,3 km/h (2 Bft) NW 317 0 min 0,000 mm 0,9 UV-I 113 W/m 12,6 C 11,3 km/h (2 Bft)
02.08.2016 17:18 20,1 C 20,1 C 62 % 1016,8 hPa 0,0 mm 8,6 km/h (2 Bft) W-NW 285 0 min 0,000 mm 0,9 UV-I 114 W/m 12,6 C 12,9 km/h (3 Bft)
02.08.2016 17:19 20,1 C 20,1 C 62 % 1016,8 hPa 0,0 mm 6,6 km/h (2 Bft) W 272 0 min 0,000 mm 1,0 UV-I 120 W/m 12,6 C 11,3 km/h (2 Bft)
02.08.2016 17:20 20,0 C 20,1 C 63 % 1016,8 hPa 0,0 mm 5,7 km/h (1 Bft) W-SW 244 0 min 0,000 mm 1,0 UV-I 125 W/m 12,7 C 11,3 km/h (2 Bft)
02.08.2016 17:21 19,9 C 20,0 C 65 % 1016,8 hPa 0,0 mm 7,3 km/h (2 Bft) NW 304 0 min 0,000 mm 1,0 UV-I 128 W/m 13,1 C 12,9 km/h (3 Bft)
02.08.2016 17:22 19,9 C 20,0 C 66 % 1016,9 hPa 0,0 mm 4,8 km/h (1 Bft) W 273 0 min 0,000 mm 1,0 UV-I 130 W/m 13,4 C 9,7 km/h (2 Bft)
02.08.2016 17:23 19,9 C 19,9 C 67 % 1016,8 hPa 0,0 mm 3,7 km/h (1 Bft) W-NW 286 0 min 0,000 mm 1,0 UV-I 130 W/m 13,6 C 4,8 km/h (1 Bft)
02.08.2016 17:24 19,8 C 19,9 C 67 % 1016,8 hPa 0,0 mm 5,0 km/h (1 Bft) W 273 0 min 0,000 mm 1,0 UV-I 125 W/m 13,5 C 6,4 km/h (2 Bft)
02.08.2016 17:25 19,8 C 19,9 C 67 % 1016,8 hPa 0,0 mm 9,1 km/h (2 Bft) W-NW 285 0 min 0,000 mm 1,0 UV-I 123 W/m 13,5 C 14,5 km/h (3 Bft)
02.08.2016 17:26 19,8 C 19,9 C 65 % 1016,9 hPa 0,0 mm 8,0 km/h (2 Bft) W 261 0 min 0,000 mm 1,0 UV-I 123 W/m 13,0 C 14,5 km/h (3 Bft)
02.08.2016 17:27 19,8 C 19,8 C 66 % 1016,9 hPa 0,0 mm 7,8 km/h (2 Bft) W 274 0 min 0,000 mm 1,0 UV-I 127 W/m 13,3 C 12,9 km/h (3 Bft)
02.08.2016 17:28 19,8 C 19,8 C 64 % 1016,8 hPa 0,0 mm 7,4 km/h (2 Bft) W 279 0 min 0,000 mm 1,0 UV-I 130 W/m 12,8 C 11,3 km/h (2 Bft)
02.08.2016 17:29 19,8 C 19,8 C 65 % 1016,8 hPa 0,0 mm 6,4 km/h (2 Bft) W 275 0 min 0,000 mm 1,1 UV-I 134 W/m 13,0 C 11,3 km/h (2 Bft)
02.08.2016 17:30 19,8 C 19,8 C 66 % 1016,8 hPa 0,0 mm 3,6 km/h (1 Bft) W-SW 251 0 min 0,000 mm 1,1 UV-I 148 W/m 13,3 C 4,8 km/h (1 Bft)
02.08.2016 17:31 19,8 C 19,8 C 66 % 1016,8 hPa 0,0 mm 6,5 km/h (2 Bft) W 277 0 min 0,000 mm 1,2 UV-I 155 W/m 13,3 C 12,9 km/h (3 Bft)
02.08.2016 17:32 19,8 C 19,8 C 64 % 1016,8 hPa 0,0 mm 7,8 km/h (2 Bft) W-SW 245 0 min 0,000 mm 1,3 UV-I 158 W/m 12,8 C 14,5 km/h (3 Bft)
02.08.2016 17:33 19,8 C 19,8 C 66 % 1016,8 hPa 0,0 mm 5,6 km/h (1 Bft) W 275 0 min 0,000 mm 1,3 UV-I 156 W/m 13,3 C 11,3 km/h (2 Bft)
02.08.2016 17:34 19,8 C 19,9 C 64 % 1016,7 hPa 0,0 mm 9,2 km/h (2 Bft) W 281 0 min 0,000 mm 1,2 UV-I 155 W/m 12,8 C 12,9 km/h (3 Bft)
02.08.2016 17:35 19,9 C 19,9 C 65 % 1016,8 hPa 0,0 mm 9,0 km/h (2 Bft) W-NW 296 0 min 0,000 mm 1,2 UV-I 149 W/m 13,1 C 14,5 km/h (3 Bft)
02.08.2016 17:36 19,9 C 19,9 C 66 % 1016,8 hPa 0,0 mm 6,8 km/h (2 Bft) W 280 0 min 0,000 mm 1,2 UV-I 149 W/m 13,4 C 12,9 km/h (3 Bft)
02.08.2016 17:37 19,8 C 19,9 C 65 % 1016,9 hPa 0,0 mm 4,5 km/h (1 Bft) W-NW 290 0 min 0,000 mm 1,3 UV-I 155 W/m 13,0 C 6,4 km/h (2 Bft)
02.08.2016 17:38 19,8 C 19,9 C 66 % 1016,8 hPa 0,0 mm 8,3 km/h (2 Bft) W 270 0 min 0,000 mm 1,3 UV-I 162 W/m 13,3 C 14,5 km/h (3 Bft)
02.08.2016 17:39 19,8 C 19,9 C 64 % 1016,8 hPa 0,0 mm 4,7 km/h (1 Bft) W 266 0 min 0,000 mm 1,4 UV-I 172 W/m 12,8 C 11,3 km/h (2 Bft)
02.08.2016 17:40 19,9 C 19,9 C 66 % 1016,8 hPa 0,0 mm 4,5 km/h (1 Bft) W 271 0 min 0,000 mm 1,4 UV-I 179 W/m 13,4 C 6,4 km/h (2 Bft)
02.08.2016 17:41 19,9 C 19,9 C 65 % 1016,8 hPa 0,0 mm 2,9 km/h (1 Bft) W 265 0 min 0,000 mm 1,4 UV-I 183 W/m 13,1 C 4,8 km/h (1 Bft)
02.08.2016 17:42 19,9 C 19,9 C 66 % 1016,8 hPa 0,0 mm 5,2 km/h (1 Bft) W 267 0 min 0,000 mm 1,4 UV-I 181 W/m 13,4 C 9,7 km/h (2 Bft)
02.08.2016 17:43 19,9 C 19,9 C 66 % 1016,7 hPa 0,0 mm 7,7 km/h (2 Bft) W 269 0 min 0,000 mm 1,4 UV-I 181 W/m 13,4 C 11,3 km/h (2 Bft)
02.08.2016 17:44 19,9 C 20,0 C 66 % 1016,7 hPa 0,0 mm 7,2 km/h (2 Bft) W-NW 284 0 min 0,000 mm 1,4 UV-I 176 W/m 13,4 C 12,9 km/h (3 Bft)
02.08.2016 17:45 20,0 C 20,0 C 66 % 1016,7 hPa 0,0 mm 5,4 km/h (1 Bft) W-NW 292 0 min 0,000 mm 1,3 UV-I 171 W/m 13,4 C 11,3 km/h (2 Bft)
02.08.2016 17:46 20,0 C 20,1 C 66 % 1016,7 hPa 0,0 mm 4,4 km/h (1 Bft) W 261 0 min 0,000 mm 1,3 UV-I 169 W/m 13,4 C 6,4 km/h (2 Bft)
02.08.2016 17:47 20,0 C 20,0 C 67 % 1016,8 hPa 0,0 mm 5,9 km/h (2 Bft) W-SW 258 0 min 0,000 mm 1,3 UV-I 174 W/m 13,7 C 11,3 km/h (2 Bft)
02.08.2016 17:48 20,0 C 20,0 C 65 % 1016,7 hPa 0,0 mm 6,4 km/h (2 Bft) W 267 0 min 0,000 mm 1,3 UV-I 174 W/m 13,2 C 11,3 km/h (2 Bft)
02.08.2016 17:49 20,1 C 20,1 C 66 % 1016,7 hPa 0,0 mm 4,4 km/h (1 Bft) W-NW 295 0 min 0,000 mm 1,3 UV-I 181 W/m 13,5 C 6,4 km/h (2 Bft)
02.08.2016 17:50 20,0 C 20,1 C 66 % 1016,7 hPa 0,0 mm 6,6 km/h (2 Bft) W 279 0 min 0,000 mm 1,3 UV-I 188 W/m 13,4 C 9,7 km/h (2 Bft)
02.08.2016 17:51 20,0 C 20,0 C 66 % 1016,7 hPa 0,0 mm 6,2 km/h (2 Bft) W 281 0 min 0,000 mm 1,3 UV-I 186 W/m 13,4 C 11,3 km/h (2 Bft)
02.08.2016 17:52 20,0 C 20,0 C 66 % 1016,7 hPa 0,0 mm 7,8 km/h (2 Bft) W 281 0 min 0,000 mm 1,3 UV-I 178 W/m 13,4 C 12,9 km/h (3 Bft)
02.08.2016 17:53 20,0 C 20,0 C 64 % 1016,8 hPa 0,0 mm 8,2 km/h (2 Bft) W 261 0 min 0,000 mm 1,2 UV-I 156 W/m 13,0 C 12,9 km/h (3 Bft)
02.08.2016 17:54 20,0 C 20,0 C 66 % 1016,7 hPa 0,0 mm 6,4 km/h (2 Bft) W-NW 286 0 min 0,000 mm 1,1 UV-I 146 W/m 13,4 C 9,7 km/h (2 Bft)
02.08.2016 17:55 20,0 C 20,0 C 65 % 1016,7 hPa 0,0 mm 5,8 km/h (2 Bft) W 264 0 min 0,000 mm 1,0 UV-I 135 W/m 13,2 C 12,9 km/h (3 Bft)
02.08.2016 17:56 19,9 C 20,0 C 65 % 1016,8 hPa 0,0 mm 2,4 km/h (1 Bft) W-NW 288 0 min 0,000 mm 0,9 UV-I 127 W/m 13,1 C 3,2 km/h (1 Bft)
02.08.2016 17:57 19,9 C 20,0 C 67 % 1016,8 hPa 0,0 mm 4,7 km/h (1 Bft) W 281 0 min 0,000 mm 0,9 UV-I 123 W/m 13,6 C 9,7 km/h (2 Bft)
02.08.2016 17:58 19,9 C 19,9 C 67 % 1016,8 hPa 0,0 mm 6,5 km/h (2 Bft) W-NW 290 0 min 0,000 mm 0,9 UV-I 125 W/m 13,6 C 11,3 km/h (2 Bft)
02.08.2016 17:59 19,9 C 19,9 C 67 % 1016,9 hPa 0,0 mm 5,0 km/h (1 Bft) W-SW 252 0 min 0,000 mm 0,9 UV-I 130 W/m 13,6 C 8,0 km/h (2 Bft)
02.08.2016 18:00 19,8 C 19,9 C 66 % 1016,9 hPa 0,0 mm 5,2 km/h (1 Bft) W 272 0 min 0,000 mm 1,0 UV-I 135 W/m 13,3 C 9,7 km/h (2 Bft)
02.08.2016 18:01 19,8 C 19,8 C 66 % 1016,8 hPa 0,0 mm 4,9 km/h (1 Bft) W 279 0 min 0,127 mm 1,0 UV-I 142 W/m 13,3 C 9,7 km/h (2 Bft)
02.08.2016 18:02 19,8 C 19,8 C 67 % 1016,8 hPa 0,0 mm 4,0 km/h (1 Bft) W-NW 284 0 min 0,000 mm 1,1 UV-I 146 W/m 13,5 C 6,4 km/h (2 Bft)
02.08.2016 18:03 19,8 C 19,8 C 66 % 1016,8 hPa 0,0 mm 7,8 km/h (2 Bft) W-NW 283 0 min 0,000 mm 1,0 UV-I 142 W/m 13,3 C 11,3 km/h (2 Bft)
02.08.2016 18:04 19,8 C 19,8 C 67 % 1016,8 hPa 0,0 mm 6,8 km/h (2 Bft) W 279 0 min 0,000 mm 1,0 UV-I 132 W/m 13,5 C 11,3 km/h (2 Bft)
02.08.2016 18:05 19,8 C 19,8 C 67 % 1016,9 hPa 0,0 mm 6,6 km/h (2 Bft) W-NW 302 0 min 0,000 mm 0,9 UV-I 113 W/m 13,5 C 11,3 km/h (2 Bft)
02.08.2016 18:06 19,8 C 19,8 C 67 % 1016,8 hPa 0,0 mm 4,3 km/h (1 Bft) W-NW 291 0 min 0,000 mm 0,7 UV-I 102 W/m 13,5 C 6,4 km/h (2 Bft)
02.08.2016 18:07 19,7 C 19,8 C 66 % 1016,8 hPa 0,0 mm 8,0 km/h (2 Bft) W 275 0 min 0,000 mm 0,7 UV-I 95 W/m 13,2 C 12,9 km/h (3 Bft)
02.08.2016 18:08 19,7 C 19,8 C 65 % 1016,8 hPa 0,0 mm 7,3 km/h (2 Bft) W 263 0 min 0,000 mm 0,6 UV-I 88 W/m 12,9 C 12,9 km/h (3 Bft)
02.08.2016 18:09 19,7 C 19,7 C 66 % 1016,9 hPa 0,0 mm 6,6 km/h (2 Bft) W 273 0 min 0,000 mm 0,6 UV-I 81 W/m 13,2 C 11,3 km/h (2 Bft)
02.08.2016 18:10 19,7 C 19,7 C 66 % 1016,9 hPa 0,0 mm 5,9 km/h (2 Bft) W 273 0 min 0,000 mm 0,5 UV-I 74 W/m 13,2 C 9,7 km/h (2 Bft)
02.08.2016 18:11 19,7 C 19,7 C 66 % 1016,8 hPa 0,0 mm 3,4 km/h (1 Bft) W 262 0 min 0,000 mm 0,5 UV-I 67 W/m 13,2 C 4,8 km/h (1 Bft)
02.08.2016 18:12 19,6 C 19,7 C 66 % 1016,8 hPa 0,0 mm 10,6 km/h (2 Bft) W 270 0 min 0,000 mm 0,5 UV-I 63 W/m 13,1 C 14,5 km/h (3 Bft)
02.08.2016 18:13 19,6 C 19,6 C 67 % 1016,9 hPa 0,0 mm 5,7 km/h (1 Bft) W-NW 295 0 min 0,000 mm 0,5 UV-I 63 W/m 13,3 C 11,3 km/h (2 Bft)
02.08.2016 18:14 19,5 C 19,6 C 67 % 1016,9 hPa 0,0 mm 3,8 km/h (1 Bft) W 268 0 min 0,000 mm 0,0 UV-I 63 W/m 13,2 C 6,4 km/h (2 Bft)
02.08.2016 18:15 19,5 C 19,5 C 67 % 1016,8 hPa 0,0 mm 3,8 km/h (1 Bft) W-NW 284 0 min 0,000 mm 0,5 UV-I 65 W/m 13,2 C 4,8 km/h (1 Bft)
02.08.2016 18:16 19,5 C 19,5 C 66 % 1016,9 hPa 0,0 mm 4,4 km/h (1 Bft) W 279 0 min 0,000 mm 0,5 UV-I 67 W/m 13,0 C 6,4 km/h (2 Bft)
02.08.2016 18:17 19,5 C 19,5 C 66 % 1016,9 hPa 0,0 mm 7,5 km/h (2 Bft) W-SW 252 0 min 0,000 mm 0,5 UV-I 70 W/m 13,0 C 12,9 km/h (3 Bft)
02.08.2016 18:18 19,4 C 19,5 C 68 % 1017,0 hPa 0,0 mm 7,2 km/h (2 Bft) W-SW 250 0 min 0,000 mm 0,5 UV-I 74 W/m 13,3 C 16,1 km/h (3 Bft)
02.08.2016 18:19 19,4 C 19,4 C 66 % 1017,0 hPa 0,0 mm 9,3 km/h (2 Bft) W-SW 254 0 min 0,000 mm 0,5 UV-I 76 W/m 12,9 C 16,1 km/h (3 Bft)
02.08.2016 18:20 19,4 C 19,4 C 68 % 1016,9 hPa 0,0 mm 8,6 km/h (2 Bft) W-SW 257 0 min 0,000 mm 0,6 UV-I 77 W/m 13,3 C 14,5 km/h (3 Bft)
02.08.2016 18:21 19,3 C 19,4 C 66 % 1016,9 hPa 0,0 mm 7,7 km/h (2 Bft) S-SW 211 0 min 0,000 mm 0,6 UV-I 79 W/m 12,8 C 11,3 km/h (2 Bft)
02.08.2016 18:22 19,3 C 19,4 C 67 % 1016,9 hPa 0,0 mm 7,8 km/h (2 Bft) W-SW 248 0 min 0,000 mm 0,6 UV-I 84 W/m 13,0 C 16,1 km/h (3 Bft)
02.08.2016 18:23 19,3 C 19,3 C 66 % 1016,9 hPa 0,0 mm 9,1 km/h (2 Bft) W-SW 249 0 min 0,000 mm 0,6 UV-I 84 W/m 12,8 C 14,5 km/h (3 Bft)
02.08.2016 18:24 19,3 C 19,3 C 67 % 1016,9 hPa 0,0 mm 5,0 km/h (1 Bft) W-SW 253 0 min 0,000 mm 0,6 UV-I 83 W/m 13,0 C 9,7 km/h (2 Bft)
02.08.2016 18:25 19,3 C 19,3 C 67 % 1016,9 hPa 0,0 mm 7,0 km/h (2 Bft) W-SW 255 0 min 0,000 mm 0,5 UV-I 79 W/m 13,0 C 14,5 km/h (3 Bft)
02.08.2016 18:26 19,3 C 19,3 C 66 % 1017,0 hPa 0,0 mm 7,2 km/h (2 Bft) W-SW 243 0 min 0,000 mm 0,5 UV-I 74 W/m 12,8 C 16,1 km/h (3 Bft)
02.08.2016 18:27 19,3 C 19,3 C 67 % 1016,9 hPa 0,0 mm 6,4 km/h (2 Bft) W 265 0 min 0,000 mm 0,0 UV-I 65 W/m 13,0 C 9,7 km/h (2 Bft)
02.08.2016 18:28 19,3 C 19,3 C 67 % 1017,0 hPa 0,0 mm 6,8 km/h (2 Bft) W 279 0 min 0,000 mm 0,0 UV-I 51 W/m 13,0 C 11,3 km/h (2 Bft)
02.08.2016 18:29 19,2 C 19,3 C 68 % 1017,0 hPa 0,0 mm 7,3 km/h (2 Bft) W-NW 286 0 min 0,000 mm 0,0 UV-I 47 W/m 13,1 C 11,3 km/h (2 Bft)
02.08.2016 18:30 19,2 C 19,2 C 67 % 1017,0 hPa 0,0 mm 5,6 km/h (1 Bft) W-SW 257 0 min 0,000 mm 0,0 UV-I 44 W/m 12,9 C 9,7 km/h (2 Bft)
02.08.2016 18:31 19,2 C 19,2 C 68 % 1017,0 hPa 0,0 mm 5,4 km/h (1 Bft) W 259 0 min 0,000 mm 0,0 UV-I 44 W/m 13,1 C 6,4 km/h (2 Bft)
02.08.2016 18:32 19,1 C 19,2 C 68 % 1017,0 hPa 0,0 mm 2,4 km/h (1 Bft) W-NW 290 0 min 0,000 mm 0,0 UV-I 42 W/m 13,1 C 6,4 km/h (2 Bft)
02.08.2016 18:33 19,1 C 19,1 C 69 % 1017,0 hPa 0,0 mm 0,7 km/h (0 Bft) W 278 0 min 0,000 mm 0,0 UV-I 39 W/m 13,3 C 4,8 km/h (1 Bft)
02.08.2016 18:34 19,1 C 19,1 C 68 % 1017,0 hPa 0,0 mm 3,2 km/h (1 Bft) W 266 0 min 0,000 mm 0,0 UV-I 46 W/m 13,1 C 4,8 km/h (1 Bft)
02.08.2016 18:35 19,1 C 19,1 C 69 % 1017,0 hPa 0,0 mm 7,6 km/h (2 Bft) W-NW 288 0 min 0,000 mm 0,0 UV-I 47 W/m 13,3 C 12,9 km/h (3 Bft)
02.08.2016 18:36 19,1 C 19,1 C 68 % 1017,1 hPa 0,0 mm 6,7 km/h (2 Bft) W-SW 239 0 min 0,000 mm 0,0 UV-I 58 W/m 13,1 C 11,3 km/h (2 Bft)
02.08.2016 18:37 19,0 C 19,1 C 69 % 1017,1 hPa 0,0 mm 4,0 km/h (1 Bft) W-SW 242 0 min 0,000 mm 0,0 UV-I 58 W/m 13,2 C 4,8 km/h (1 Bft)
02.08.2016 18:38 18,9 C 19,0 C 68 % 1017,1 hPa 0,0 mm 2,7 km/h (1 Bft) W 275 0 min 0,000 mm 0,0 UV-I 51 W/m 12,9 C 6,4 km/h (2 Bft)
02.08.2016 18:39 18,9 C 18,9 C 69 % 1017,1 hPa 0,0 mm 5,6 km/h (1 Bft) W-NW 291 0 min 0,000 mm 0,0 UV-I 54 W/m 13,1 C 9,7 km/h (2 Bft)
02.08.2016 18:40 18,9 C 18,9 C 69 % 1017,1 hPa 0,0 mm 7,0 km/h (2 Bft) W 267 0 min 0,000 mm 0,0 UV-I 53 W/m 13,1 C 11,3 km/h (2 Bft)
02.08.2016 18:41 18,9 C 18,9 C 69 % 1017,1 hPa 0,0 mm 5,7 km/h (1 Bft) W 263 0 min 0,000 mm 0,0 UV-I 54 W/m 13,1 C 9,7 km/h (2 Bft)
02.08.2016 18:42 18,9 C 18,9 C 70 % 1017,1 hPa 0,0 mm 6,7 km/h (2 Bft) W 264 0 min 0,000 mm 0,0 UV-I 56 W/m 13,3 C 12,9 km/h (3 Bft)
02.08.2016 18:43 18,9 C 18,9 C 70 % 1017,1 hPa 0,0 mm 6,1 km/h (2 Bft) W 271 0 min 0,000 mm 0,0 UV-I 58 W/m 13,3 C 9,7 km/h (2 Bft)
02.08.2016 18:44 18,8 C 18,9 C 70 % 1017,2 hPa 0,0 mm 9,4 km/h (2 Bft) W-SW 246 0 min 0,000 mm 0,0 UV-I 62 W/m 13,2 C 16,1 km/h (3 Bft)
02.08.2016 18:45 18,8 C 18,8 C 69 % 1017,2 hPa 0,0 mm 4,7 km/h (1 Bft) SW 231 0 min 0,000 mm 0,0 UV-I 63 W/m 13,0 C 9,7 km/h (2 Bft)
02.08.2016 18:46 18,8 C 18,8 C 69 % 1017,2 hPa 0,0 mm 11,1 km/h (2 Bft) W 281 0 min 0,000 mm 0,0 UV-I 58 W/m 13,0 C 16,1 km/h (3 Bft)
02.08.2016 18:47 18,8 C 18,8 C 69 % 1017,2 hPa 0,0 mm 5,2 km/h (1 Bft) W 267 0 min 0,000 mm 0,0 UV-I 54 W/m 13,0 C 8,0 km/h (2 Bft)
02.08.2016 18:48 18,7 C 18,8 C 71 % 1017,2 hPa 0,0 mm 4,4 km/h (1 Bft) W-SW 248 0 min 0,000 mm 0,0 UV-I 51 W/m 13,3 C 6,4 km/h (2 Bft)
02.08.2016 18:49 18,7 C 18,7 C 71 % 1017,3 hPa 0,0 mm 3,6 km/h (1 Bft) W 265 0 min 0,000 mm 0,0 UV-I 49 W/m 13,3 C 4,8 km/h (1 Bft)
02.08.2016 18:50 18,6 C 18,7 C 73 % 1017,3 hPa 0,0 mm 4,4 km/h (1 Bft) W-SW 237 0 min 0,000 mm 0,0 UV-I 49 W/m 13,7 C 6,4 km/h (2 Bft)
02.08.2016 18:51 18,5 C 18,6 C 71 % 1017,3 hPa 0,0 mm 7,8 km/h (2 Bft) W 276 0 min 0,000 mm 0,0 UV-I 54 W/m 13,1 C 11,3 km/h (2 Bft)
02.08.2016 18:52 18,4 C 18,5 C 72 % 1017,3 hPa 0,0 mm 5,6 km/h (1 Bft) W 262 0 min 0,000 mm 0,0 UV-I 60 W/m 13,3 C 9,7 km/h (2 Bft)
02.08.2016 18:53 18,4 C 18,4 C 72 % 1017,3 hPa 0,0 mm 6,4 km/h (2 Bft) W-NW 292 0 min 0,000 mm 0,0 UV-I 63 W/m 13,3 C 9,7 km/h (2 Bft)
02.08.2016 18:54 18,4 C 18,4 C 71 % 1017,3 hPa 0,0 mm 9,0 km/h (2 Bft) SW 235 0 min 0,000 mm 0,0 UV-I 62 W/m 13,0 C 12,9 km/h (3 Bft)
02.08.2016 18:55 18,3 C 18,4 C 72 % 1017,3 hPa 0,0 mm 11,3 km/h (2 Bft) W 278 0 min 0,000 mm 0,0 UV-I 60 W/m 13,2 C 14,5 km/h (3 Bft)
02.08.2016 18:56 18,4 C 18,4 C 72 % 1017,4 hPa 0,0 mm 9,5 km/h (2 Bft) W-NW 283 0 min 0,000 mm 0,0 UV-I 58 W/m 13,3 C 12,9 km/h (3 Bft)
02.08.2016 18:57 18,3 C 18,4 C 73 % 1017,3 hPa 0,0 mm 7,0 km/h (2 Bft) W-SW 254 0 min 0,000 mm 0,0 UV-I 53 W/m 13,4 C 11,3 km/h (2 Bft)
02.08.2016 18:58 18,2 C 18,3 C 74 % 1017,4 hPa 0,0 mm 7,1 km/h (2 Bft) W 280 0 min 0,000 mm 0,0 UV-I 49 W/m 13,5 C 12,9 km/h (3 Bft)
02.08.2016 18:59 18,2 C 18,2 C 73 % 1017,4 hPa 0,0 mm 11,1 km/h (2 Bft) W 279 0 min 0,000 mm 0,0 UV-I 47 W/m 13,3 C 19,3 km/h (3 Bft)
02.08.2016 19:00 18,1 C 18,2 C 73 % 1017,4 hPa 0,0 mm 5,1 km/h (1 Bft) W 276 0 min 0,000 mm 0,0 UV-I 46 W/m 13,2 C 6,4 km/h (2 Bft)
02.08.2016 19:01 17,9 C 18,1 C 75 % 1017,5 hPa 0,0 mm 5,9 km/h (2 Bft) W 261 0 min 0,076 mm 0,0 UV-I 44 W/m 13,4 C 9,7 km/h (2 Bft)
02.08.2016 19:02 17,9 C 17,9 C 75 % 1017,4 hPa 0,0 mm 11,7 km/h (2 Bft) W 266 0 min 0,001 mm 0,0 UV-I 44 W/m 13,4 C 19,3 km/h (3 Bft)
02.08.2016 19:03 17,8 C 17,9 C 75 % 1017,5 hPa 0,0 mm 11,5 km/h (2 Bft) W-NW 287 0 min 0,000 mm 0,0 UV-I 46 W/m 13,3 C 14,5 km/h (3 Bft)
02.08.2016 19:04 17,7 C 17,8 C 76 % 1017,5 hPa 0,0 mm 11,3 km/h (2 Bft) W 281 0 min 0,000 mm 0,0 UV-I 49 W/m 13,4 C 16,1 km/h (3 Bft)
02.08.2016 19:05 17,6 C 17,7 C 77 % 1017,5 hPa 0,0 mm 14,2 km/h (3 Bft) W-NW 286 0 min 0,000 mm 0,0 UV-I 53 W/m 13,5 C 17,7 km/h (3 Bft)
02.08.2016 19:06 17,4 C 17,6 C 77 % 1017,5 hPa 0,0 mm 17,2 km/h (3 Bft) W-NW 286 0 min 0,000 mm 0,0 UV-I 56 W/m 13,3 C 25,7 km/h (4 Bft)
02.08.2016 19:07 17,3 C 17,4 C 78 % 1017,5 hPa 0,0 mm 12,6 km/h (3 Bft) W 271 0 min 0,000 mm 0,0 UV-I 56 W/m 13,4 C 17,7 km/h (3 Bft)
02.08.2016 19:08 17,2 C 17,3 C 78 % 1017,5 hPa 0,0 mm 8,7 km/h (2 Bft) W 267 0 min 0,000 mm 0,0 UV-I 56 W/m 13,3 C 14,5 km/h (3 Bft)
02.08.2016 19:09 17,2 C 17,2 C 80 % 1017,6 hPa 0,0 mm 5,4 km/h (1 Bft) W-NW 292 0 min 0,000 mm 0,0 UV-I 53 W/m 13,7 C 11,3 km/h (2 Bft)
02.08.2016 19:10 17,1 C 17,2 C 80 % 1017,5 hPa 0,0 mm 7,3 km/h (2 Bft) W-NW 296 0 min 0,000 mm 0,0 UV-I 49 W/m 13,6 C 12,9 km/h (3 Bft)
02.08.2016 19:11 17,0 C 17,1 C 80 % 1017,5 hPa 0,0 mm 7,3 km/h (2 Bft) W 261 0 min 0,000 mm 0,0 UV-I 47 W/m 13,5 C 12,9 km/h (3 Bft)
02.08.2016 19:12 16,9 C 17,0 C 80 % 1017,5 hPa 0,0 mm 9,6 km/h (2 Bft) W 269 0 min 0,000 mm 0,0 UV-I 47 W/m 13,4 C 14,5 km/h (3 Bft)
02.08.2016 19:13 16,8 C 16,9 C 81 % 1017,6 hPa 0,0 mm 9,7 km/h (2 Bft) W-SW 249 0 min 0,000 mm 0,0 UV-I 47 W/m 13,5 C 16,1 km/h (3 Bft)
02.08.2016 19:14 16,8 C 16,8 C 82 % 1017,5 hPa 0,2 mm 9,3 km/h (2 Bft) W-NW 298 0 min 0,000 mm 0,0 UV-I 47 W/m 13,7 C 14,5 km/h (3 Bft)
02.08.2016 19:15 16,7 C 16,8 C 82 % 1017,6 hPa 0,0 mm 10,7 km/h (2 Bft) W-SW 246 0 min 0,000 mm 0,0 UV-I 49 W/m 13,6 C 16,1 km/h (3 Bft)
02.08.2016 19:16 16,7 C 16,7 C 83 % 1017,6 hPa 0,0 mm 5,8 km/h (2 Bft) SW 234 0 min 0,000 mm 0,0 UV-I 49 W/m 13,8 C 11,3 km/h (2 Bft)
02.08.2016 19:17 16,6 C 16,7 C 83 % 1017,6 hPa 0,0 mm 3,6 km/h (1 Bft) W-NW 285 0 min 0,000 mm 0,0 UV-I 49 W/m 13,7 C 4,8 km/h (1 Bft)
02.08.2016 19:18 16,5 C 16,6 C 85 % 1017,6 hPa 0,0 mm 7,0 km/h (2 Bft) W 277 0 min 0,000 mm 0,0 UV-I 49 W/m 14,0 C 9,7 km/h (2 Bft)
02.08.2016 19:19 16,4 C 16,5 C 85 % 1017,7 hPa 0,0 mm 3,9 km/h (1 Bft) W-NW 286 0 min 0,000 mm 0,0 UV-I 49 W/m 13,9 C 6,4 km/h (2 Bft)
02.08.2016 19:20 16,4 C 16,4 C 85 % 1017,7 hPa 0,0 mm 7,8 km/h (2 Bft) W-SW 243 0 min 0,000 mm 0,0 UV-I 47 W/m 13,9 C 11,3 km/h (2 Bft)
02.08.2016 19:21 16,3 C 16,4 C 85 % 1017,6 hPa 0,0 mm 5,4 km/h (1 Bft) W 270 0 min 0,000 mm 0,0 UV-I 49 W/m 13,8 C 9,7 km/h (2 Bft)
02.08.2016 19:22 16,3 C 16,3 C 86 % 1017,6 hPa 0,0 mm 8,0 km/h (2 Bft) W 274 0 min 0,000 mm 0,0 UV-I 49 W/m 14,0 C 19,3 km/h (3 Bft)
02.08.2016 19:23 16,2 C 16,3 C 85 % 1017,6 hPa 0,2 mm 9,4 km/h (2 Bft) W-SW 250 0 min 0,000 mm 0,0 UV-I 49 W/m 13,7 C 16,1 km/h (3 Bft)
02.08.2016 19:24 16,2 C 16,2 C 85 % 1017,6 hPa 0,0 mm 10,8 km/h (2 Bft) W 259 0 min 0,000 mm 0,0 UV-I 49 W/m 13,7 C 16,1 km/h (3 Bft)
02.08.2016 19:25 16,1 C 16,2 C 86 % 1017,6 hPa 0,0 mm 4,3 km/h (1 Bft) W-NW 288 0 min 0,000 mm 0,0 UV-I 49 W/m 13,8 C 11,3 km/h (2 Bft)
02.08.2016 19:26 16,1 C 16,1 C 86 % 1017,6 hPa 0,0 mm 9,2 km/h (2 Bft) NW 313 0 min 0,000 mm 0,0 UV-I 51 W/m 13,8 C 16,1 km/h (3 Bft)
02.08.2016 19:27 16,0 C 16,1 C 86 % 1017,6 hPa 0,0 mm 8,4 km/h (2 Bft) W-SW 252 0 min 0,000 mm 0,0 UV-I 53 W/m 13,7 C 14,5 km/h (3 Bft)
02.08.2016 19:28 15,9 C 16,0 C 87 % 1017,6 hPa 0,0 mm 8,7 km/h (2 Bft) W 261 0 min 0,000 mm 0,0 UV-I 53 W/m 13,7 C 17,7 km/h (3 Bft)
02.08.2016 19:29 15,9 C 15,9 C 87 % 1017,7 hPa 0,0 mm 15,3 km/h (3 Bft) W-SW 254 0 min 0,000 mm 0,0 UV-I 51 W/m 13,7 C 17,7 km/h (3 Bft)
02.08.2016 19:30 15,9 C 15,9 C 87 % 1017,6 hPa 0,0 mm 6,6 km/h (2 Bft) W 261 0 min 0,000 mm 0,0 UV-I 49 W/m 13,7 C 14,5 km/h (3 Bft)
02.08.2016 19:31 15,9 C 15,9 C 88 % 1017,7 hPa 0,0 mm 6,0 km/h (2 Bft) W-SW 240 0 min 0,000 mm 0,0 UV-I 47 W/m 13,9 C 9,7 km/h (2 Bft)
02.08.2016 19:32 15,8 C 15,9 C 88 % 1017,6 hPa 0,2 mm 4,2 km/h (1 Bft) W 277 0 min 0,000 mm 0,0 UV-I 42 W/m 13,8 C 8,0 km/h (2 Bft)
02.08.2016 19:33 15,8 C 15,8 C 89 % 1017,7 hPa 0,0 mm 5,7 km/h (1 Bft) W 265 0 min 0,000 mm 0,0 UV-I 40 W/m 14,0 C 12,9 km/h (3 Bft)
02.08.2016 19:34 15,8 C 15,8 C 89 % 1017,7 hPa 0,0 mm 7,1 km/h (2 Bft) W-SW 238 0 min 0,000 mm 0,0 UV-I 40 W/m 14,0 C 12,9 km/h (3 Bft)
02.08.2016 19:35 15,8 C 15,8 C 89 % 1017,7 hPa 0,0 mm 7,5 km/h (2 Bft) W-SW 252 0 min 0,000 mm 0,0 UV-I 39 W/m 14,0 C 12,9 km/h (3 Bft)
02.08.2016 19:36 15,8 C 15,8 C 89 % 1017,7 hPa 0,0 mm 11,8 km/h (2 Bft) W-NW 285 0 min 0,000 mm 0,0 UV-I 37 W/m 14,0 C 17,7 km/h (3 Bft)
02.08.2016 19:37 15,7 C 15,8 C 89 % 1017,7 hPa 0,0 mm 8,4 km/h (2 Bft) W-SW 249 0 min 0,000 mm 0,0 UV-I 37 W/m 13,9 C 14,5 km/h (3 Bft)
02.08.2016 19:38 15,7 C 15,7 C 89 % 1017,7 hPa 0,0 mm 9,6 km/h (2 Bft) W 263 0 min 0,000 mm 0,0 UV-I 37 W/m 13,9 C 14,5 km/h (3 Bft)
02.08.2016 19:39 15,7 C 15,7 C 89 % 1017,8 hPa 0,0 mm 9,7 km/h (2 Bft) SW 235 0 min 0,000 mm 0,0 UV-I 35 W/m 13,9 C 17,7 km/h (3 Bft)
02.08.2016 19:40 15,6 C 15,7 C 89 % 1017,7 hPa 0,0 mm 10,1 km/h (2 Bft) W 261 0 min 0,000 mm 0,0 UV-I 35 W/m 13,8 C 17,7 km/h (3 Bft)
02.08.2016 19:41 15,6 C 15,6 C 89 % 1017,8 hPa 0,2 mm 5,6 km/h (1 Bft) W-SW 246 0 min 0,000 mm 0,0 UV-I 33 W/m 13,8 C 8,0 km/h (2 Bft)
02.08.2016 19:42 15,6 C 15,6 C 90 % 1017,7 hPa 0,0 mm 6,6 km/h (2 Bft) W 263 0 min 0,000 mm 0,0 UV-I 33 W/m 14,0 C 11,3 km/h (2 Bft)
02.08.2016 19:43 15,6 C 15,6 C 90 % 1017,7 hPa 0,0 mm 9,1 km/h (2 Bft) W 279 0 min 0,000 mm 0,0 UV-I 32 W/m 14,0 C 14,5 km/h (3 Bft)
02.08.2016 19:44 15,5 C 15,6 C 90 % 1017,8 hPa 0,0 mm 13,6 km/h (3 Bft) W 269 0 min 0,000 mm 0,0 UV-I 30 W/m 13,9 C 22,5 km/h (4 Bft)
02.08.2016 19:45 15,5 C 15,6 C 90 % 1017,7 hPa 0,0 mm 6,3 km/h (2 Bft) W-SW 257 0 min 0,000 mm 0,0 UV-I 30 W/m 13,9 C 9,7 km/h (2 Bft)
02.08.2016 19:46 15,5 C 15,5 C 90 % 1017,8 hPa 0,0 mm 7,9 km/h (2 Bft) W-SW 239 0 min 0,000 mm 0,0 UV-I 30 W/m 13,9 C 12,9 km/h (3 Bft)
02.08.2016 19:47 15,5 C 15,5 C 90 % 1017,7 hPa 0,0 mm 8,1 km/h (2 Bft) W-NW 286 0 min 0,000 mm 0,0 UV-I 32 W/m 13,9 C 17,7 km/h (3 Bft)
02.08.2016 19:48 15,4 C 15,5 C 90 % 1017,8 hPa 0,0 mm 7,2 km/h (2 Bft) SW 229 0 min 0,000 mm 0,0 UV-I 32 W/m 13,8 C 14,5 km/h (3 Bft)
02.08.2016 19:49 15,4 C 15,4 C 90 % 1017,8 hPa 0,0 mm 14,4 km/h (3 Bft) W 264 0 min 0,000 mm 0,0 UV-I 30 W/m 13,8 C 20,9 km/h (4 Bft)
02.08.2016 19:50 15,4 C 15,4 C 90 % 1017,7 hPa 0,0 mm 8,9 km/h (2 Bft) W 264 0 min 0,000 mm 0,0 UV-I 26 W/m 13,8 C 14,5 km/h (3 Bft)
02.08.2016 19:51 15,4 C 15,4 C 90 % 1017,8 hPa 0,0 mm 7,6 km/h (2 Bft) W-SW 253 0 min 0,000 mm 0,0 UV-I 26 W/m 13,8 C 11,3 km/h (2 Bft)
02.08.2016 19:52 15,4 C 15,4 C 91 % 1017,8 hPa 0,0 mm 6,6 km/h (2 Bft) SW 227 0 min 0,000 mm 0,0 UV-I 26 W/m 13,9 C 14,5 km/h (3 Bft)
02.08.2016 19:53 15,4 C 15,4 C 91 % 1017,8 hPa 0,0 mm 6,0 km/h (2 Bft) SW 236 0 min 0,000 mm 0,0 UV-I 26 W/m 13,9 C 11,3 km/h (2 Bft)
02.08.2016 19:54 15,4 C 15,4 C 91 % 1017,7 hPa 0,2 mm 10,1 km/h (2 Bft) W 281 0 min 0,000 mm 0,0 UV-I 25 W/m 13,9 C 16,1 km/h (3 Bft)
02.08.2016 19:55 15,4 C 15,4 C 91 % 1017,7 hPa 0,0 mm 8,5 km/h (2 Bft) SW 219 0 min 0,000 mm 0,0 UV-I 23 W/m 13,9 C 12,9 km/h (3 Bft)
02.08.2016 19:56 15,3 C 15,4 C 91 % 1017,7 hPa 0,0 mm 6,3 km/h (2 Bft) W-SW 251 0 min 0,000 mm 0,0 UV-I 23 W/m 13,8 C 9,7 km/h (2 Bft)
02.08.2016 19:57 15,3 C 15,4 C 91 % 1017,7 hPa 0,0 mm 6,4 km/h (2 Bft) W-SW 254 0 min 0,000 mm 0,0 UV-I 23 W/m 13,8 C 9,7 km/h (2 Bft)
02.08.2016 19:58 15,3 C 15,3 C 91 % 1017,6 hPa 0,0 mm 6,4 km/h (2 Bft) W-SW 251 0 min 0,000 mm 0,0 UV-I 23 W/m 13,8 C 14,5 km/h (3 Bft)
02.08.2016 19:59 15,3 C 15,3 C 91 % 1017,6 hPa 0,0 mm 7,8 km/h (2 Bft) W 270 0 min 0,000 mm 0,0 UV-I 21 W/m 13,8 C 12,9 km/h (3 Bft)
02.08.2016 20:00 15,3 C 15,3 C 90 % 1017,6 hPa 0,0 mm 5,0 km/h (1 Bft) SW 227 0 min 0,000 mm 0,0 UV-I 19 W/m 13,7 C 8,0 km/h (2 Bft)
02.08.2016 20:01 15,3 C 15,3 C 90 % 1017,6 hPa 0,0 mm 5,7 km/h (1 Bft) W-SW 248 0 min 0,050 mm 0,0 UV-I 18 W/m 13,7 C 9,7 km/h (2 Bft)
02.08.2016 20:02 15,3 C 15,3 C 91 % 1017,6 hPa 0,0 mm 8,3 km/h (2 Bft) W 269 0 min 0,000 mm 0,0 UV-I 16 W/m 13,8 C 14,5 km/h (3 Bft)
02.08.2016 20:03 15,3 C 15,3 C 90 % 1017,6 hPa 0,0 mm 5,1 km/h (1 Bft) W-SW 244 0 min 0,000 mm 0,0 UV-I 16 W/m 13,7 C 9,7 km/h (2 Bft)
02.08.2016 20:04 15,3 C 15,3 C 91 % 1017,6 hPa 0,0 mm 10,5 km/h (2 Bft) W 274 0 min 0,000 mm 0,0 UV-I 16 W/m 13,8 C 17,7 km/h (3 Bft)
02.08.2016 20:05 15,3 C 15,3 C 91 % 1017,6 hPa 0,0 mm 6,4 km/h (2 Bft) W-SW 249 0 min 0,000 mm 0,0 UV-I 16 W/m 13,8 C 12,9 km/h (3 Bft)
02.08.2016 20:06 15,3 C 15,3 C 91 % 1017,6 hPa 0,0 mm 4,8 km/h (1 Bft) W 263 0 min 0,000 mm 0,0 UV-I 16 W/m 13,8 C 8,0 km/h (2 Bft)
02.08.2016 20:07 15,3 C 15,3 C 91 % 1017,6 hPa 0,0 mm 8,6 km/h (2 Bft) W-SW 239 0 min 0,000 mm 0,0 UV-I 14 W/m 13,8 C 11,3 km/h (2 Bft)
02.08.2016 20:08 15,3 C 15,3 C 91 % 1017,6 hPa 0,0 mm 6,0 km/h (2 Bft) W 275 0 min 0,000 mm 0,0 UV-I 12 W/m 13,8 C 8,0 km/h (2 Bft)
02.08.2016 20:09 15,3 C 15,3 C 91 % 1017,5 hPa 0,0 mm 6,4 km/h (2 Bft) W 274 0 min 0,000 mm 0,0 UV-I 11 W/m 13,8 C 9,7 km/h (2 Bft)
02.08.2016 20:10 15,3 C 15,3 C 91 % 1017,6 hPa 0,0 mm 4,9 km/h (1 Bft) SW 215 0 min 0,000 mm 0,0 UV-I 11 W/m 13,8 C 9,7 km/h (2 Bft)
02.08.2016 20:11 15,3 C 15,3 C 90 % 1017,6 hPa 0,0 mm 3,8 km/h (1 Bft) W-SW 239 0 min 0,000 mm 0,0 UV-I 9 W/m 13,7 C 6,4 km/h (2 Bft)
02.08.2016 20:12 15,3 C 15,3 C 91 % 1017,6 hPa 0,0 mm 7,4 km/h (2 Bft) W-NW 293 0 min 0,000 mm 0,0 UV-I 9 W/m 13,8 C 11,3 km/h (2 Bft)
02.08.2016 20:13 15,3 C 15,3 C 91 % 1017,5 hPa 0,0 mm 3,4 km/h (1 Bft) W 263 0 min 0,000 mm 0,0 UV-I 7 W/m 13,8 C 4,8 km/h (1 Bft)
02.08.2016 20:14 15,3 C 15,3 C 91 % 1017,6 hPa 0,0 mm 9,8 km/h (2 Bft) W-SW 242 0 min 0,000 mm 0,0 UV-I 7 W/m 13,8 C 17,7 km/h (3 Bft)
02.08.2016 20:15 15,3 C 15,3 C 91 % 1017,6 hPa 0,0 mm 4,9 km/h (1 Bft) SW 232 0 min 0,000 mm 0,0 UV-I 7 W/m 13,8 C 11,3 km/h (2 Bft)
02.08.2016 20:16 15,3 C 15,3 C 91 % 1017,6 hPa 0,0 mm 5,3 km/h (1 Bft) W-SW 253 0 min 0,000 mm 0,0 UV-I 5 W/m 13,8 C 8,0 km/h (2 Bft)
02.08.2016 20:17 15,3 C 15,3 C 91 % 1017,6 hPa 0,0 mm 5,4 km/h (1 Bft) W-SW 247 0 min 0,000 mm 0,0 UV-I 5 W/m 13,8 C 8,0 km/h (2 Bft)
02.08.2016 20:18 15,3 C 15,3 C 91 % 1017,6 hPa 0,0 mm 7,4 km/h (2 Bft) W 267 0 min 0,000 mm 0,0 UV-I 0 W/m 13,8 C 14,5 km/h (3 Bft)
02.08.2016 20:19 15,3 C 15,3 C 90 % 1017,6 hPa 0,0 mm 5,0 km/h (1 Bft) W-SW 243 0 min 0,000 mm 0,0 UV-I 0 W/m 13,7 C 11,3 km/h (2 Bft)
02.08.2016 20:20 15,3 C 15,3 C 90 % 1017,6 hPa 0,0 mm 6,1 km/h (2 Bft) W-SW 257 0 min 0,000 mm 0,0 UV-I 0 W/m 13,7 C 11,3 km/h (2 Bft)
02.08.2016 20:21 15,3 C 15,3 C 90 % 1017,6 hPa 0,0 mm 5,3 km/h (1 Bft) W-SW 250 0 min 0,000 mm 0,0 UV-I 0 W/m 13,7 C 9,7 km/h (2 Bft)
02.08.2016 20:22 15,3 C 15,4 C 91 % 1017,7 hPa 0,0 mm 4,6 km/h (1 Bft) W-SW 258 0 min 0,000 mm 0,0 UV-I 0 W/m 13,8 C 6,4 km/h (2 Bft)
02.08.2016 20:23 15,3 C 15,3 C 90 % 1017,7 hPa 0,0 mm 6,6 km/h (2 Bft) W-SW 248 0 min 0,000 mm 0,0 UV-I 0 W/m 13,7 C 12,9 km/h (3 Bft)
02.08.2016 20:24 15,4 C 15,4 C 90 % 1017,7 hPa 0,0 mm 6,9 km/h (2 Bft) W 260 0 min 0,000 mm 0,0 UV-I 0 W/m 13,8 C 14,5 km/h (3 Bft)
02.08.2016 20:25 15,3 C 15,4 C 90 % 1017,7 hPa 0,0 mm 3,1 km/h (1 Bft) S-SW 213 0 min 0,000 mm 0,0 UV-I 0 W/m 13,7 C 4,8 km/h (1 Bft)
02.08.2016 20:26 15,3 C 15,4 C 90 % 1017,7 hPa 0,0 mm 5,3 km/h (1 Bft) SW 217 0 min 0,000 mm 0,0 UV-I 0 W/m 13,7 C 9,7 km/h (2 Bft)
02.08.2016 20:27 15,4 C 15,4 C 90 % 1017,7 hPa 0,0 mm 6,3 km/h (2 Bft) SW 215 0 min 0,000 mm 0,0 UV-I 0 W/m 13,8 C 11,3 km/h (2 Bft)
02.08.2016 20:28 15,4 C 15,4 C 90 % 1017,7 hPa 0,0 mm 3,8 km/h (1 Bft) W-SW 238 0 min 0,000 mm 0,0 UV-I 0 W/m 13,8 C 6,4 km/h (2 Bft)
02.08.2016 20:29 15,4 C 15,4 C 89 % 1017,7 hPa 0,0 mm 3,3 km/h (1 Bft) S-SW 207 0 min 0,000 mm 0,0 UV-I 0 W/m 13,6 C 6,4 km/h (2 Bft)
02.08.2016 20:30 15,4 C 15,4 C 89 % 1017,7 hPa 0,0 mm 3,8 km/h (1 Bft) S 184 0 min 0,000 mm 0,0 UV-I 0 W/m 13,6 C 8,0 km/h (2 Bft)
02.08.2016 20:31 15,4 C 15,4 C 89 % 1017,7 hPa 0,2 mm 6,0 km/h (2 Bft) S 188 0 min 0,000 mm 0,0 UV-I 0 W/m 13,6 C 16,1 km/h (3 Bft)
02.08.2016 20:32 15,4 C 15,4 C 89 % 1017,7 hPa 0,0 mm 5,3 km/h (1 Bft) W 261 0 min 0,000 mm 0,0 UV-I 0 W/m 13,6 C 11,3 km/h (2 Bft)
02.08.2016 20:33 15,5 C 15,5 C 89 % 1017,7 hPa 0,0 mm 4,2 km/h (1 Bft) W 261 0 min 0,000 mm 0,0 UV-I 0 W/m 13,7 C 6,4 km/h (2 Bft)
02.08.2016 20:34 15,4 C 15,5 C 89 % 1017,7 hPa 0,0 mm 6,2 km/h (2 Bft) SW 233 0 min 0,000 mm 0,0 UV-I 0 W/m 13,6 C 11,3 km/h (2 Bft)
02.08.2016 20:35 15,4 C 15,4 C 88 % 1017,7 hPa 0,0 mm 4,8 km/h (1 Bft) SW 232 0 min 0,000 mm 0,0 UV-I 0 W/m 13,4 C 8,0 km/h (2 Bft)
02.08.2016 20:36 15,4 C 15,4 C 88 % 1017,7 hPa 0,0 mm 3,4 km/h (1 Bft) S-SW 210 0 min 0,000 mm 0,0 UV-I 0 W/m 13,4 C 6,4 km/h (2 Bft)
02.08.2016 20:37 15,4 C 15,5 C 88 % 1017,7 hPa 0,0 mm 2,4 km/h (1 Bft) S-SW 199 0 min 0,000 mm 0,0 UV-I 0 W/m 13,4 C 4,8 km/h (1 Bft)
02.08.2016 20:38 15,5 C 15,5 C 88 % 1017,7 hPa 0,0 mm 7,3 km/h (2 Bft) SW 231 0 min 0,000 mm 0,0 UV-I 0 W/m 13,5 C 12,9 km/h (3 Bft)
02.08.2016 20:39 15,4 C 15,5 C 89 % 1017,7 hPa 0,0 mm 5,7 km/h (1 Bft) S 184 0 min 0,000 mm 0,0 UV-I 0 W/m 13,6 C 9,7 km/h (2 Bft)
02.08.2016 20:40 15,4 C 15,4 C 89 % 1017,8 hPa 0,0 mm 8,2 km/h (2 Bft) W 260 0 min 0,000 mm 0,0 UV-I 0 W/m 13,6 C 17,7 km/h (3 Bft)
02.08.2016 20:41 15,4 C 15,4 C 89 % 1017,7 hPa 0,0 mm 10,1 km/h (2 Bft) W-SW 244 0 min 0,000 mm 0,0 UV-I 0 W/m 13,6 C 14,5 km/h (3 Bft)
02.08.2016 20:42 15,4 C 15,4 C 89 % 1017,7 hPa 0,0 mm 4,6 km/h (1 Bft) S-SO 147 0 min 0,000 mm 0,0 UV-I 0 W/m 13,6 C 6,4 km/h (2 Bft)
02.08.2016 20:43 15,4 C 15,4 C 88 % 1017,7 hPa 0,0 mm 7,0 km/h (2 Bft) W-SW 248 0 min 0,000 mm 0,0 UV-I 0 W/m 13,4 C 16,1 km/h (3 Bft)
02.08.2016 20:44 15,4 C 15,4 C 88 % 1017,7 hPa 0,0 mm 5,3 km/h (1 Bft) W-SW 246 0 min 0,000 mm 0,0 UV-I 0 W/m 13,4 C 9,7 km/h (2 Bft)
02.08.2016 20:45 15,4 C 15,4 C 88 % 1017,8 hPa 0,0 mm 3,4 km/h (1 Bft) S-SW 209 0 min 0,000 mm 0,0 UV-I 0 W/m 13,4 C 6,4 km/h (2 Bft)
02.08.2016 20:46 15,4 C 15,4 C 88 % 1017,8 hPa 0,0 mm 5,0 km/h (1 Bft) W 279 0 min 0,000 mm 0,0 UV-I 0 W/m 13,4 C 6,4 km/h (2 Bft)
02.08.2016 20:47 15,4 C 15,4 C 89 % 1017,8 hPa 0,0 mm 5,2 km/h (1 Bft) SW 228 0 min 0,000 mm 0,0 UV-I 0 W/m 13,6 C 8,0 km/h (2 Bft)
02.08.2016 20:48 15,3 C 15,4 C 89 % 1017,8 hPa 0,0 mm 10,1 km/h (2 Bft) SW 228 0 min 0,000 mm 0,0 UV-I 0 W/m 13,5 C 17,7 km/h (3 Bft)
02.08.2016 20:49 15,3 C 15,3 C 89 % 1017,8 hPa 0,0 mm 4,6 km/h (1 Bft) W-SW 252 0 min 0,000 mm 0,0 UV-I 0 W/m 13,5 C 6,4 km/h (2 Bft)
02.08.2016 20:50 15,3 C 15,4 C 89 % 1017,8 hPa 0,0 mm 4,4 km/h (1 Bft) W-SW 244 0 min 0,000 mm 0,0 UV-I 0 W/m 13,5 C 6,4 km/h (2 Bft)
02.08.2016 20:51 15,3 C 15,3 C 89 % 1017,9 hPa 0,0 mm 7,8 km/h (2 Bft) W-NW 302 0 min 0,000 mm 0,0 UV-I 0 W/m 13,5 C 12,9 km/h (3 Bft)
02.08.2016 20:52 15,3 C 15,3 C 89 % 1017,9 hPa 0,0 mm 6,0 km/h (2 Bft) W-SW 250 0 min 0,000 mm 0,0 UV-I 0 W/m 13,5 C 11,3 km/h (2 Bft)
02.08.2016 20:53 15,3 C 15,3 C 89 % 1017,9 hPa 0,0 mm 5,6 km/h (1 Bft) S-SW 211 0 min 0,000 mm 0,0 UV-I 0 W/m 13,5 C 8,0 km/h (2 Bft)
02.08.2016 20:54 15,3 C 15,3 C 89 % 1017,9 hPa 0,0 mm 3,9 km/h (1 Bft) W-SW 244 0 min 0,000 mm 0,0 UV-I 0 W/m 13,5 C 8,0 km/h (2 Bft)
02.08.2016 20:55 15,3 C 15,3 C 89 % 1017,9 hPa 0,0 mm 7,8 km/h (2 Bft) W-SW 241 0 min 0,000 mm 0,0 UV-I 0 W/m 13,5 C 11,3 km/h (2 Bft)
02.08.2016 20:56 15,2 C 15,3 C 89 % 1017,9 hPa 0,0 mm 5,6 km/h (1 Bft) W-SW 253 0 min 0,000 mm 0,0 UV-I 0 W/m 13,4 C 11,3 km/h (2 Bft)
02.08.2016 20:57 15,3 C 15,3 C 89 % 1017,9 hPa 0,2 mm 5,9 km/h (2 Bft) W-SW 258 0 min 0,000 mm 0,0 UV-I 0 W/m 13,5 C 9,7 km/h (2 Bft)
02.08.2016 20:58 15,2 C 15,3 C 89 % 1018,0 hPa 0,0 mm 5,6 km/h (1 Bft) SW 223 0 min 0,000 mm 0,0 UV-I 0 W/m 13,4 C 8,0 km/h (2 Bft)
02.08.2016 20:59 15,2 C 15,3 C 89 % 1018,0 hPa 0,0 mm 3,6 km/h (1 Bft) SW 228 0 min 0,000 mm 0,0 UV-I 0 W/m 13,4 C 6,4 km/h (2 Bft)
02.08.2016 21:00 15,2 C 15,2 C 89 % 1018,0 hPa 0,0 mm 2,9 km/h (1 Bft) S-SW 213 0 min 0,000 mm 0,0 UV-I 0 W/m 13,4 C 6,4 km/h (2 Bft)
02.08.2016 21:01 15,2 C 15,2 C 89 % 1018,0 hPa 0,0 mm 5,4 km/h (1 Bft) SW 221 0 min 0,000 mm 0,0 UV-I 0 W/m 13,4 C 8,0 km/h (2 Bft)
02.08.2016 21:02 15,2 C 15,2 C 90 % 1018,0 hPa 0,0 mm 3,7 km/h (1 Bft) W-SW 244 0 min 0,000 mm 0,0 UV-I 0 W/m 13,6 C 6,4 km/h (2 Bft)
02.08.2016 21:03 15,2 C 15,2 C 90 % 1018,0 hPa 0,0 mm 6,9 km/h (2 Bft) SW 235 0 min 0,000 mm 0,0 UV-I 0 W/m 13,6 C 12,9 km/h (3 Bft)
02.08.2016 21:04 15,2 C 15,2 C 90 % 1018,0 hPa 0,0 mm 5,8 km/h (2 Bft) SW 214 0 min 0,000 mm 0,0 UV-I 0 W/m 13,6 C 8,0 km/h (2 Bft)
02.08.2016 21:05 15,2 C 15,2 C 89 % 1018,0 hPa 0,0 mm 4,3 km/h (1 Bft) W-SW 254 0 min 0,000 mm 0,0 UV-I 0 W/m 13,4 C 6,4 km/h (2 Bft)
02.08.2016 21:06 15,2 C 15,2 C 89 % 1018,0 hPa 0,0 mm 3,8 km/h (1 Bft) S-SW 213 0 min 0,000 mm 0,0 UV-I 0 W/m 13,4 C 6,4 km/h (2 Bft)
02.08.2016 21:07 15,2 C 15,2 C 89 % 1018,0 hPa 0,0 mm 3,6 km/h (1 Bft) SW 234 0 min 0,000 mm 0,0 UV-I 0 W/m 13,4 C 9,7 km/h (2 Bft)
02.08.2016 21:08 15,2 C 15,2 C 89 % 1018,0 hPa 0,0 mm 4,9 km/h (1 Bft) SW 228 0 min 0,000 mm 0,0 UV-I 0 W/m 13,4 C 6,4 km/h (2 Bft)
02.08.2016 21:09 15,2 C 15,2 C 90 % 1018,0 hPa 0,0 mm 4,2 km/h (1 Bft) SW 218 0 min 0,000 mm 0,0 UV-I 0 W/m 13,6 C 6,4 km/h (2 Bft)
02.08.2016 21:10 15,2 C 15,2 C 90 % 1018,1 hPa 0,0 mm 4,1 km/h (1 Bft) SW 219 0 min 0,000 mm 0,0 UV-I 0 W/m 13,6 C 6,4 km/h (2 Bft)
02.08.2016 21:11 15,2 C 15,2 C 90 % 1018,0 hPa 0,0 mm 4,4 km/h (1 Bft) SW 216 0 min 0,000 mm 0,0 UV-I 0 W/m 13,6 C 6,4 km/h (2 Bft)
02.08.2016 21:12 15,2 C 15,2 C 90 % 1018,1 hPa 0,0 mm 3,7 km/h (1 Bft) W-SW 238 0 min 0,000 mm 0,0 UV-I 0 W/m 13,6 C 8,0 km/h (2 Bft)
02.08.2016 21:13 15,2 C 15,2 C 90 % 1018,1 hPa 0,0 mm 5,0 km/h (1 Bft) W-SW 244 0 min 0,000 mm 0,0 UV-I 0 W/m 13,6 C 8,0 km/h (2 Bft)
02.08.2016 21:14 15,2 C 15,2 C 90 % 1018,0 hPa 0,0 mm 3,7 km/h (1 Bft) W 262 0 min 0,000 mm 0,0 UV-I 0 W/m 13,6 C 4,8 km/h (1 Bft)
02.08.2016 21:15 15,1 C 15,2 C 90 % 1018,1 hPa 0,0 mm 3,4 km/h (1 Bft) W-SW 238 0 min 0,000 mm 0,0 UV-I 0 W/m 13,5 C 8,0 km/h (2 Bft)
02.08.2016 21:16 15,1 C 15,1 C 90 % 1018,2 hPa 0,0 mm 4,6 km/h (1 Bft) SW 229 0 min 0,000 mm 0,0 UV-I 0 W/m 13,5 C 9,7 km/h (2 Bft)
02.08.2016 21:17 15,1 C 15,1 C 90 % 1018,2 hPa 0,0 mm 6,2 km/h (2 Bft) S-SW 213 0 min 0,000 mm 0,0 UV-I 0 W/m 13,5 C 9,7 km/h (2 Bft)
02.08.2016 21:18 15,1 C 15,1 C 90 % 1018,2 hPa 0,0 mm 3,1 km/h (1 Bft) W-SW 250 0 min 0,000 mm 0,0 UV-I 0 W/m 13,5 C 4,8 km/h (1 Bft)
02.08.2016 21:19 15,1 C 15,1 C 90 % 1018,2 hPa 0,0 mm 2,5 km/h (1 Bft) W-SW 246 0 min 0,000 mm 0,0 UV-I 0 W/m 13,5 C 4,8 km/h (1 Bft)
02.08.2016 21:20 15,1 C 15,1 C 91 % 1018,2 hPa 0,0 mm 3,0 km/h (1 Bft) W-SW 257 0 min 0,000 mm 0,0 UV-I 0 W/m 13,6 C 4,8 km/h (1 Bft)
02.08.2016 21:21 15,1 C 15,1 C 91 % 1018,2 hPa 0,0 mm 4,2 km/h (1 Bft) W-SW 255 0 min 0,000 mm 0,0 UV-I 0 W/m 13,6 C 6,4 km/h (2 Bft)
02.08.2016 21:22 15,1 C 15,1 C 91 % 1018,2 hPa 0,0 mm 3,4 km/h (1 Bft) W-SW 246 0 min 0,000 mm 0,0 UV-I 0 W/m 13,6 C 6,4 km/h (2 Bft)
02.08.2016 21:23 15,1 C 15,1 C 91 % 1018,2 hPa 0,0 mm 1,7 km/h (1 Bft) SW 227 0 min 0,000 mm 0,0 UV-I 0 W/m 13,6 C 3,2 km/h (1 Bft)
02.08.2016 21:24 15,0 C 15,1 C 91 % 1018,3 hPa 0,0 mm 5,2 km/h (1 Bft) W-NW 288 0 min 0,000 mm 0,0 UV-I 0 W/m 13,5 C 9,7 km/h (2 Bft)
02.08.2016 21:25 15,0 C 15,0 C 91 % 1018,3 hPa 0,0 mm 3,0 km/h (1 Bft) W-SW 237 0 min 0,000 mm 0,0 UV-I 0 W/m 13,5 C 6,4 km/h (2 Bft)
02.08.2016 21:26 15,0 C 15,0 C 91 % 1018,3 hPa 0,2 mm 3,8 km/h (1 Bft) W-SW 248 0 min 0,000 mm 0,0 UV-I 0 W/m 13,5 C 6,4 km/h (2 Bft)
02.08.2016 21:27 15,0 C 15,0 C 91 % 1018,3 hPa 0,0 mm 6,2 km/h (2 Bft) SW 217 0 min 0,000 mm 0,0 UV-I 0 W/m 13,5 C 9,7 km/h (2 Bft)
02.08.2016 21:28 15,0 C 15,0 C 91 % 1018,4 hPa 0,0 mm 5,2 km/h (1 Bft) SW 234 0 min 0,000 mm 0,0 UV-I 0 W/m 13,5 C 9,7 km/h (2 Bft)
02.08.2016 21:29 15,0 C 15,0 C 91 % 1018,3 hPa 0,0 mm 4,6 km/h (1 Bft) W-NW 298 0 min 0,000 mm 0,0 UV-I 0 W/m 13,5 C 8,0 km/h (2 Bft)
02.08.2016 21:30 15,0 C 15,0 C 91 % 1018,4 hPa 0,0 mm 7,0 km/h (2 Bft) SW 220 0 min 0,000 mm 0,0 UV-I 0 W/m 13,5 C 14,5 km/h (3 Bft)
02.08.2016 21:31 15,0 C 15,0 C 91 % 1018,4 hPa 0,0 mm 6,7 km/h (2 Bft) S-SW 205 0 min 0,000 mm 0,0 UV-I 0 W/m 13,5 C 12,9 km/h (3 Bft)
02.08.2016 21:32 15,0 C 15,0 C 91 % 1018,4 hPa 0,0 mm 4,3 km/h (1 Bft) W-SW 250 0 min 0,000 mm 0,0 UV-I 0 W/m 13,5 C 8,0 km/h (2 Bft)
02.08.2016 21:33 15,0 C 15,0 C 92 % 1018,4 hPa 0,0 mm 3,2 km/h (1 Bft) W-SW 257 0 min 0,000 mm 0,0 UV-I 0 W/m 13,7 C 6,4 km/h (2 Bft)
02.08.2016 21:34 14,9 C 15,0 C 92 % 1018,4 hPa 0,0 mm 5,5 km/h (1 Bft) W-SW 257 0 min 0,000 mm 0,0 UV-I 0 W/m 13,6 C 9,7 km/h (2 Bft)
02.08.2016 21:35 15,0 C 15,0 C 92 % 1018,5 hPa 0,0 mm 4,6 km/h (1 Bft) W-SW 238 0 min 0,000 mm 0,0 UV-I 0 W/m 13,7 C 11,3 km/h (2 Bft)
02.08.2016 21:36 15,0 C 15,0 C 92 % 1018,5 hPa 0,0 mm 4,9 km/h (1 Bft) W-SW 248 0 min 0,000 mm 0,0 UV-I 0 W/m 13,7 C 9,7 km/h (2 Bft)
02.08.2016 21:37 15,0 C 15,0 C 92 % 1018,5 hPa 0,0 mm 5,8 km/h (2 Bft) W-SW 248 0 min 0,000 mm 0,0 UV-I 0 W/m 13,7 C 12,9 km/h (3 Bft)
02.08.2016 21:38 15,0 C 15,0 C 92 % 1018,5 hPa 0,0 mm 6,0 km/h (2 Bft) W-SW 255 0 min 0,000 mm 0,0 UV-I 0 W/m 13,7 C 9,7 km/h (2 Bft)
02.08.2016 21:39 15,0 C 15,0 C 92 % 1018,5 hPa 0,0 mm 2,3 km/h (1 Bft) SW 227 0 min 0,000 mm 0,0 UV-I 0 W/m 13,7 C 4,8 km/h (1 Bft)
02.08.2016 21:40 15,0 C 15,0 C 92 % 1018,6 hPa 0,0 mm 1,3 km/h (1 Bft) SW 227 0 min 0,000 mm 0,0 UV-I 0 W/m 13,7 C 3,2 km/h (1 Bft)
02.08.2016 21:41 15,0 C 15,0 C 92 % 1018,6 hPa 0,2 mm 2,1 km/h (1 Bft) SW 233 0 min 0,000 mm 0,0 UV-I 0 W/m 13,7 C 4,8 km/h (1 Bft)
02.08.2016 21:42 14,9 C 15,0 C 92 % 1018,6 hPa 0,0 mm 3,1 km/h (1 Bft) W-SW 244 0 min 0,000 mm 0,0 UV-I 0 W/m 13,6 C 4,8 km/h (1 Bft)
02.08.2016 21:43 14,9 C 15,0 C 92 % 1018,6 hPa 0,0 mm 1,1 km/h (1 Bft) W-SW 244 0 min 0,000 mm 0,0 UV-I 0 W/m 13,6 C 1,6 km/h (1 Bft)
02.08.2016 21:44 14,9 C 14,9 C 92 % 1018,6 hPa 0,0 mm 1,7 km/h (1 Bft) SW 216 0 min 0,000 mm 0,0 UV-I 0 W/m 13,6 C 4,8 km/h (1 Bft)
02.08.2016 21:45 14,9 C 14,9 C 92 % 1018,6 hPa 0,0 mm 2,4 km/h (1 Bft) SW 221 0 min 0,000 mm 0,0 UV-I 0 W/m 13,6 C 4,8 km/h (1 Bft)
02.08.2016 21:46 14,9 C 14,9 C 92 % 1018,6 hPa 0,0 mm 2,4 km/h (1 Bft) W-SW 257 0 min 0,000 mm 0,0 UV-I 0 W/m 13,6 C 6,4 km/h (2 Bft)
02.08.2016 21:47 14,9 C 14,9 C 92 % 1018,6 hPa 0,0 mm 4,5 km/h (1 Bft) SW 232 0 min 0,000 mm 0,0 UV-I 0 W/m 13,6 C 6,4 km/h (2 Bft)
02.08.2016 21:48 14,9 C 14,9 C 92 % 1018,6 hPa 0,0 mm 2,1 km/h (1 Bft) SW 232 0 min 0,000 mm 0,0 UV-I 0 W/m 13,6 C 3,2 km/h (1 Bft)
02.08.2016 21:49 14,9 C 14,9 C 92 % 1018,6 hPa 0,2 mm 3,5 km/h (1 Bft) SW 233 0 min 0,000 mm 0,0 UV-I 0 W/m 13,6 C 6,4 km/h (2 Bft)
02.08.2016 21:50 14,9 C 14,9 C 92 % 1018,6 hPa 0,0 mm 3,4 km/h (1 Bft) W-SW 254 0 min 0,000 mm 0,0 UV-I 0 W/m 13,6 C 4,8 km/h (1 Bft)
02.08.2016 21:51 14,9 C 14,9 C 92 % 1018,6 hPa 0,0 mm 3,9 km/h (1 Bft) SW 234 0 min 0,000 mm 0,0 UV-I 0 W/m 13,6 C 4,8 km/h (1 Bft)
02.08.2016 21:52 14,9 C 14,9 C 92 % 1018,7 hPa 0,0 mm 4,3 km/h (1 Bft) W-SW 240 0 min 0,000 mm 0,0 UV-I 0 W/m 13,6 C 6,4 km/h (2 Bft)
02.08.2016 21:53 14,9 C 14,9 C 92 % 1018,7 hPa 0,0 mm 4,0 km/h (1 Bft) W-NW 286 0 min 0,000 mm 0,0 UV-I 0 W/m 13,6 C 6,4 km/h (2 Bft)
02.08.2016 21:54 14,9 C 14,9 C 92 % 1018,7 hPa 0,0 mm 7,1 km/h (2 Bft) W-SW 250 0 min 0,000 mm 0,0 UV-I 0 W/m 13,6 C 11,3 km/h (2 Bft)
02.08.2016 21:55 14,9 C 14,9 C 92 % 1018,7 hPa 0,0 mm 6,0 km/h (2 Bft) W-SW 244 0 min 0,000 mm 0,0 UV-I 0 W/m 13,6 C 9,7 km/h (2 Bft)
02.08.2016 21:56 14,9 C 14,9 C 92 % 1018,7 hPa 0,0 mm 4,6 km/h (1 Bft) SW 232 0 min 0,000 mm 0,0 UV-I 0 W/m 13,6 C 6,4 km/h (2 Bft)
02.08.2016 21:57 14,9 C 14,9 C 92 % 1018,7 hPa 0,0 mm 4,2 km/h (1 Bft) W-SW 249 0 min 0,000 mm 0,0 UV-I 0 W/m 13,6 C 4,8 km/h (1 Bft)
02.08.2016 21:58 14,9 C 14,9 C 92 % 1018,7 hPa 0,2 mm 3,6 km/h (1 Bft) W-SW 250 0 min 0,000 mm 0,0 UV-I 0 W/m 13,6 C 4,8 km/h (1 Bft)
02.08.2016 21:59 14,9 C 14,9 C 93 % 1018,7 hPa 0,0 mm 5,1 km/h (1 Bft) W-SW 239 0 min 0,000 mm 0,0 UV-I 0 W/m 13,8 C 6,4 km/h (2 Bft)
02.08.2016 22:00 14,9 C 14,9 C 93 % 1018,7 hPa 0,0 mm 4,8 km/h (1 Bft) W 263 0 min 0,000 mm 0,0 UV-I 0 W/m 13,8 C 8,0 km/h (2 Bft)
02.08.2016 22:01 14,9 C 14,9 C 93 % 1018,7 hPa 0,0 mm 6,1 km/h (2 Bft) W-SW 256 0 min 0,000 mm 0,0 UV-I 0 W/m 13,8 C 9,7 km/h (2 Bft)
02.08.2016 22:02 14,9 C 14,9 C 93 % 1018,7 hPa 0,0 mm 5,2 km/h (1 Bft) W-SW 257 0 min 0,000 mm 0,0 UV-I 0 W/m 13,8 C 6,4 km/h (2 Bft)
02.08.2016 22:03 14,9 C 14,9 C 93 % 1018,7 hPa 0,0 mm 6,4 km/h (2 Bft) W-NW 283 0 min 0,000 mm 0,0 UV-I 0 W/m 13,8 C 9,7 km/h (2 Bft)
02.08.2016 22:04 14,9 C 14,9 C 93 % 1018,8 hPa 0,0 mm 5,8 km/h (2 Bft) W-SW 255 0 min 0,000 mm 0,0 UV-I 0 W/m 13,8 C 11,3 km/h (2 Bft)
02.08.2016 22:05 14,9 C 14,9 C 93 % 1018,8 hPa 0,0 mm 4,9 km/h (1 Bft) W 262 0 min 0,000 mm 0,0 UV-I 0 W/m 13,8 C 8,0 km/h (2 Bft)
02.08.2016 22:06 14,9 C 14,9 C 93 % 1018,7 hPa 0,0 mm 9,8 km/h (2 Bft) W 263 0 min 0,000 mm 0,0 UV-I 0 W/m 13,8 C 12,9 km/h (3 Bft)
02.08.2016 22:07 14,9 C 14,9 C 93 % 1018,8 hPa 0,0 mm 7,6 km/h (2 Bft) W-SW 257 0 min 0,000 mm 0,0 UV-I 0 W/m 13,8 C 11,3 km/h (2 Bft)
02.08.2016 22:08 14,9 C 14,9 C 93 % 1018,7 hPa 0,0 mm 7,9 km/h (2 Bft) W 262 0 min 0,000 mm 0,0 UV-I 0 W/m 13,8 C 12,9 km/h (3 Bft)
02.08.2016 22:09 14,9 C 14,9 C 93 % 1018,8 hPa 0,0 mm 7,1 km/h (2 Bft) W-SW 238 0 min 0,000 mm 0,0 UV-I 0 W/m 13,8 C 11,3 km/h (2 Bft)
02.08.2016 22:10 14,9 C 14,9 C 93 % 1018,8 hPa 0,0 mm 5,0 km/h (1 Bft) W-SW 253 0 min 0,000 mm 0,0 UV-I 0 W/m 13,8 C 6,4 km/h (2 Bft)
02.08.2016 22:11 14,9 C 14,9 C 93 % 1018,8 hPa 0,2 mm 6,4 km/h (2 Bft) W 279 0 min 0,000 mm 0,0 UV-I 0 W/m 13,8 C 9,7 km/h (2 Bft)
02.08.2016 22:12 14,9 C 14,9 C 93 % 1018,8 hPa 0,0 mm 7,6 km/h (2 Bft) W-SW 242 0 min 0,000 mm 0,0 UV-I 0 W/m 13,8 C 11,3 km/h (2 Bft)
02.08.2016 22:13 14,9 C 14,9 C 93 % 1018,8 hPa 0,0 mm 6,0 km/h (2 Bft) W 277 0 min 0,000 mm 0,0 UV-I 0 W/m 13,8 C 11,3 km/h (2 Bft)
02.08.2016 22:14 14,9 C 14,9 C 93 % 1018,8 hPa 0,0 mm 6,6 km/h (2 Bft) W-SW 238 0 min 0,000 mm 0,0 UV-I 0 W/m 13,8 C 11,3 km/h (2 Bft)
02.08.2016 22:15 14,9 C 14,9 C 93 % 1018,8 hPa 0,0 mm 7,6 km/h (2 Bft) W-SW 257 0 min 0,000 mm 0,0 UV-I 0 W/m 13,8 C 14,5 km/h (3 Bft)
02.08.2016 22:16 14,9 C 14,9 C 93 % 1018,9 hPa 0,0 mm 9,7 km/h (2 Bft) W-SW 257 0 min 0,000 mm 0,0 UV-I 0 W/m 13,8 C 14,5 km/h (3 Bft)
02.08.2016 22:17 14,9 C 14,9 C 92 % 1018,8 hPa 0,0 mm 7,9 km/h (2 Bft) W-SW 249 0 min 0,000 mm 0,0 UV-I 0 W/m 13,6 C 14,5 km/h (3 Bft)
02.08.2016 22:18 14,9 C 14,9 C 92 % 1018,8 hPa 0,0 mm 5,0 km/h (1 Bft) W-SW 238 0 min 0,000 mm 0,0 UV-I 0 W/m 13,6 C 12,9 km/h (3 Bft)
02.08.2016 22:19 14,9 C 14,9 C 92 % 1018,8 hPa 0,0 mm 8,2 km/h (2 Bft) W 279 0 min 0,000 mm 0,0 UV-I 0 W/m 13,6 C 11,3 km/h (2 Bft)
02.08.2016 22:20 14,9 C 14,9 C 92 % 1018,9 hPa 0,0 mm 10,7 km/h (2 Bft) SW 215 0 min 0,000 mm 0,0 UV-I 0 W/m 13,6 C 14,5 km/h (3 Bft)
02.08.2016 22:21 14,9 C 14,9 C 92 % 1018,8 hPa 0,0 mm 8,8 km/h (2 Bft) W 268 0 min 0,000 mm 0,0 UV-I 0 W/m 13,6 C 12,9 km/h (3 Bft)
02.08.2016 22:22 14,9 C 14,9 C 92 % 1018,8 hPa 0,0 mm 7,2 km/h (2 Bft) W-SW 249 0 min 0,000 mm 0,0 UV-I 0 W/m 13,6 C 12,9 km/h (3 Bft)
02.08.2016 22:23 14,9 C 14,9 C 92 % 1018,8 hPa 0,0 mm 7,1 km/h (2 Bft) W-SW 244 0 min 0,000 mm 0,0 UV-I 0 W/m 13,6 C 14,5 km/h (3 Bft)
02.08.2016 22:24 14,9 C 14,9 C 92 % 1018,8 hPa 0,0 mm 12,3 km/h (3 Bft) S-SW 205 0 min 0,000 mm 0,0 UV-I 0 W/m 13,6 C 16,1 km/h (3 Bft)
02.08.2016 22:25 14,9 C 14,9 C 92 % 1018,8 hPa 0,0 mm 12,2 km/h (2 Bft) W-SW 257 0 min 0,000 mm 0,0 UV-I 0 W/m 13,6 C 16,1 km/h (3 Bft)
02.08.2016 22:26 14,9 C 14,9 C 92 % 1018,8 hPa 0,0 mm 6,8 km/h (2 Bft) SW 235 0 min 0,000 mm 0,0 UV-I 0 W/m 13,6 C 12,9 km/h (3 Bft)
02.08.2016 22:27 14,9 C 14,9 C 92 % 1018,8 hPa 0,0 mm 10,0 km/h (2 Bft) W 264 0 min 0,000 mm 0,0 UV-I 0 W/m 13,6 C 14,5 km/h (3 Bft)
02.08.2016 22:28 14,9 C 14,9 C 92 % 1018,8 hPa 0,0 mm 6,0 km/h (2 Bft) W-SW 255 0 min 0,000 mm 0,0 UV-I 0 W/m 13,6 C 9,7 km/h (2 Bft)
02.08.2016 22:29 14,9 C 14,9 C 92 % 1018,8 hPa 0,0 mm 5,6 km/h (1 Bft) W-SW 252 0 min 0,000 mm 0,0 UV-I 0 W/m 13,6 C 11,3 km/h (2 Bft)
02.08.2016 22:30 14,9 C 14,9 C 92 % 1018,8 hPa 0,0 mm 8,4 km/h (2 Bft) W-SW 239 0 min 0,000 mm 0,0 UV-I 0 W/m 13,6 C 12,9 km/h (3 Bft)
02.08.2016 22:31 14,9 C 14,9 C 92 % 1018,8 hPa 0,0 mm 9,7 km/h (2 Bft) W 262 0 min 0,000 mm 0,0 UV-I 0 W/m 13,6 C 14,5 km/h (3 Bft)
02.08.2016 22:32 14,9 C 14,9 C 92 % 1018,8 hPa 0,0 mm 5,6 km/h (1 Bft) SW 219 0 min 0,000 mm 0,0 UV-I 0 W/m 13,6 C 8,0 km/h (2 Bft)
02.08.2016 22:33 14,8 C 14,9 C 92 % 1018,8 hPa 0,0 mm 3,8 km/h (1 Bft) W-SW 255 0 min 0,000 mm 0,0 UV-I 0 W/m 13,5 C 6,4 km/h (2 Bft)
02.08.2016 22:34 14,8 C 14,8 C 92 % 1018,8 hPa 0,0 mm 8,7 km/h (2 Bft) W 271 0 min 0,000 mm 0,0 UV-I 0 W/m 13,5 C 14,5 km/h (3 Bft)
02.08.2016 22:35 14,8 C 14,8 C 92 % 1018,8 hPa 0,2 mm 7,5 km/h (2 Bft) W 273 0 min 0,000 mm 0,0 UV-I 0 W/m 13,5 C 11,3 km/h (2 Bft)
02.08.2016 22:36 14,8 C 14,8 C 92 % 1018,8 hPa 0,0 mm 8,2 km/h (2 Bft) W 272 0 min 0,000 mm 0,0 UV-I 0 W/m 13,5 C 14,5 km/h (3 Bft)
02.08.2016 22:37 14,8 C 14,8 C 93 % 1018,9 hPa 0,0 mm 7,0 km/h (2 Bft) W 273 0 min 0,000 mm 0,0 UV-I 0 W/m 13,7 C 12,9 km/h (3 Bft)
02.08.2016 22:38 14,8 C 14,8 C 92 % 1018,8 hPa 0,0 mm 7,8 km/h (2 Bft) W-SW 239 0 min 0,000 mm 0,0 UV-I 0 W/m 13,5 C 12,9 km/h (3 Bft)
02.08.2016 22:39 14,8 C 14,8 C 92 % 1018,8 hPa 0,0 mm 6,6 km/h (2 Bft) W-SW 252 0 min 0,000 mm 0,0 UV-I 0 W/m 13,5 C 9,7 km/h (2 Bft)
02.08.2016 22:40 14,8 C 14,8 C 92 % 1018,9 hPa 0,0 mm 7,5 km/h (2 Bft) W 260 0 min 0,000 mm 0,0 UV-I 0 W/m 13,5 C 11,3 km/h (2 Bft)
02.08.2016 22:41 14,8 C 14,8 C 92 % 1018,9 hPa 0,0 mm 10,5 km/h (2 Bft) SW 236 0 min 0,000 mm 0,0 UV-I 0 W/m 13,5 C 16,1 km/h (3 Bft)
02.08.2016 22:42 14,8 C 14,8 C 92 % 1018,9 hPa 0,0 mm 6,8 km/h (2 Bft) W-SW 254 0 min 0,000 mm 0,0 UV-I 0 W/m 13,5 C 14,5 km/h (3 Bft)
02.08.2016 22:43 14,8 C 14,8 C 92 % 1018,9 hPa 0,0 mm 10,1 km/h (2 Bft) W 274 0 min 0,000 mm 0,0 UV-I 0 W/m 13,5 C 17,7 km/h (3 Bft)
02.08.2016 22:44 14,8 C 14,8 C 92 % 1019,0 hPa 0,0 mm 8,8 km/h (2 Bft) W 280 0 min 0,000 mm 0,0 UV-I 0 W/m 13,5 C 17,7 km/h (3 Bft)
02.08.2016 22:45 14,8 C 14,8 C 92 % 1018,9 hPa 0,0 mm 9,6 km/h (2 Bft) W-NW 290 0 min 0,000 mm 0,0 UV-I 0 W/m 13,5 C 14,5 km/h (3 Bft)
02.08.2016 22:46 14,8 C 14,8 C 92 % 1019,0 hPa 0,0 mm 7,4 km/h (2 Bft) W-NW 286 0 min 0,000 mm 0,0 UV-I 0 W/m 13,5 C 12,9 km/h (3 Bft)
02.08.2016 22:47 14,8 C 14,8 C 92 % 1019,0 hPa 0,0 mm 7,9 km/h (2 Bft) W 271 0 min 0,000 mm 0,0 UV-I 0 W/m 13,5 C 14,5 km/h (3 Bft)
02.08.2016 22:48 14,8 C 14,8 C 92 % 1018,9 hPa 0,0 mm 5,5 km/h (1 Bft) SW 222 0 min 0,000 mm 0,0 UV-I 0 W/m 13,5 C 8,0 km/h (2 Bft)
02.08.2016 22:49 14,8 C 14,8 C 93 % 1018,9 hPa 0,0 mm 3,8 km/h (1 Bft) W-SW 254 0 min 0,000 mm 0,0 UV-I 0 W/m 13,7 C 6,4 km/h (2 Bft)
02.08.2016 22:50 14,8 C 14,8 C 93 % 1018,9 hPa 0,0 mm 5,7 km/h (1 Bft) W-SW 255 0 min 0,000 mm 0,0 UV-I 0 W/m 13,7 C 9,7 km/h (2 Bft)
02.08.2016 22:51 14,8 C 14,8 C 93 % 1019,0 hPa 0,0 mm 8,0 km/h (2 Bft) W-NW 288 0 min 0,000 mm 0,0 UV-I 0 W/m 13,7 C 12,9 km/h (3 Bft)
02.08.2016 22:52 14,8 C 14,8 C 93 % 1018,9 hPa 0,0 mm 8,7 km/h (2 Bft) W 281 0 min 0,000 mm 0,0 UV-I 0 W/m 13,7 C 14,5 km/h (3 Bft)
02.08.2016 22:53 14,8 C 14,8 C 93 % 1018,9 hPa 0,0 mm 2,8 km/h (1 Bft) W-SW 239 0 min 0,000 mm 0,0 UV-I 0 W/m 13,7 C 6,4 km/h (2 Bft)
02.08.2016 22:54 14,8 C 14,8 C 93 % 1019,0 hPa 0,2 mm 7,4 km/h (2 Bft) W 279 0 min 0,000 mm 0,0 UV-I 0 W/m 13,7 C 12,9 km/h (3 Bft)
02.08.2016 22:55 14,8 C 14,8 C 93 % 1018,9 hPa 0,0 mm 8,2 km/h (2 Bft) NW 307 0 min 0,000 mm 0,0 UV-I 0 W/m 13,7 C 14,5 km/h (3 Bft)
02.08.2016 22:56 14,8 C 14,8 C 93 % 1018,9 hPa 0,0 mm 5,3 km/h (1 Bft) W 265 0 min 0,000 mm 0,0 UV-I 0 W/m 13,7 C 11,3 km/h (2 Bft)
02.08.2016 22:57 14,8 C 14,8 C 93 % 1019,0 hPa 0,0 mm 4,6 km/h (1 Bft) W 278 0 min 0,000 mm 0,0 UV-I 0 W/m 13,7 C 9,7 km/h (2 Bft)
02.08.2016 22:58 14,7 C 14,8 C 93 % 1019,0 hPa 0,0 mm 4,5 km/h (1 Bft) W 264 0 min 0,000 mm 0,0 UV-I 0 W/m 13,6 C 11,3 km/h (2 Bft)
02.08.2016 22:59 14,7 C 14,7 C 93 % 1019,0 hPa 0,0 mm 11,3 km/h (2 Bft) W 269 0 min 0,000 mm 0,0 UV-I 0 W/m 13,6 C 14,5 km/h (3 Bft)
02.08.2016 23:00 14,7 C 14,7 C 93 % 1018,9 hPa 0,0 mm 5,6 km/h (1 Bft) W-SW 238 0 min 0,000 mm 0,0 UV-I 0 W/m 13,6 C 9,7 km/h (2 Bft)
02.08.2016 23:01 14,7 C 14,7 C 93 % 1018,9 hPa 0,0 mm 5,9 km/h (2 Bft) W-SW 252 0 min 0,000 mm 0,0 UV-I 0 W/m 13,6 C 8,0 km/h (2 Bft)
02.08.2016 23:02 14,7 C 14,7 C 93 % 1018,9 hPa 0,0 mm 6,2 km/h (2 Bft) W 272 0 min 0,000 mm 0,0 UV-I 0 W/m 13,6 C 11,3 km/h (2 Bft)
02.08.2016 23:03 14,7 C 14,7 C 93 % 1018,9 hPa 0,0 mm 5,9 km/h (2 Bft) W 266 0 min 0,000 mm 0,0 UV-I 0 W/m 13,6 C 9,7 km/h (2 Bft)
02.08.2016 23:04 14,7 C 14,7 C 93 % 1018,9 hPa 0,0 mm 4,6 km/h (1 Bft) SW 220 0 min 0,000 mm 0,0 UV-I 0 W/m 13,6 C 6,4 km/h (2 Bft)
02.08.2016 23:05 14,7 C 14,7 C 93 % 1018,9 hPa 0,0 mm 5,9 km/h (2 Bft) SW 232 0 min 0,000 mm 0,0 UV-I 0 W/m 13,6 C 8,0 km/h (2 Bft)
02.08.2016 23:06 14,7 C 14,7 C 93 % 1018,8 hPa 0,0 mm 4,9 km/h (1 Bft) SO 142 0 min 0,000 mm 0,0 UV-I 0 W/m 13,6 C 8,0 km/h (2 Bft)
02.08.2016 23:07 14,7 C 14,7 C 93 % 1018,8 hPa 0,0 mm 5,9 km/h (2 Bft) W-SW 248 0 min 0,000 mm 0,0 UV-I 0 W/m 13,6 C 9,7 km/h (2 Bft)
02.08.2016 23:08 14,7 C 14,7 C 93 % 1018,8 hPa 0,0 mm 3,1 km/h (1 Bft) SW 223 0 min 0,000 mm 0,0 UV-I 0 W/m 13,6 C 4,8 km/h (1 Bft)
02.08.2016 23:09 14,7 C 14,7 C 93 % 1018,8 hPa 0,0 mm 6,8 km/h (2 Bft) SW 228 0 min 0,000 mm 0,0 UV-I 0 W/m 13,6 C 12,9 km/h (3 Bft)
02.08.2016 23:10 14,7 C 14,7 C 93 % 1018,8 hPa 0,0 mm 4,7 km/h (1 Bft) S 190 0 min 0,000 mm 0,0 UV-I 0 W/m 13,6 C 8,0 km/h (2 Bft)
02.08.2016 23:11 14,7 C 14,7 C 93 % 1018,7 hPa 0,0 mm 2,7 km/h (1 Bft) S 178 0 min 0,000 mm 0,0 UV-I 0 W/m 13,6 C 4,8 km/h (1 Bft)
02.08.2016 23:12 14,7 C 14,7 C 93 % 1018,7 hPa 0,0 mm 2,0 km/h (1 Bft) S 185 0 min 0,000 mm 0,0 UV-I 0 W/m 13,6 C 4,8 km/h (1 Bft)
02.08.2016 23:13 14,7 C 14,7 C 93 % 1018,6 hPa 0,0 mm 4,1 km/h (1 Bft) S-SO 161 0 min 0,000 mm 0,0 UV-I 0 W/m 13,6 C 8,0 km/h (2 Bft)
02.08.2016 23:14 14,7 C 14,7 C 92 % 1018,6 hPa 0,0 mm 4,6 km/h (1 Bft) S 178 0 min 0,000 mm 0,0 UV-I 0 W/m 13,4 C 9,7 km/h (2 Bft)
02.08.2016 23:15 14,7 C 14,7 C 93 % 1018,6 hPa 0,0 mm 2,7 km/h (1 Bft) SW 217 0 min 0,000 mm 0,0 UV-I 0 W/m 13,6 C 4,8 km/h (1 Bft)
02.08.2016 23:16 14,7 C 14,7 C 92 % 1018,6 hPa 0,0 mm 2,7 km/h (1 Bft) S-SW 204 0 min 0,000 mm 0,0 UV-I 0 W/m 13,4 C 6,4 km/h (2 Bft)
02.08.2016 23:17 14,7 C 14,7 C 93 % 1018,6 hPa 0,0 mm 3,5 km/h (1 Bft) W-SW 240 0 min 0,000 mm 0,0 UV-I 0 W/m 13,6 C 6,4 km/h (2 Bft)
02.08.2016 23:18 14,7 C 14,7 C 93 % 1018,6 hPa 0,0 mm 3,2 km/h (1 Bft) S-SW 194 0 min 0,000 mm 0,0 UV-I 0 W/m 13,6 C 6,4 km/h (2 Bft)
02.08.2016 23:19 14,7 C 14,7 C 93 % 1018,6 hPa 0,0 mm 1,5 km/h (1 Bft) S-SW 194 0 min 0,000 mm 0,0 UV-I 0 W/m 13,6 C 3,2 km/h (1 Bft)
02.08.2016 23:20 14,7 C 14,7 C 93 % 1018,6 hPa 0,0 mm 1,4 km/h (1 Bft) S-SW 194 0 min 0,000 mm 0,0 UV-I 0 W/m 13,6 C 3,2 km/h (1 Bft)
02.08.2016 23:21 14,7 C 14,7 C 92 % 1018,6 hPa 0,0 mm 1,2 km/h (1 Bft) S-SW 195 0 min 0,000 mm 0,0 UV-I 0 W/m 13,4 C 3,2 km/h (1 Bft)
02.08.2016 23:22 14,7 C 14,7 C 92 % 1018,6 hPa 0,0 mm 3,0 km/h (1 Bft) SW 229 0 min 0,000 mm 0,0 UV-I 0 W/m 13,4 C 4,8 km/h (1 Bft)
02.08.2016 23:23 14,7 C 14,7 C 92 % 1018,7 hPa 0,0 mm 3,7 km/h (1 Bft) SW 236 0 min 0,000 mm 0,0 UV-I 0 W/m 13,4 C 6,4 km/h (2 Bft)
02.08.2016 23:24 14,7 C 14,7 C 92 % 1018,7 hPa 0,0 mm 2,1 km/h (1 Bft) S 183 0 min 0,000 mm 0,0 UV-I 0 W/m 13,4 C 3,2 km/h (1 Bft)
02.08.2016 23:25 14,7 C 14,7 C 92 % 1018,6 hPa 0,0 mm 1,7 km/h (1 Bft) S 183 0 min 0,000 mm 0,0 UV-I 0 W/m 13,4 C 3,2 km/h (1 Bft)
02.08.2016 23:26 14,7 C 14,7 C 92 % 1018,6 hPa 0,0 mm 3,3 km/h (1 Bft) S 169 0 min 0,000 mm 0,0 UV-I 0 W/m 13,4 C 6,4 km/h (2 Bft)
02.08.2016 23:27 14,7 C 14,7 C 92 % 1018,6 hPa 0,0 mm 3,3 km/h (1 Bft) S 175 0 min 0,000 mm 0,0 UV-I 0 W/m 13,4 C 4,8 km/h (1 Bft)
02.08.2016 23:28 14,7 C 14,7 C 92 % 1018,6 hPa 0,0 mm 1,7 km/h (1 Bft) S-SW 194 0 min 0,000 mm 0,0 UV-I 0 W/m 13,4 C 3,2 km/h (1 Bft)
02.08.2016 23:29 14,7 C 14,7 C 92 % 1018,5 hPa 0,0 mm 3,7 km/h (1 Bft) S 182 0 min 0,000 mm 0,0 UV-I 0 W/m 13,4 C 6,4 km/h (2 Bft)
02.08.2016 23:30 14,7 C 14,7 C 92 % 1018,5 hPa 0,0 mm 2,2 km/h (1 Bft) W-NW 292 0 min 0,000 mm 0,0 UV-I 0 W/m 13,4 C 4,8 km/h (1 Bft)
02.08.2016 23:31 14,7 C 14,7 C 92 % 1018,5 hPa 0,0 mm 3,2 km/h (1 Bft) W-SW 250 0 min 0,000 mm 0,0 UV-I 0 W/m 13,4 C 4,8 km/h (1 Bft)
02.08.2016 23:32 14,7 C 14,7 C 92 % 1018,5 hPa 0,0 mm 1,9 km/h (1 Bft) SW 228 0 min 0,000 mm 0,0 UV-I 0 W/m 13,4 C 3,2 km/h (1 Bft)
02.08.2016 23:33 14,7 C 14,7 C 92 % 1018,5 hPa 0,0 mm 2,5 km/h (1 Bft) SW 224 0 min 0,000 mm 0,0 UV-I 0 W/m 13,4 C 4,8 km/h (1 Bft)
02.08.2016 23:34 14,7 C 14,7 C 92 % 1018,5 hPa 0,0 mm 2,3 km/h (1 Bft) S-SO 150 0 min 0,000 mm 0,0 UV-I 0 W/m 13,4 C 4,8 km/h (1 Bft)
02.08.2016 23:35 14,6 C 14,7 C 92 % 1018,4 hPa 0,0 mm 5,2 km/h (1 Bft) S-SW 205 0 min 0,000 mm 0,0 UV-I 0 W/m 13,3 C 8,0 km/h (2 Bft)
02.08.2016 23:36 14,6 C 14,6 C 92 % 1018,4 hPa 0,0 mm 2,2 km/h (1 Bft) S-SW 213 0 min 0,000 mm 0,0 UV-I 0 W/m 13,3 C 4,8 km/h (1 Bft)
02.08.2016 23:37 14,6 C 14,6 C 93 % 1018,4 hPa 0,0 mm 0,8 km/h (0 Bft) S-SW 213 0 min 0,000 mm 0,0 UV-I 0 W/m 13,5 C 1,6 km/h (1 Bft)
02.08.2016 23:38 14,5 C 14,6 C 93 % 1018,4 hPa 0,0 mm 3,7 km/h (1 Bft) S 173 0 min 0,000 mm 0,0 UV-I 0 W/m 13,4 C 6,4 km/h (2 Bft)
02.08.2016 23:39 14,4 C 14,5 C 93 % 1018,4 hPa 0,0 mm 1,7 km/h (1 Bft) S 173 0 min 0,000 mm 0,0 UV-I 0 W/m 13,3 C 3,2 km/h (1 Bft)
02.08.2016 23:40 14,4 C 14,4 C 93 % 1018,4 hPa 0,0 mm 1,0 km/h (0 Bft) S 173 0 min 0,000 mm 0,0 UV-I 0 W/m 13,3 C 3,2 km/h (1 Bft)
02.08.2016 23:41 14,4 C 14,4 C 94 % 1018,4 hPa 0,0 mm 0,0 km/h (0 Bft) S 173 0 min 0,000 mm 0,0 UV-I 0 W/m 13,4 C 0,0 km/h (0 Bft)
02.08.2016 23:42 14,4 C 14,4 C 94 % 1018,4 hPa 0,0 mm 1,2 km/h (1 Bft) S 173 0 min 0,000 mm 0,0 UV-I 0 W/m 13,4 C 3,2 km/h (1 Bft)
02.08.2016 23:43 14,3 C 14,4 C 94 % 1018,4 hPa 0,0 mm 1,0 km/h (0 Bft) S 173 0 min 0,000 mm 0,0 UV-I 0 W/m 13,3 C 1,6 km/h (1 Bft)
02.08.2016 23:44 14,3 C 14,3 C 94 % 1018,4 hPa 0,0 mm 0,4 km/h (0 Bft) S 173 0 min 0,000 mm 0,0 UV-I 0 W/m 13,3 C 1,6 km/h (1 Bft)
02.08.2016 23:45 14,3 C 14,3 C 94 % 1018,4 hPa 0,0 mm 0,0 km/h (0 Bft) S 173 0 min 0,000 mm 0,0 UV-I 0 W/m 13,3 C 0,0 km/h (0 Bft)
02.08.2016 23:46 14,3 C 14,3 C 94 % 1018,4 hPa 0,0 mm 0,6 km/h (0 Bft) S 173 0 min 0,000 mm 0,0 UV-I 0 W/m 13,3 C 3,2 km/h (1 Bft)
02.08.2016 23:47 14,2 C 14,3 C 94 % 1018,4 hPa 0,0 mm 1,9 km/h (1 Bft) S 173 0 min 0,000 mm 0,0 UV-I 0 W/m 13,2 C 3,2 km/h (1 Bft)
02.08.2016 23:48 14,2 C 14,2 C 94 % 1018,4 hPa 0,0 mm 0,9 km/h (0 Bft) S 173 0 min 0,000 mm 0,0 UV-I 0 W/m 13,2 C 1,6 km/h (1 Bft)
02.08.2016 23:49 14,2 C 14,2 C 94 % 1018,4 hPa 0,0 mm 0,2 km/h (0 Bft) S 173 0 min 0,000 mm 0,0 UV-I 0 W/m 13,2 C 1,6 km/h (1 Bft)
02.08.2016 23:50 14,2 C 14,2 C 94 % 1018,4 hPa 0,0 mm 1,3 km/h (1 Bft) S 173 0 min 0,000 mm 0,0 UV-I 0 W/m 13,2 C 3,2 km/h (1 Bft)
02.08.2016 23:51 14,2 C 14,2 C 94 % 1018,4 hPa 0,0 mm 2,0 km/h (1 Bft) S 173 0 min 0,000 mm 0,0 UV-I 0 W/m 13,2 C 3,2 km/h (1 Bft)
02.08.2016 23:52 14,2 C 14,2 C 94 % 1018,4 hPa 0,0 mm 1,0 km/h (0 Bft) S 173 0 min 0,000 mm 0,0 UV-I 0 W/m 13,2 C 1,6 km/h (1 Bft)
02.08.2016 23:53 14,1 C 14,2 C 95 % 1018,4 hPa 0,0 mm 1,2 km/h (1 Bft) S 173 0 min 0,000 mm 0,0 UV-I 0 W/m 13,3 C 1,6 km/h (1 Bft)
02.08.2016 23:54 14,2 C 14,2 C 94 % 1018,4 hPa 0,0 mm 2,1 km/h (1 Bft) S 173 0 min 0,000 mm 0,0 UV-I 0 W/m 13,2 C 3,2 km/h (1 Bft)
02.08.2016 23:55 14,2 C 14,2 C 94 % 1018,5 hPa 0,0 mm 0,0 km/h (0 Bft) S 173 0 min 0,000 mm 0,0 UV-I 0 W/m 13,2 C 0,0 km/h (0 Bft)
02.08.2016 23:56 14,1 C 14,2 C 94 % 1018,5 hPa 0,0 mm 0,1 km/h (0 Bft) S 173 0 min 0,000 mm 0,0 UV-I 0 W/m 13,1 C 1,6 km/h (1 Bft)
02.08.2016 23:57 14,1 C 14,2 C 94 % 1018,5 hPa 0,0 mm 0,3 km/h (0 Bft) S 173 0 min 0,000 mm 0,0 UV-I 0 W/m 13,1 C 1,6 km/h (1 Bft)
02.08.2016 23:58 14,1 C 14,1 C 94 % 1018,5 hPa 0,0 mm 1,1 km/h (1 Bft) S 173 0 min 0,000 mm 0,0 UV-I 0 W/m 13,1 C 1,6 km/h (1 Bft)
02.08.2016 23:59 14,1 C 14,1 C 95 % 1018,5 hPa 0,0 mm 1,1 km/h (1 Bft) S 173 0 min 0,000 mm 0,0 UV-I 0 W/m 13,3 C 1,6 km/h (1 Bft)
_ Min-Zeit 03:08 03:08 14:23 17:55 - 23:55 - - - - - - 03:03 23:55
Minimum _ 10,1 C 10,1 C 55 % 1016,7 hPa - 0,0 km/h (0 Bft) - - - - - - 9,0 C 0,0 km/h (0 Bft)
_ Max-Zeit 14:52 14:53 23:59 00:05 22:54 19:06 - - 16:23 14:01 13:25 13:29 16:00 19:06
Maximum _ 21,9 C 21,9 C 95 % 1019,5 hPa 0,2 mm 17,2 km/h
W-NW (3 Bft)
- - 1 min 0,432 mm 8,3 UV-I 1074 W/m 15,0 C 25,7 km/h
W-NW (4 Bft)
Durchschnitt _ 15,9 C 15,9 C 79 % 1018,0 hPa #2,8 mm 4,2 km/h (1 Bft) W - #5:18 h #2,819 mm 3,1 UV-I 180 W/m 12,1 C 7,2 km/h (2 Bft)